GFSGL_850_thetae_000.txt.gz
Theta_e
305 304 303 301 298 295 294 293 292 291 291 291 291 290 289 288 287 287 286 286 286 285 285 285 285 285 285 283 280 278 277 277 278 281 280 281 279 279 280 281 281 282 282
304 303 301 300 298 295 293 292 291 290 291 291 290 289 288 287 287 286 286 285 285 285 284 284 284 284 282 280 278 276 275 274 274 275 276 276 276 276 277 277 279 279 280
302 301 299 298 297 294 292 291 290 290 290 290 289 288 287 287 286 285 285 284 284 284 283 283 283 281 280 278 275 274 273 272 272 272 273 273 273 274 275 276 276 277 280
301 299 297 297 294 292 290 289 289 289 290 290 288 287 287 286 285 285 284 283 283 283 282 282 282 279 277 276 274 273 273 273 272 272 272 273 273 274 275 276 277 278 281
300 298 296 294 293 290 289 288 289 289 289 288 287 286 286 285 284 283 283 282 282 282 281 281 279 278 276 274 274 274 274 274 274 274 274 274 274 275 275 276 278 278 279
300 297 295 293 291 289 288 288 288 289 288 287 287 286 285 285 283 282 281 281 281 280 280 278 277 276 275 273 274 275 276 276 276 276 276 276 276 276 276 277 277 279 281
299 297 295 293 291 289 288 287 288 288 287 286 286 285 285 283 282 281 280 280 279 279 278 277 275 274 274 274 274 274 275 275 275 275 276 276 276 277 278 278 279 279 280
298 296 294 292 290 289 287 287 287 287 287 286 285 285 284 282 281 280 280 279 279 278 276 275 275 274 274 275 275 275 275 275 275 275 275 275 276 276 277 277 278 278 279
298 296 294 292 290 288 287 287 287 287 286 288 286 284 283 281 281 280 279 279 277 276 275 275 274 274 273 275 275 274 275 275 274 275 276 277 277 278 278 279 279 279 280
301 299 294 291 290 287 287 287 287 287 288 287 286 284 282 281 280 279 279 276 275 275 275 275 275 273 274 275 275 275 274 274 274 275 276 276 277 277 278 280 281 281 282
299 295 293 290 288 286 286 287 286 288 288 287 284 282 281 281 280 279 278 275 275 275 275 274 274 273 275 274 274 273 273 274 275 274 275 277 277 277 278 279 279 279 280
297 295 291 289 286 285 286 287 286 287 287 286 282 281 280 280 279 278 277 274 275 275 274 273 274 274 273 272 272 272 272 273 272 272 273 275 278 279 279 280 280 281 281
296 293 290 287 285 285 286 285 285 287 288 282 281 280 280 279 278 277 275 274 274 274 273 273 273 274 275 275 272 271 270 270 270 270 271 272 274 276 279 281 281 282 283
293 290 287 285 284 284 284 284 287 288 285 281 280 279 278 278 277 276 275 273 273 273 273 273 274 275 275 274 273 271 269 269 270 270 271 271 272 273 275 279 281 284 285
289 288 286 283 283 283 284 286 287 285 282 280 280 278 278 277 276 274 274 273 273 272 272 273 275 274 274 273 272 270 269 269 269 270 270 270 271 273 274 275 279 284 286
289 286 284 282 282 284 285 285 282 280 279 279 278 277 277 277 274 273 273 272 272 271 273 274 273 272 272 271 269 269 269 269 269 269 270 270 270 272 272 273 276 281 285
287 285 282 281 281 284 285 285 281 278 277 277 276 276 276 276 273 272 271 273 273 273 273 272 272 271 271 270 269 269 268 269 269 270 270 270 271 271 270 271 273 277 282
283 283 282 281 284 285 284 282 281 279 277 276 275 275 275 275 274 274 274 272 273 272 272 271 271 271 270 270 269 269 269 269 269 270 270 271 270 269 269 269 271 273 277
280 279 282 281 285 285 283 282 277 276 275 275 274 274 275 274 274 273 272 271 272 271 270 270 270 270 270 270 269 269 269 269 270 270 271 270 269 269 269 269 270 271 274
278 278 278 284 284 283 282 277 275 275 274 274 274 274 273 273 272 272 271 271 271 271 270 270 269 270 270 270 270 270 269 269 270 271 270 269 269 268 268 269 270 270 272
273 274 280 283 282 282 277 276 274 274 274 273 273 273 273 272 272 272 271 271 271 270 269 269 269 269 270 270 270 270 270 269 270 271 270 269 268 268 269 269 270 270 272
273 278 280 280 279 275 275 274 274 273 273 273 273 273 273 271 273 271 271 271 271 270 269 269 269 269 269 269 270 270 270 271 270 271 270 269 269 269 268 269 270 271 274
276 279 278 278 275 275 274 273 273 273 272 272 273 272 271 272 272 271 272 271 271 269 269 269 269 270 269 269 270 270 271 272 271 271 271 270 269 268 268 269 270 272 275
278 279 278 275 275 274 273 273 272 271 272 272 271 270 270 272 271 272 271 271 270 269 269 269 269 269 269 269 270 270 271 272 272 270 271 271 269 269 268 269 270 272 277
279 278 276 276 274 272 272 271 271 271 271 270 270 269 271 271 271 271 271 270 269 269 269 268 269 270 269 269 270 270 270 272 272 270 271 272 271 270 268 269 270 274 278
276 277 276 273 272 271 271 271 271 270 270 269 269 269 270 271 270 270 270 270 270 269 269 268 269 269 269 269 269 270 270 271 271 270 270 271 272 271 269 269 270 274 278

GFSGL_850_thetae_003.txt.gz
Theta_e
307 307 307 307 305 303 300 298 295 293 292 292 292 292 292 292 292 291 289 288 286 286 285 285 285 285 285 285 284 282 281 280 280 287 283 283 281 281 279 279 278 280 281
308 306 305 304 303 301 299 297 295 293 292 291 291 291 291 292 292 290 288 287 286 285 285 285 285 285 284 283 282 280 279 279 276 279 283 283 280 278 276 275 276 277 277
308 306 303 303 302 301 299 296 293 292 291 290 290 291 291 291 290 288 287 286 285 285 285 285 284 283 282 281 280 279 278 275 274 274 279 276 277 275 274 274 275 276 276
308 306 304 302 302 301 299 295 292 291 290 290 290 290 291 291 289 287 286 286 285 285 284 284 283 282 281 281 280 277 275 274 273 273 273 274 273 274 274 274 275 275 276
306 305 304 302 301 298 297 294 292 290 290 289 290 290 290 289 288 286 286 286 285 284 284 283 282 281 281 279 275 274 274 274 274 274 274 275 275 276 276 276 276 277 277
307 305 303 301 300 298 296 293 292 290 289 289 289 289 289 288 287 286 286 284 284 283 283 282 281 280 279 277 274 275 275 276 276 276 276 276 276 276 275 276 276 277 277
306 304 302 301 298 297 294 292 291 290 289 288 288 288 288 287 286 285 284 284 284 283 282 281 280 279 278 276 275 275 275 275 275 276 276 276 276 276 276 276 276 276 277
306 305 302 300 298 296 293 292 290 289 288 288 288 288 287 286 285 287 283 283 283 282 280 280 279 278 276 274 275 275 275 275 275 275 275 276 276 276 276 277 277 277 277
307 305 303 301 298 296 293 291 290 289 287 287 287 286 286 287 290 284 283 282 282 280 280 279 278 276 276 275 276 276 275 275 275 275 275 276 277 278 278 278 279 279 278
307 306 303 300 298 296 294 291 289 288 286 286 286 285 286 290 285 285 283 282 280 280 279 279 277 275 274 275 276 276 275 275 275 275 274 275 275 275 275 276 277 278 279
306 305 301 299 297 294 292 290 288 287 285 285 285 285 290 287 286 282 281 281 280 279 279 277 276 276 275 276 275 275 274 274 274 274 273 272 272 272 273 275 278 278 278
302 302 300 298 295 291 289 288 286 285 285 284 284 287 287 287 283 281 280 279 279 278 277 276 275 275 276 276 275 276 273 273 274 273 271 271 270 271 272 273 274 276 279
300 299 298 296 293 290 289 286 285 283 284 283 285 286 287 283 281 280 278 279 278 276 276 275 276 276 276 276 276 275 274 274 273 270 270 270 270 270 271 271 272 274 276
298 296 295 293 291 288 286 285 284 283 283 283 284 286 285 280 279 278 277 277 277 275 276 276 276 275 276 276 276 275 274 273 271 270 270 270 270 270 271 271 271 273 275
299 300 298 291 289 287 286 285 283 283 283 285 286 288 284 280 279 277 277 277 275 274 275 275 275 276 276 276 275 275 274 273 271 270 270 269 270 270 270 270 271 272 272
298 296 293 294 292 288 285 282 281 282 282 283 284 286 280 277 276 276 274 274 274 275 274 275 275 275 275 274 273 273 273 272 271 271 270 269 270 271 271 271 270 270 271
296 296 292 290 285 283 280 280 279 277 279 282 284 281 277 277 275 273 273 274 274 274 273 274 273 273 273 272 272 272 272 272 272 271 270 269 270 271 270 270 269 269 269
294 293 292 288 285 283 279 277 278 277 278 277 277 277 276 275 273 272 274 273 273 272 273 273 272 272 271 271 271 271 272 272 272 271 270 269 271 271 270 269 269 269 269
291 290 286 284 282 279 276 276 276 278 284 280 275 273 273 272 272 271 273 272 271 272 273 272 272 271 271 271 271 271 271 272 271 270 270 269 271 270 270 269 269 269 269
286 285 284 280 276 274 274 275 276 282 282 280 275 275 274 273 273 273 272 272 272 272 273 272 271 271 271 270 270 271 271 272 271 270 270 270 270 269 269 269 269 269 269
282 280 277 275 274 273 273 275 279 281 278 275 275 275 274 274 273 272 272 271 271 272 272 271 270 271 270 269 270 271 271 271 271 271 270 270 270 269 269 268 268 268 269
278 276 273 273 273 272 274 279 279 279 276 274 274 273 272 271 271 271 271 271 271 271 271 270 270 271 270 269 270 270 270 271 271 271 270 270 270 269 269 268 268 268 269
275 273 272 271 272 274 277 277 279 276 274 274 273 273 272 271 271 271 271 270 270 270 270 269 270 270 270 270 269 269 270 271 271 271 270 270 269 270 269 268 268 268 268
272 271 270 271 272 275 277 277 275 274 274 273 272 271 271 271 271 271 270 270 269 270 269 269 269 270 270 270 269 269 270 270 271 270 270 270 269 270 270 268 268 268 268
270 270 270 272 274 276 275 275 274 273 272 272 271 271 270 270 271 270 269 269 269 269 269 269 270 270 270 269 269 269 269 270 271 270 270 270 269 270 271 269 268 268 268
269 270 272 274 275 275 275 273 272 271 271 270 270 270 270 270 270 269 269 269 269 269 269 269 270 270 269 269 269 269 269 270 271 270 270 270 269 269 271 270 269 268 268

GFSGL_850_thetae_006.txt.gz
Theta_e
309 309 308 308 307 305 305 304 302 299 297 295 293 293 293 292 292 292 292 292 293 292 289 288 288 287 287 286 285 285 284 284 284 288 285 285 285 286 286 285 286 286 286
311 310 309 307 307 305 305 304 302 299 297 295 293 293 292 292 291 291 292 292 292 290 289 288 287 286 286 285 285 284 283 283 284 286 286 285 285 285 285 286 285 284 284
310 309 308 307 306 305 304 303 301 298 296 295 292 292 291 291 291 291 291 291 291 289 288 287 287 286 285 284 284 284 283 283 283 283 285 283 283 284 285 284 282 280 279
309 308 308 307 307 305 304 302 301 299 297 295 292 291 291 291 290 290 290 290 290 288 288 287 286 285 284 284 284 283 283 283 283 282 283 284 281 280 278 278 277 277 277
310 309 309 308 306 303 302 301 299 297 296 295 292 291 291 290 290 290 290 290 289 288 287 286 285 285 284 284 283 283 282 282 281 279 278 277 277 277 277 277 276 276 276
310 309 308 307 306 304 302 300 298 295 294 293 292 291 290 289 289 289 289 288 288 287 286 285 285 284 284 283 282 281 280 278 277 277 277 276 277 276 276 276 276 276 276
309 309 307 307 305 303 302 299 297 296 294 293 291 290 289 289 288 288 288 288 287 286 285 284 283 284 283 282 281 281 279 278 277 276 276 276 276 276 276 276 276 276 276
309 307 306 304 302 302 299 298 296 295 294 293 291 289 288 288 288 288 288 287 286 286 284 283 284 283 282 281 280 280 279 278 277 277 276 276 276 276 276 277 277 278 278
308 307 306 305 303 302 299 297 296 295 293 292 291 289 288 287 286 286 286 286 287 286 283 283 283 282 281 280 279 277 277 278 278 277 276 276 276 276 275 274 274 274 275
307 306 305 303 301 300 298 296 295 293 292 291 290 288 287 286 286 285 285 286 286 284 283 283 282 280 281 280 278 277 277 278 277 276 276 276 276 276 276 273 272 272 272
302 302 302 301 300 298 295 294 293 291 290 289 288 287 286 285 284 284 285 287 285 283 282 281 281 280 279 279 277 277 277 276 275 276 276 276 276 275 275 273 271 271 272
300 299 298 297 297 295 294 293 292 289 288 287 287 285 284 283 283 283 284 284 283 282 281 280 280 280 280 277 276 277 277 276 276 276 276 277 275 274 274 272 271 271 271
299 299 297 295 293 293 292 290 289 289 287 287 286 284 283 283 283 283 281 281 282 281 281 280 279 280 279 277 277 277 277 276 276 276 275 275 274 274 273 272 271 271 271
298 298 299 296 295 294 292 290 288 287 286 286 285 283 283 282 283 282 280 279 279 279 279 279 278 278 277 277 277 277 276 276 275 275 275 274 274 274 273 272 270 271 271
296 298 297 296 299 298 297 296 294 292 289 289 287 284 283 282 284 284 283 281 278 278 278 278 277 277 276 276 276 275 275 275 275 274 274 274 274 273 273 271 270 271 271
293 293 295 297 293 294 294 294 289 285 286 284 284 284 283 282 282 280 279 278 277 277 277 277 277 275 274 274 274 274 274 274 273 273 273 273 272 271 271 270 271 271 271
290 292 293 291 290 290 290 290 285 279 280 277 277 279 281 282 281 281 279 276 275 277 276 276 274 274 274 273 273 273 273 273 272 272 272 271 271 271 270 270 271 270 270
285 287 290 292 293 290 287 285 282 279 277 276 276 277 279 278 278 277 276 275 276 276 275 273 273 274 273 273 273 273 272 272 272 272 271 271 271 269 269 270 270 270 270
283 285 286 287 287 286 285 280 278 276 276 276 275 275 276 277 276 275 276 277 276 274 273 273 273 273 272 272 272 272 271 272 271 271 271 271 270 269 269 269 270 270 269
282 284 285 284 283 280 278 277 275 275 276 275 275 275 276 275 275 276 277 275 274 272 273 273 273 273 271 271 272 271 272 272 271 271 271 270 270 269 269 269 269 269 269
280 281 282 281 279 278 277 275 274 274 275 275 275 276 277 276 278 276 276 274 273 273 273 273 273 272 270 271 271 271 271 271 270 271 270 270 269 269 269 269 269 269 269
279 279 279 277 276 275 274 274 273 273 273 276 277 275 276 277 276 275 273 273 273 273 273 273 272 271 270 270 271 271 270 270 270 270 270 270 269 270 269 268 268 269 268
277 277 276 274 273 273 272 272 272 272 275 277 275 273 276 274 274 273 273 273 273 272 272 272 271 270 270 270 270 270 270 270 270 270 270 269 269 270 269 268 268 268 268
274 273 273 272 272 271 271 271 271 273 274 274 274 275 275 273 272 272 272 272 272 272 272 271 271 270 270 270 269 269 269 269 270 270 269 269 269 269 269 268 268 268 268
271 271 271 270 270 270 270 270 271 273 274 275 274 274 272 271 271 271 271 271 271 271 271 270 270 270 269 269 269 269 269 269 270 270 269 269 269 269 269 268 269 268 268
269 269 269 269 269 270 270 272 273 274 274 273 273 272 271 271 271 271 271 270 270 270 270 269 269 269 269 269 269 269 269 269 270 269 269 269 269 268 268 268 269 269 268

GFSGL_850_thetae_009.txt.gz
Theta_e
310 310 309 308 308 307 308 306 305 304 304 302 299 297 296 294 293 292 292 292 292 292 292 292 291 290 289 289 288 287 287 286 285 286 284 285 286 286 286 286 286 287 288
311 310 309 308 307 306 308 308 305 304 304 302 300 298 296 295 294 293 292 292 292 292 292 292 291 289 289 288 288 287 286 286 285 286 285 284 285 285 285 286 286 287 286
310 310 308 307 306 306 307 307 306 305 304 302 300 298 297 295 293 293 292 292 291 292 291 291 290 289 289 288 287 286 286 286 285 285 285 284 284 285 286 286 285 285 284
308 309 308 308 309 308 306 305 305 305 303 302 300 299 297 295 293 292 292 291 290 290 290 289 289 288 288 287 286 286 285 285 285 285 285 284 283 284 284 284 284 284 282
305 306 308 308 308 306 304 305 304 303 302 301 299 297 295 294 293 292 291 290 290 290 290 289 288 288 287 287 286 286 285 285 284 284 284 284 284 283 282 282 282 282 282
305 305 304 306 306 307 306 304 305 302 299 298 297 296 296 294 293 292 291 290 289 289 289 288 287 287 286 286 286 286 286 285 284 283 283 283 283 282 281 280 279 279 278
303 305 305 302 304 303 304 303 303 300 298 297 297 295 294 294 293 291 290 289 288 288 288 287 286 286 286 285 285 284 283 283 282 281 281 282 281 279 278 277 277 277 277
299 301 301 300 302 302 302 302 301 300 299 298 296 295 294 294 292 290 289 288 288 288 287 286 285 285 284 284 284 283 283 283 281 281 281 280 279 278 277 277 277 277 278
298 297 295 296 297 298 299 299 299 298 297 296 294 294 294 293 290 288 288 287 287 286 285 285 284 284 284 284 284 283 283 282 280 281 280 279 279 278 278 277 278 276 277
296 298 297 294 295 294 295 296 296 295 295 294 294 294 293 294 290 288 287 286 286 285 284 284 285 284 284 283 282 282 282 281 281 280 280 280 279 279 278 277 277 275 275
294 296 299 298 292 293 292 292 293 293 292 291 292 292 291 291 288 287 286 286 286 286 285 285 285 284 282 282 282 282 280 280 280 279 278 279 278 278 277 278 277 276 274
291 292 296 298 298 293 290 290 289 288 289 290 290 289 289 288 287 285 284 285 285 285 285 285 283 281 282 282 282 280 279 278 279 277 277 278 277 277 277 277 276 276 275
290 291 293 296 297 298 296 290 287 286 286 288 288 288 287 286 284 282 282 282 284 283 283 282 281 281 282 282 281 279 279 278 277 277 277 276 276 275 275 276 276 276 275
285 288 290 293 295 297 298 297 292 288 286 286 285 285 285 284 284 280 281 281 281 281 280 279 280 284 281 279 279 279 278 277 276 275 275 275 275 274 274 274 274 273 272
283 283 286 290 293 293 294 295 295 295 295 292 290 288 287 286 285 283 281 280 280 281 281 281 282 280 279 279 278 277 276 275 274 274 274 274 274 274 274 273 273 272 271
279 281 281 284 288 291 291 291 290 290 288 289 287 287 290 287 287 285 283 280 281 282 281 284 281 279 279 278 277 275 275 275 274 274 274 274 273 273 273 273 272 270 270
278 279 280 281 283 285 288 289 289 287 286 285 281 281 284 283 282 282 281 279 279 279 281 282 279 279 278 276 275 275 275 274 273 273 273 274 273 272 272 273 272 270 269
276 277 278 279 281 282 284 286 285 285 283 283 280 278 278 279 278 278 278 277 277 276 281 279 278 278 276 275 275 275 274 273 272 272 272 273 272 271 272 272 271 269 269
273 275 276 278 280 281 282 284 283 282 281 280 280 278 277 277 277 278 277 277 279 282 280 277 277 276 275 275 275 274 273 272 272 271 272 272 271 270 270 271 270 269 268
273 275 276 277 279 280 281 281 281 280 279 278 278 278 277 277 278 279 279 278 281 280 279 276 275 275 275 274 274 273 272 272 271 270 271 271 271 270 270 270 269 268 268
273 275 277 277 279 279 279 279 278 278 278 277 277 277 278 278 279 279 278 279 279 278 276 274 274 274 274 273 273 272 272 271 270 270 271 271 270 270 269 270 268 268 268
274 276 276 277 278 278 277 277 276 276 276 276 276 277 278 278 278 278 279 279 278 275 273 274 274 273 273 272 272 272 271 271 270 270 270 270 270 269 269 269 268 268 267
273 275 276 276 275 275 274 274 274 275 275 275 276 277 278 277 278 277 277 277 274 272 272 273 272 272 272 271 271 271 271 270 270 269 270 270 269 269 269 269 268 268 267
272 272 273 273 273 273 273 273 273 274 275 275 275 276 276 276 276 276 275 272 272 272 272 272 271 271 271 271 270 270 270 269 269 269 269 269 269 268 269 268 268 268 267
270 271 271 271 271 271 271 272 272 273 273 273 274 274 274 275 275 274 271 271 272 272 271 271 271 271 271 271 270 270 269 269 269 269 269 269 269 268 268 268 268 268 268
269 269 270 270 270 270 271 270 271 271 272 273 273 274 275 274 274 271 271 271 271 271 271 271 271 271 271 270 270 269 269 269 269 269 269 268 269 268 268 268 268 268 267

GFSGL_850_thetae_012.txt.gz
Theta_e
303 304 305 307 307 307 306 306 306 305 305 305 303 302 301 299 297 295 294 293 293 293 293 293 293 293 293 292 290 289 289 288 288 287 287 288 288 288 288 289 289 289 289
306 305 304 304 305 304 305 305 305 305 305 304 303 302 300 299 297 296 295 294 293 293 293 293 293 292 292 291 290 289 288 287 286 287 287 286 287 286 287 286 286 287 287
303 305 305 305 303 303 304 304 303 304 304 304 303 302 302 300 298 296 295 295 294 293 293 292 292 292 292 291 289 288 287 286 286 286 285 285 285 285 285 285 285 285 285
298 300 302 305 307 304 301 301 301 302 302 302 303 302 300 300 299 297 296 294 294 293 292 292 291 291 291 290 288 287 286 286 286 285 285 285 284 284 284 284 285 285 285
297 298 299 302 304 305 303 302 301 300 302 301 299 301 300 299 299 298 296 295 294 293 291 291 290 290 290 289 288 287 286 286 286 285 284 284 284 284 284 283 283 284 284
297 296 297 298 300 301 302 301 301 299 299 299 300 299 298 299 298 298 296 295 294 292 291 290 289 289 290 289 287 286 286 286 286 285 285 285 285 284 283 283 282 283 282
293 294 295 297 298 298 299 298 300 298 298 298 298 298 298 297 296 296 295 294 293 292 291 290 289 289 288 287 286 285 285 285 286 286 286 285 284 283 283 283 282 280 280
289 291 292 294 297 299 297 297 295 295 295 297 297 296 297 296 295 295 294 293 292 291 291 290 289 289 288 287 286 285 285 286 286 285 285 284 283 282 282 281 280 279 280
287 288 289 290 292 297 298 296 294 293 291 293 294 294 295 294 294 294 292 292 291 291 290 288 288 287 287 286 285 284 284 285 285 284 284 283 282 281 280 280 280 279 279
285 286 287 288 290 293 297 298 294 292 290 289 290 291 291 293 292 291 291 291 290 289 288 287 287 287 286 285 285 284 284 285 284 284 283 282 281 280 280 279 279 279 277
284 284 285 287 288 291 293 296 296 293 290 289 288 289 288 289 289 289 288 290 289 288 287 286 285 285 284 284 283 284 284 283 283 284 282 282 280 280 279 278 278 277 276
284 283 284 285 285 287 290 292 296 294 291 289 289 286 286 286 288 285 285 287 288 288 287 287 286 285 283 282 281 282 282 283 283 282 281 280 280 279 278 278 277 276 275
283 284 283 283 283 285 286 290 291 295 291 291 287 286 286 285 285 285 284 284 284 286 285 285 285 283 282 280 280 279 279 281 281 281 280 279 279 278 277 277 276 276 276
280 282 283 282 283 282 284 285 289 289 292 290 292 288 285 285 286 284 283 284 282 283 283 283 282 281 280 280 279 279 280 279 280 279 278 277 277 277 276 275 276 275 276
276 278 279 279 280 280 281 283 285 288 288 291 291 293 291 290 288 285 284 284 282 283 283 282 280 278 279 279 278 278 278 278 278 277 277 276 276 276 275 274 274 274 275
275 277 276 275 277 278 278 280 283 284 286 286 286 288 290 291 288 285 283 283 284 283 283 282 280 280 280 281 280 278 278 278 277 276 276 276 275 275 273 273 273 273 274
271 273 273 273 272 274 276 278 279 282 283 283 284 281 283 286 287 285 282 282 281 281 282 281 279 280 281 281 278 277 277 276 275 275 275 274 275 274 273 272 272 272 273
268 269 269 270 270 271 274 276 278 279 281 283 282 282 281 280 281 282 283 281 281 279 279 281 280 281 282 279 277 278 276 276 276 275 274 274 273 272 272 272 271 272 272
266 267 267 268 270 272 273 275 277 279 280 281 280 281 281 280 279 280 281 281 281 279 277 280 282 281 280 277 277 275 275 276 275 274 273 273 272 271 272 271 271 270 270
265 266 268 270 271 272 273 275 277 278 279 279 279 280 280 279 278 279 280 281 280 279 278 280 281 280 278 277 275 275 275 274 274 273 273 272 271 271 271 270 270 270 269
267 269 271 271 272 273 273 275 276 278 278 277 278 278 279 280 279 279 280 280 279 278 279 281 279 279 276 274 274 274 274 273 273 272 271 271 271 271 270 270 269 269 269
268 269 271 272 273 274 275 276 277 277 276 276 276 277 278 278 278 279 279 279 278 278 279 279 278 276 273 273 274 273 273 272 272 271 270 270 270 270 270 269 269 269 268
269 270 271 272 273 274 275 275 275 275 275 275 276 277 279 278 278 278 279 278 278 277 277 276 274 273 273 273 273 273 272 271 271 270 270 270 270 270 269 269 268 268 268
269 270 271 271 272 272 273 273 273 274 275 275 276 277 277 278 278 278 277 277 276 276 274 272 272 272 272 272 272 272 271 270 270 270 269 270 270 269 269 268 268 268 268
268 269 270 271 271 271 272 272 273 274 274 275 276 276 276 277 277 276 276 276 275 274 272 271 271 271 271 271 271 270 270 270 269 269 269 269 269 269 268 268 268 268 267
268 268 269 270 270 271 271 271 272 273 273 274 275 275 275 275 276 276 275 274 272 270 271 271 271 270 270 270 270 270 269 269 269 269 269 269 269 268 268 268 268 267 267

GFSGL_850_thetae_015.txt.gz
Theta_e
302 303 304 303 302 301 302 302 302 303 303 303 303 302 302 302 301 299 298 296 295 294 294 294 294 294 294 294 294 293 293 292 291 290 289 289 290 288 287 288 288 289 289
299 300 301 302 303 303 301 300 299 300 301 301 301 302 301 301 301 300 298 297 295 295 294 294 294 293 293 293 293 293 292 291 290 289 289 289 289 288 289 289 289 288 289
296 298 299 300 301 302 303 302 300 298 298 299 300 300 300 301 300 299 299 298 296 294 294 294 294 293 293 293 292 292 292 291 290 289 289 289 290 289 289 289 289 289 289
294 292 294 296 297 299 301 301 301 301 298 297 298 299 299 299 299 299 298 297 297 295 295 294 293 293 293 293 292 292 292 291 290 289 288 288 288 288 288 288 288 288 288
289 292 291 292 294 295 297 299 300 299 298 297 296 296 297 299 299 298 298 297 297 295 294 293 292 292 292 292 292 292 291 290 289 288 287 287 287 286 287 286 286 285 286
288 288 288 290 290 293 293 295 299 300 298 297 296 294 295 296 297 298 298 297 296 296 295 292 292 291 291 291 291 290 290 290 289 288 286 287 286 286 285 285 284 283 283
286 286 286 287 288 289 290 292 294 298 299 297 294 293 294 293 294 295 296 296 296 296 295 293 291 291 290 290 289 289 289 289 287 286 286 286 286 285 284 284 284 283 282
286 286 286 286 286 286 288 288 291 295 297 297 294 292 294 294 292 292 293 293 295 295 295 294 292 291 290 289 288 289 289 288 287 286 285 285 285 283 283 284 284 283 282
285 285 285 285 285 285 285 286 286 290 294 297 297 293 292 292 290 292 289 290 292 293 294 294 292 291 290 289 288 288 287 286 285 284 284 283 283 282 283 284 283 281 281
285 285 284 284 284 284 284 284 284 285 289 293 296 296 291 290 288 288 288 286 288 290 291 292 291 290 289 288 288 287 286 286 285 284 284 283 281 282 281 282 281 280 279
283 284 284 284 284 284 284 284 284 284 285 289 292 295 296 291 288 287 286 287 288 288 289 289 291 289 288 287 287 286 286 286 284 282 282 282 281 280 280 280 280 280 279
281 282 283 283 284 284 283 284 283 283 284 285 289 293 296 294 289 286 286 286 287 288 287 287 287 287 287 286 285 286 284 283 281 282 281 281 280 279 279 278 279 278 278
278 280 282 282 282 282 282 283 282 282 282 284 285 290 291 292 288 287 287 285 286 286 286 286 286 285 285 284 284 284 283 280 281 281 281 280 279 278 277 277 278 277 277
274 275 277 278 280 281 281 280 280 280 280 281 283 286 289 289 290 289 285 284 286 285 284 283 282 282 282 283 282 283 281 280 280 281 280 279 278 277 276 277 277 277 278
271 271 271 271 273 276 277 278 277 278 278 279 281 283 286 288 290 288 288 284 285 284 283 283 282 280 280 280 281 281 280 280 280 280 280 279 277 276 276 276 277 277 277
266 266 266 266 267 268 270 274 276 274 277 279 280 280 282 284 284 285 285 285 285 284 283 283 281 281 280 280 280 280 280 280 282 282 280 277 276 276 276 276 276 276 276
263 264 263 264 264 265 266 268 270 275 276 278 280 281 281 281 282 281 283 284 284 283 282 282 282 280 279 280 280 280 280 281 281 280 276 275 275 275 275 275 275 275 275
262 263 263 263 264 264 265 267 268 269 273 275 277 279 281 282 282 281 280 282 284 280 280 281 281 280 279 280 280 281 281 280 280 276 275 275 275 275 274 274 274 274 275
263 263 264 264 264 265 265 266 268 269 271 274 276 278 280 282 282 281 281 281 284 281 279 279 280 282 282 280 280 281 280 280 276 274 274 275 274 274 273 273 273 273 273
264 264 264 265 265 266 267 267 268 269 271 274 276 277 279 280 281 281 280 280 282 281 279 278 279 281 281 280 280 279 279 277 274 273 273 273 273 273 272 272 272 272 272
264 265 266 266 267 268 269 270 270 270 273 275 276 277 278 278 280 281 280 280 281 282 279 277 279 281 280 279 278 278 277 274 273 273 272 272 272 272 271 271 271 271 271
265 266 267 268 269 270 271 272 272 273 274 275 276 276 277 279 280 280 279 280 280 280 280 279 279 279 279 278 277 276 273 273 273 272 272 272 272 271 271 271 271 270 269
267 267 268 269 270 271 272 273 273 274 274 274 275 275 276 278 279 279 279 279 279 279 279 279 278 277 276 275 274 273 273 272 272 272 271 271 271 271 270 270 269 269 269
267 268 268 269 270 271 272 272 273 273 274 274 275 276 277 278 278 278 278 278 278 278 277 277 276 275 274 274 273 272 272 272 271 271 271 270 270 270 270 269 269 268 268
267 267 268 269 269 270 271 272 273 273 274 274 275 275 276 276 277 276 276 276 276 276 275 274 274 273 272 271 271 271 271 271 270 270 270 269 269 269 269 269 268 268 268
268 268 268 268 268 269 270 271 271 272 273 273 274 274 274 274 274 274 274 274 275 274 274 273 271 270 271 271 271 270 270 270 270 269 269 269 269 269 269 268 268 268 268

GFSGL_850_thetae_018.txt.gz
Theta_e
299 299 300 301 300 300 301 302 302 300 299 298 298 299 300 300 300 300 300 300 299 298 296 295 295 295 295 295 295 296 295 295 294 293 292 291 291 290 291 290 290 290 290
293 296 296 296 299 299 299 299 300 302 302 300 298 297 298 299 299 299 299 299 299 298 296 295 294 294 294 294 294 295 295 295 294 293 292 291 290 289 289 290 290 289 290
291 291 291 293 294 295 296 296 297 299 300 300 301 300 298 297 296 297 299 298 298 299 297 296 294 293 293 293 294 294 295 294 294 293 291 290 289 289 289 289 289 289 289
287 288 289 289 289 291 292 293 295 295 297 299 300 299 298 297 296 296 295 296 297 297 296 296 295 294 294 293 293 293 294 294 294 292 290 289 289 288 288 288 288 289 289
287 286 286 286 287 287 287 288 289 292 294 296 297 298 299 297 296 296 295 294 294 295 297 297 296 294 293 293 293 293 293 293 293 292 290 289 288 288 288 289 288 289 289
286 286 286 286 286 286 286 286 287 287 288 291 295 296 298 298 297 295 293 293 293 293 294 295 295 296 295 293 292 291 292 293 293 292 291 291 290 289 288 288 288 289 288
286 286 286 286 286 286 285 285 285 285 286 287 288 291 295 297 297 295 292 292 291 292 292 293 294 295 294 293 292 291 291 291 291 292 292 292 290 289 288 288 288 288 287
285 285 285 285 285 286 285 285 285 285 285 285 285 286 287 291 294 292 292 289 292 292 292 291 292 293 294 293 291 291 290 290 290 289 288 289 288 288 287 287 287 286 285
285 285 284 284 285 285 285 285 285 285 285 285 285 285 285 287 289 294 289 290 290 291 290 291 290 291 291 292 292 291 290 290 289 288 288 287 286 285 285 285 285 284 283
284 283 283 283 283 283 284 285 285 285 285 284 285 285 284 285 286 289 292 287 288 288 288 288 289 289 287 289 287 288 288 289 288 287 286 286 285 284 284 284 284 283 282
280 280 281 282 281 282 282 283 284 284 284 284 284 284 284 284 285 286 291 290 287 287 287 286 287 287 286 285 287 286 287 287 287 287 286 285 283 282 283 283 283 281 281
277 277 276 277 278 279 279 280 281 281 282 283 283 284 284 284 284 285 287 291 288 286 286 286 285 285 285 286 285 284 285 285 286 285 284 283 283 283 285 282 281 280 280
275 275 274 273 272 273 273 274 274 277 278 280 280 281 282 283 283 284 285 288 290 286 286 287 286 285 285 283 283 284 284 283 284 284 283 282 283 286 283 280 279 278 279
271 271 271 269 269 269 269 269 270 271 273 274 276 278 280 280 282 283 284 286 288 287 285 286 286 284 284 284 283 283 283 283 283 284 282 282 284 282 280 279 279 278 278
267 266 265 265 265 266 266 266 267 268 270 271 273 274 277 279 280 281 282 283 286 287 285 285 284 283 284 282 282 284 281 281 281 281 281 283 284 280 280 279 278 277 276
263 263 263 263 263 263 264 264 266 267 269 271 272 274 276 277 279 281 281 281 283 283 284 283 282 282 284 282 282 282 280 279 279 279 280 285 280 280 279 278 276 276 276
263 262 262 262 263 263 263 264 264 265 267 269 271 273 275 276 279 281 282 282 282 282 283 282 282 281 283 282 282 281 278 279 280 280 282 281 280 278 277 277 276 275 275
263 263 263 263 263 263 263 263 264 265 265 266 269 270 273 277 279 281 282 282 282 282 284 281 281 281 282 281 281 279 279 280 281 281 280 280 279 279 278 276 275 274 274
264 264 264 264 264 264 264 264 264 265 265 266 268 270 273 275 278 279 281 283 282 282 283 281 281 281 281 280 280 279 280 280 281 280 280 279 278 277 275 275 274 274 274
264 264 264 265 265 265 265 265 265 266 266 267 268 270 274 276 277 279 282 283 282 282 283 280 280 280 281 281 279 279 279 280 280 279 278 278 276 274 274 274 274 273 272
264 264 265 266 266 267 267 267 268 268 269 270 271 273 275 276 277 278 281 282 282 281 282 280 279 280 280 280 279 278 279 279 279 278 277 275 275 275 274 272 272 272 272
264 266 266 267 267 268 269 270 270 271 272 273 273 274 275 276 277 279 281 281 281 280 280 280 280 280 280 280 279 278 278 278 277 276 275 274 274 273 272 272 271 271 271
266 266 267 268 268 269 270 271 272 273 273 273 274 274 275 276 277 279 280 280 280 279 279 279 279 279 279 278 277 276 276 276 276 275 275 274 273 272 271 271 271 270 270
267 267 267 268 269 269 269 270 271 272 273 273 273 274 275 276 277 278 278 278 278 277 277 277 277 278 278 276 275 275 275 275 274 274 273 273 271 270 270 270 270 270 269
267 267 267 268 269 270 270 270 270 271 272 272 272 273 273 275 276 276 276 275 275 275 275 275 276 275 274 274 274 274 274 273 273 273 272 270 270 270 270 270 269 269 269
268 268 268 268 269 270 270 271 270 270 270 271 271 272 272 273 274 274 274 274 274 274 274 273 273 273 273 273 272 272 273 273 271 270 270 270 270 269 269 269 269 268 268

GFSGL_850_thetae_021.txt.gz
Theta_e
291 292 292 292 293 293 295 297 297 298 299 300 299 298 297 297 297 296 297 297 298 299 298 298 298 298 296 295 295 295 296 296 296 295 295 296 295 293 292 291 291 292 292
288 289 289 289 289 290 291 292 293 295 296 297 299 299 298 298 296 296 296 296 296 296 297 298 297 297 296 295 295 295 295 295 294 295 295 295 295 293 292 291 290 291 291
288 288 287 288 288 288 288 289 289 290 291 293 294 296 299 299 297 296 296 295 296 296 294 295 296 297 297 296 295 294 294 294 294 293 294 294 294 293 292 291 290 290 290
287 287 287 287 287 286 286 287 287 287 288 288 290 290 292 296 298 298 296 295 295 295 295 295 293 294 296 297 295 294 294 294 294 293 293 293 293 292 291 291 290 290 289
287 286 286 286 286 286 286 286 286 286 286 287 287 287 288 288 290 294 296 296 295 294 294 294 294 294 294 294 296 295 294 293 293 293 292 292 291 291 291 291 290 289 289
287 286 286 286 286 286 286 286 286 286 286 286 286 286 286 286 286 286 288 294 295 295 294 293 293 293 294 293 293 293 295 293 293 293 292 292 292 292 292 291 290 288 288
286 286 286 286 286 285 285 286 286 285 285 285 285 286 286 286 285 285 285 286 292 294 295 293 291 292 292 293 293 291 291 293 292 293 293 293 293 293 293 291 290 289 289
286 286 286 285 285 286 286 286 286 285 285 285 285 285 285 285 285 285 285 285 285 289 293 293 290 289 290 292 291 290 290 290 291 290 291 292 292 292 293 292 291 288 287
283 282 282 281 282 283 284 284 284 284 284 285 285 285 285 286 285 285 285 285 284 285 287 292 292 288 288 287 289 289 290 290 290 289 289 290 290 290 290 290 288 286 285
281 280 280 280 279 279 280 281 282 282 283 283 284 285 285 285 286 285 285 284 284 284 285 287 293 293 288 287 286 287 286 288 288 288 286 287 287 288 289 289 288 287 286
279 278 277 277 277 276 276 276 276 276 277 279 281 283 283 284 285 285 285 284 284 284 284 285 288 291 289 287 286 285 287 286 286 286 286 286 285 287 288 288 287 285 285
276 276 274 274 273 273 272 272 272 272 272 273 274 276 280 282 282 283 283 283 284 283 284 284 286 289 288 287 286 286 285 285 285 286 285 284 285 286 285 285 285 284 284
277 276 274 272 270 269 269 269 269 269 270 271 271 272 274 276 277 279 282 283 283 283 283 284 286 287 287 287 286 286 285 285 285 285 285 285 284 284 283 282 282 282 282
272 271 270 268 267 266 266 266 266 267 268 268 269 270 271 273 275 277 280 281 281 282 282 283 285 286 286 287 286 286 285 285 285 284 283 283 282 282 282 282 281 282 282
269 267 266 265 264 264 264 264 264 265 266 266 267 268 269 270 272 274 276 279 281 281 281 281 284 285 286 286 284 285 285 284 284 283 282 282 281 281 281 281 281 281 283
266 265 265 264 264 264 264 264 265 266 267 267 268 269 270 271 272 274 275 277 278 280 282 282 282 284 285 284 284 284 284 284 284 283 282 281 279 279 280 280 281 281 281
265 264 264 264 264 263 264 264 264 265 266 266 267 268 269 271 272 273 275 276 277 280 282 282 282 283 283 283 283 283 284 283 283 282 281 280 278 279 280 280 281 281 277
264 264 264 263 263 264 264 264 264 265 265 266 267 267 268 269 271 272 274 276 278 280 283 283 282 283 282 282 282 283 283 282 281 280 280 280 279 279 279 279 279 279 278
265 265 264 264 264 265 265 265 265 266 266 266 267 269 269 269 270 272 274 276 279 282 283 283 282 283 282 282 282 283 283 282 281 279 280 279 278 277 277 277 277 277 277
266 266 265 264 265 265 266 266 267 267 267 268 269 270 272 271 273 275 277 278 278 279 282 283 282 282 282 282 282 282 282 280 278 278 279 278 277 277 277 276 276 276 275
267 266 265 266 266 266 266 267 268 269 270 271 272 273 272 274 275 276 277 278 280 282 283 283 282 281 281 281 282 281 280 279 278 278 278 277 277 277 276 276 275 274 274
267 267 266 266 266 266 267 268 268 269 269 271 272 273 274 274 275 276 277 280 282 282 282 281 281 281 280 281 281 280 279 278 277 277 277 277 276 276 275 274 274 274 273
268 267 267 267 266 267 268 268 269 269 270 270 270 272 273 273 274 275 277 279 280 280 280 280 280 280 280 280 279 279 278 277 277 277 277 276 276 275 274 274 274 273 272
269 268 268 267 268 268 267 268 269 269 270 270 270 270 271 272 273 274 275 276 277 277 277 277 277 278 278 277 276 276 276 276 276 276 276 276 275 274 274 273 272 271 270
270 269 269 268 268 269 269 268 268 268 269 270 270 270 270 271 272 273 273 274 274 274 275 275 275 275 276 275 275 275 274 274 275 275 274 274 274 273 273 271 270 270 270
269 269 269 269 269 269 269 269 268 268 269 269 270 270 270 270 271 272 272 273 273 274 274 274 274 274 274 273 273 273 273 273 273 273 273 273 272 271 270 270 270 269 269

GFSGL_850_thetae_024.txt.gz
Theta_e
289 289 289 289 289 289 290 290 291 291 291 291 293 295 297 298 298 297 296 295 295 296 296 296 296 296 296 296 296 296 295 296 296 297 297 297 297 297 297 295 293 293 292
288 287 288 288 288 288 288 288 288 289 289 289 289 290 290 293 296 297 297 296 294 294 294 294 295 295 295 295 295 295 295 295 295 296 296 296 296 297 297 296 294 292 291
288 287 287 287 287 286 286 286 286 286 287 287 287 287 288 288 289 291 294 296 296 295 294 293 294 294 294 294 294 295 295 295 294 294 295 296 295 296 296 295 293 291 290
288 288 287 287 287 286 286 286 286 286 286 286 286 286 286 286 286 287 288 289 293 295 295 296 295 293 293 293 294 293 294 294 294 293 293 294 295 295 295 295 293 292 291
287 287 287 287 287 287 287 287 287 287 286 286 286 286 286 286 286 286 286 286 286 287 291 295 294 294 293 292 292 292 292 292 293 293 292 292 293 293 293 294 294 293 292
288 287 287 287 287 287 286 286 286 286 286 286 286 286 286 286 286 286 285 285 285 285 286 286 290 295 293 291 291 290 291 291 292 291 292 292 292 293 293 293 293 292 290
286 286 287 286 286 285 285 285 285 285 285 285 285 285 286 286 286 286 285 285 285 285 285 285 285 286 290 294 292 290 290 290 290 291 291 291 291 292 293 292 292 293 294
285 284 283 283 282 283 282 283 283 283 284 284 284 284 284 284 285 285 285 285 285 285 285 285 285 285 285 288 292 290 291 290 289 289 290 291 290 290 292 293 294 293 292
283 282 281 281 280 279 280 280 280 279 280 281 282 283 283 284 284 284 283 283 284 285 285 285 285 285 285 285 288 290 291 291 293 290 289 289 289 289 289 290 290 289 288
281 281 279 278 277 276 276 276 276 276 276 276 277 278 279 280 282 282 281 279 280 282 284 285 285 285 285 285 285 288 289 291 288 289 289 289 289 289 288 289 289 290 289
279 279 279 278 276 275 274 273 272 272 272 272 272 273 273 274 277 278 278 278 279 280 281 282 283 284 284 284 284 286 289 290 288 287 287 287 289 289 288 287 287 288 289
279 278 277 276 275 273 272 270 269 268 268 268 269 269 270 270 271 273 274 276 278 279 281 282 283 283 283 284 286 287 288 287 287 286 286 286 287 288 288 286 286 286 287
278 277 276 274 272 270 268 267 267 266 265 266 266 267 267 268 268 270 272 274 275 277 280 282 283 284 284 285 285 287 287 288 287 286 285 285 286 285 285 285 285 285 285
276 275 274 272 270 268 266 266 265 265 265 264 265 265 266 266 267 267 268 269 271 275 279 280 282 283 283 283 284 285 287 287 287 286 285 285 285 284 283 284 284 284 284
274 273 271 269 267 266 266 265 265 265 265 266 267 268 268 269 269 269 270 271 272 272 275 278 280 280 281 281 283 285 286 287 287 286 285 285 284 283 283 282 283 281 281
273 271 270 266 265 265 265 265 266 266 266 267 268 269 269 269 270 271 271 272 273 273 274 275 276 278 281 282 282 284 286 286 286 286 285 285 284 282 282 281 281 280 280
271 270 267 266 265 264 264 264 264 266 266 267 267 268 269 269 270 271 271 272 273 274 274 276 277 278 279 282 282 283 285 285 285 285 285 284 283 282 282 281 280 280 279
271 268 267 267 266 265 264 264 265 265 265 267 270 268 269 270 270 271 272 273 272 273 273 275 276 277 278 282 282 282 283 284 284 284 284 283 282 282 281 280 280 278 278
270 269 267 267 266 265 265 265 266 266 266 267 268 270 272 272 271 272 273 274 274 274 274 275 277 278 279 282 282 282 283 283 283 283 283 283 282 282 280 280 279 278 277
271 270 268 268 267 267 267 266 266 266 267 267 268 268 270 272 273 274 275 275 276 277 277 278 278 281 282 283 282 282 282 282 283 283 282 281 280 279 279 279 278 277 276
271 271 270 269 268 268 267 266 266 266 266 266 267 268 269 270 272 273 274 275 276 278 280 279 280 281 283 282 282 282 282 282 282 281 280 279 279 278 278 278 277 275 275
270 271 270 269 269 268 268 267 266 266 266 266 267 269 268 270 271 272 273 275 276 278 281 282 282 282 282 282 282 282 282 281 280 279 278 278 278 277 277 276 275 275 275
271 270 271 270 270 269 269 268 267 266 267 267 267 268 269 270 271 271 272 273 275 277 278 279 279 280 280 280 281 281 281 280 279 278 277 277 277 276 275 275 275 274 274
270 270 270 270 270 269 269 268 268 268 267 268 268 268 268 269 270 271 271 272 273 274 275 275 275 276 277 277 277 277 277 277 276 276 276 276 275 274 274 274 274 274 274
269 269 270 270 269 269 269 269 268 269 268 268 269 269 269 269 269 270 271 271 272 272 273 273 274 274 275 275 275 275 274 274 274 273 274 274 275 274 274 274 273 273 272
268 268 268 269 269 269 268 268 268 268 268 268 269 269 269 269 269 269 270 270 270 271 271 271 272 272 272 272 272 272 273 273 273 273 274 274 274 273 273 272 272 271 271

GFSGL_850_thetae_027.txt.gz
Theta_e
288 288 288 288 288 287 287 288 288 288 288 287 287 288 288 288 289 290 294 296 296 295 295 295 296 296 296 297 297 296 296 296 296 296 296 296 297 297 298 298 298 297 296
288 288 288 287 287 287 287 287 287 287 287 287 287 287 287 287 287 287 287 288 290 294 296 294 294 294 294 295 295 296 296 295 296 296 296 296 296 297 297 297 297 297 297
288 288 287 287 287 287 287 287 287 286 286 287 287 287 287 287 287 287 286 286 286 287 288 291 295 294 294 294 293 294 294 294 295 295 295 295 295 296 296 296 296 296 296
288 288 288 288 287 287 287 287 286 286 286 286 286 286 286 286 286 286 286 286 286 286 286 286 287 289 293 295 294 293 293 293 293 293 294 294 294 295 295 295 295 296 296
288 288 288 287 287 287 286 286 286 285 285 285 285 285 285 285 285 285 286 286 286 286 286 285 286 286 286 287 293 294 292 291 292 292 292 293 293 293 294 294 295 295 295
288 288 287 287 287 286 286 285 285 285 284 284 284 284 284 284 285 284 284 284 284 285 286 286 285 285 285 285 285 288 292 291 291 291 291 291 292 292 292 293 294 294 293
288 287 286 285 285 284 284 284 283 283 283 284 283 283 283 283 283 283 283 282 283 283 284 284 285 285 285 285 285 285 285 291 292 291 290 291 290 290 291 292 292 293 294
287 286 284 283 282 281 281 281 281 280 280 280 281 281 281 282 282 281 279 279 280 280 281 282 282 284 284 285 285 285 285 285 286 292 290 292 290 290 290 290 291 292 292
284 283 283 282 281 280 279 279 279 278 279 278 278 278 276 278 277 276 276 276 276 277 278 279 280 280 282 283 283 284 285 285 285 285 290 293 290 290 289 289 289 288 288
283 282 281 280 279 279 278 277 277 275 275 274 274 274 273 273 273 272 273 273 274 274 275 276 278 279 281 282 283 283 284 284 284 285 285 288 292 291 290 289 289 289 288
282 281 280 279 278 277 277 275 274 272 271 270 270 270 269 269 269 269 271 272 273 273 274 275 276 278 280 282 283 284 284 284 284 284 285 286 288 289 290 289 288 287 288
281 280 279 278 277 276 274 273 271 269 269 268 268 268 268 268 268 268 269 270 271 272 272 273 274 276 279 281 282 283 284 285 286 286 286 286 286 287 289 289 289 288 286
279 279 278 277 275 274 272 271 269 268 267 266 265 265 266 267 268 268 268 269 269 270 270 270 272 274 276 278 281 283 284 285 286 287 287 286 286 287 286 287 287 288 287
279 279 277 276 274 273 271 269 268 268 266 265 265 266 267 268 268 269 269 269 271 271 272 272 272 272 274 275 278 281 284 284 285 286 286 287 287 286 286 286 286 287 286
278 277 276 274 273 271 269 269 267 268 265 266 268 268 269 269 269 270 272 272 272 273 273 273 273 273 274 275 278 282 283 283 283 284 286 287 286 286 285 285 285 285 285
276 276 274 273 272 270 268 268 270 268 266 267 268 269 270 270 271 271 272 273 273 274 274 273 273 273 273 274 275 278 280 281 281 283 285 286 286 286 285 284 284 284 283
275 275 273 272 272 269 268 267 266 271 270 268 267 268 269 270 271 272 273 274 274 275 274 274 273 273 273 273 276 276 279 281 281 283 284 285 286 286 285 284 283 283 282
274 274 273 272 271 269 268 268 268 266 266 269 272 267 269 269 270 271 273 274 274 274 274 274 274 273 273 274 275 277 278 280 281 282 284 285 285 285 284 283 282 282 281
274 273 272 272 271 269 269 269 269 268 266 266 267 269 268 268 269 269 269 271 272 273 273 274 274 275 275 274 274 276 277 280 281 281 282 284 284 284 283 283 282 281 281
273 273 272 272 271 270 270 270 269 268 267 266 267 266 267 268 269 270 270 271 272 273 273 273 275 276 277 277 279 279 279 280 282 282 282 282 283 284 283 281 280 280 279
273 272 271 272 271 270 270 270 269 268 267 267 267 267 267 267 268 268 269 270 271 273 274 275 277 277 278 279 280 281 281 282 282 282 282 282 282 282 281 280 279 279 278
272 271 271 272 271 270 270 270 270 269 268 268 268 269 267 269 268 269 269 270 271 272 273 274 276 277 278 280 281 281 281 281 281 281 281 281 280 280 279 279 278 277 277
270 271 271 271 271 270 270 270 270 269 269 268 268 269 269 269 269 269 269 270 270 271 272 273 275 276 276 277 277 278 278 280 280 280 279 279 278 278 278 278 277 276 276
269 269 270 271 270 269 269 270 269 269 269 269 268 268 268 269 269 269 269 269 270 270 271 272 272 273 274 275 275 276 276 276 276 277 277 277 277 276 276 276 275 275 274
268 268 269 269 269 269 269 269 269 269 268 268 268 268 268 268 269 269 269 269 269 270 270 270 271 272 272 273 273 273 274 274 274 274 274 275 275 275 274 274 273 272 272
267 267 268 268 268 268 268 268 268 268 268 268 268 268 268 268 269 269 269 269 269 269 270 270 270 271 271 271 271 272 272 272 272 272 272 273 273 273 272 272 272 272 272

GFSGL_850_thetae_030.txt.gz
Theta_e
289 289 289 289 288 288 288 288 288 287 287 287 287 287 287 287 287 287 287 287 287 288 288 288 293 295 295 295 296 296 296 296 296 296 296 296 296 296 296 296 297 298 298
289 288 288 288 288 288 288 287 287 287 287 287 287 287 287 287 287 287 287 286 286 286 287 287 287 287 290 294 294 294 295 295 295 295 295 296 296 296 296 296 296 296 297
288 288 288 288 288 287 287 287 287 286 286 286 286 286 286 286 286 286 286 286 286 286 286 286 286 286 286 286 287 292 294 293 293 294 294 294 295 295 295 295 295 296 296
289 288 288 288 287 287 287 286 286 285 285 285 285 285 285 285 285 285 284 284 285 285 285 285 285 286 286 286 285 286 286 290 293 292 293 293 293 294 294 295 295 295 295
289 289 288 287 287 286 286 285 285 285 284 284 284 284 284 283 283 283 283 282 283 283 284 284 285 285 285 285 285 285 285 285 286 291 292 291 292 293 293 294 294 294 294
289 289 289 287 286 286 285 284 284 284 283 283 282 282 282 282 281 280 279 280 280 281 282 282 283 283 284 285 284 285 285 285 285 285 288 291 292 291 292 292 293 293 293
289 288 287 286 285 284 284 283 282 282 282 282 282 281 282 282 281 278 278 278 278 278 279 280 280 281 282 282 283 284 284 285 285 284 285 286 290 291 290 291 292 292 293
288 287 286 284 284 283 282 282 281 281 281 281 281 280 280 280 277 276 274 275 276 276 276 277 277 278 279 279 280 281 282 283 284 285 285 285 285 286 291 290 290 291 291
287 285 284 283 282 281 281 281 281 281 280 279 278 277 276 275 273 272 271 272 273 274 273 273 273 274 275 277 278 279 280 281 283 283 284 285 285 285 286 290 290 288 288
285 284 283 282 281 280 280 280 279 278 278 276 275 273 272 271 271 271 270 270 270 271 271 271 272 274 275 276 277 278 279 280 281 282 283 283 284 285 284 288 290 289 289
284 283 282 281 280 280 280 278 278 277 276 274 273 271 270 270 270 269 269 270 270 270 270 271 271 272 273 274 275 277 278 279 281 282 283 284 284 284 284 284 287 290 289
283 282 281 280 280 279 278 278 276 275 273 271 270 269 269 269 269 269 268 269 270 271 271 270 271 271 272 273 274 274 276 278 280 282 283 284 284 284 283 284 284 288 289
282 281 280 280 279 278 277 276 275 273 271 270 268 268 268 268 268 269 268 269 270 270 271 271 272 273 274 274 273 273 274 275 276 278 283 284 285 285 285 284 283 286 287
281 280 279 279 278 278 276 275 273 272 271 269 267 267 268 268 269 269 269 271 272 272 273 273 274 274 273 274 273 273 273 273 274 276 280 284 285 286 286 285 285 285 285
280 279 279 278 278 277 275 274 273 272 269 267 268 269 269 269 269 271 272 272 273 274 274 275 275 275 274 274 273 272 273 273 274 277 279 283 284 286 286 286 285 285 285
279 278 277 277 277 275 274 274 274 273 271 267 268 269 269 269 270 272 272 273 273 274 275 276 275 275 274 274 273 273 273 273 275 278 281 282 284 284 285 285 285 285 285
278 277 276 276 275 274 273 272 272 275 273 270 267 268 268 269 269 270 271 272 272 272 273 273 273 273 273 273 273 273 273 273 275 276 280 281 281 281 282 285 285 285 285
277 276 275 275 274 274 273 272 271 271 270 274 273 270 269 267 268 269 268 269 272 273 272 272 272 272 271 272 273 273 273 274 275 277 278 281 281 282 284 284 284 285 284
275 275 274 274 274 273 272 272 271 271 270 270 272 273 271 270 269 270 270 270 270 271 271 272 272 272 272 275 275 275 275 274 274 275 276 279 281 281 284 284 284 284 283
274 273 273 273 273 272 272 271 272 271 270 270 270 270 269 269 271 271 270 270 270 270 270 271 272 273 274 275 275 276 276 276 277 276 277 279 280 281 282 284 284 283 282
273 273 272 272 272 272 272 271 271 270 270 270 270 270 267 268 269 269 269 269 269 269 270 271 272 273 274 275 277 277 278 280 280 280 280 280 281 281 282 282 283 283 282
271 271 271 271 271 271 271 270 270 270 270 269 270 270 269 269 269 269 269 269 269 269 269 270 271 272 272 273 275 276 277 278 279 280 280 281 281 281 281 281 281 280 279
270 270 270 270 270 270 270 270 270 270 269 269 269 269 269 269 269 269 269 269 269 269 270 270 270 271 272 273 273 274 275 276 276 277 277 278 278 279 279 279 279 278 278
269 269 269 269 269 270 269 270 270 269 269 269 269 269 269 269 269 269 269 269 269 269 270 270 270 270 270 271 272 273 274 274 275 275 275 276 276 277 277 277 277 276 276
269 268 268 268 268 268 268 269 269 269 269 269 269 269 269 269 269 269 269 269 269 269 270 270 270 270 270 270 270 271 272 273 273 273 274 274 274 275 275 275 274 274 274
268 268 268 267 268 268 268 268 268 268 268 269 269 269 269 269 269 269 269 269 269 270 270 270 270 270 270 270 270 270 271 272 272 272 272 272 273 273 273 273 272 272 272

GFSGL_850_thetae_033.txt.gz
Theta_e
289 289 289 289 289 288 288 288 288 288 288 287 287 287 287 287 286 286 286 286 286 286 286 286 287 287 287 286 287 289 293 294 294 296 296 296 297 298 299 298 297 296 296
289 289 289 288 288 288 288 287 287 287 286 286 286 286 285 285 285 285 285 285 285 285 285 286 286 286 286 286 286 286 286 286 290 292 294 294 294 295 296 298 298 297 296
289 289 288 288 288 287 287 287 286 286 285 285 285 285 285 284 284 284 284 284 284 284 284 284 285 285 285 285 285 285 286 286 285 285 286 289 294 294 293 294 296 297 297
289 289 288 288 288 287 286 286 285 285 285 285 285 284 284 284 283 283 282 282 283 283 283 283 283 283 283 284 284 284 285 285 285 285 285 285 286 289 293 293 293 294 296
289 289 288 288 288 287 286 285 285 284 284 283 283 283 282 282 282 282 282 282 282 283 283 283 283 283 283 282 282 283 283 283 284 284 285 285 285 285 286 291 294 293 294
289 289 288 288 288 287 286 284 284 283 283 283 282 282 283 282 282 281 280 279 279 279 280 281 282 281 281 281 281 281 282 283 284 284 284 284 285 285 285 286 288 292 291
289 288 288 288 287 286 284 283 283 283 282 282 283 283 282 281 280 279 278 276 276 276 275 275 276 276 277 277 278 278 279 280 281 283 284 285 286 285 285 285 285 287 291
288 288 288 288 287 284 283 282 282 282 282 282 282 281 280 279 277 276 274 273 273 272 272 272 272 273 273 274 274 275 276 277 279 279 281 282 282 283 285 285 284 285 287
288 288 288 287 284 283 282 282 281 282 282 281 280 280 278 277 275 274 272 271 271 270 270 270 271 271 272 273 274 275 275 276 276 277 278 280 282 283 284 285 286 287 288
288 287 286 284 283 282 281 281 281 281 280 280 279 277 276 275 274 272 270 269 269 269 270 270 270 271 272 273 274 274 274 274 275 276 277 278 279 281 283 284 286 287 287
287 286 285 283 282 281 281 281 281 280 280 279 278 277 275 274 273 271 268 269 270 270 271 271 271 271 272 273 274 274 274 274 275 275 275 277 278 279 281 282 282 285 287
286 285 283 282 281 281 281 280 280 279 278 277 276 275 274 274 273 270 268 270 271 271 271 271 272 271 272 273 274 275 275 276 276 275 275 275 276 278 281 281 283 283 284
285 283 282 281 280 280 280 280 279 278 277 276 275 273 273 272 270 269 269 270 271 272 272 272 274 274 275 275 275 274 274 274 274 274 273 273 273 274 277 282 283 283 284
284 282 281 281 280 279 279 279 278 277 276 275 274 271 269 269 269 269 271 272 273 273 273 273 274 274 274 275 275 275 274 274 274 274 273 273 273 274 275 278 283 283 284
283 281 280 280 279 279 278 278 277 276 274 272 269 269 269 269 269 271 272 272 273 273 274 274 273 273 274 274 274 274 274 274 274 274 273 273 273 273 274 277 283 284 284
282 280 279 279 278 278 278 278 276 275 274 273 271 269 269 269 270 271 271 272 272 271 271 271 272 272 273 273 273 272 272 273 273 273 273 273 273 274 277 279 284 284 285
280 279 279 278 277 277 277 276 276 277 275 274 272 271 268 268 269 270 270 270 270 270 272 272 272 272 273 273 273 272 273 273 273 273 273 273 274 276 280 282 283 285 285
278 278 278 277 276 276 275 275 274 273 273 275 274 272 271 270 268 268 268 271 273 272 271 270 271 271 272 272 273 273 274 275 274 274 273 274 275 276 279 281 281 282 283
277 277 276 276 275 275 274 274 273 273 272 272 273 273 272 272 270 270 270 270 270 270 270 270 270 270 271 271 272 273 274 275 275 275 275 276 275 276 278 280 281 282 283
276 275 275 274 274 273 273 273 273 272 272 271 270 270 272 271 271 271 271 270 270 269 269 269 269 270 270 271 272 273 274 275 277 277 277 277 277 277 277 279 280 283 283
274 274 273 273 272 272 272 272 272 272 271 271 270 270 268 268 270 270 270 270 269 269 269 269 269 269 269 270 271 272 273 274 275 277 277 278 278 279 279 280 280 281 282
273 272 272 271 271 271 271 271 271 271 271 270 270 270 270 269 269 270 270 269 269 269 269 269 269 269 269 269 270 271 272 273 274 275 276 277 278 279 279 280 281 281 282
271 270 270 270 270 270 270 270 270 270 270 269 269 270 270 269 269 269 269 269 270 270 269 269 269 270 270 270 270 269 270 272 272 273 275 276 276 277 277 278 278 279 280
269 268 268 268 269 269 269 269 269 269 269 269 269 269 269 269 269 269 269 269 270 270 270 269 269 269 270 270 270 270 270 271 272 273 273 274 275 275 275 276 276 277 277
266 266 267 268 268 268 268 268 268 268 268 268 269 269 269 269 269 269 269 269 269 269 270 270 270 270 270 270 271 270 270 271 272 272 272 273 274 274 274 274 274 275 275
265 266 267 267 268 268 268 268 268 268 268 268 269 268 268 268 268 268 268 269 269 269 269 269 269 270 270 270 270 270 270 271 272 272 272 272 272 273 273 273 273 273 273

GFSGL_850_thetae_036.txt.gz
Theta_e
290 290 290 289 289 289 288 288 288 287 287 286 286 286 286 286 285 285 285 285 286 286 285 285 285 285 285 285 286 285 285 285 285 286 287 287 288 290 294 296 296 297 299
289 289 289 289 289 288 288 287 287 286 285 285 285 285 285 285 285 285 285 285 285 285 284 284 284 284 284 284 284 284 284 284 284 284 286 286 287 287 287 288 294 296 296
289 289 289 289 288 288 288 287 287 286 285 285 285 285 285 285 284 284 284 284 284 285 285 285 285 284 284 284 284 283 283 283 283 283 284 285 286 286 286 287 287 289 295
289 289 289 289 288 288 288 287 286 286 285 284 284 284 284 284 284 284 284 284 284 284 283 283 283 282 282 282 281 282 282 283 282 282 282 283 284 285 285 285 286 287 287
290 289 289 289 288 288 287 287 286 285 284 284 284 283 283 283 284 283 283 283 282 282 282 281 279 278 278 279 279 279 279 280 281 282 282 283 284 284 284 285 285 285 286
290 289 289 289 288 288 288 287 286 284 283 283 283 283 283 283 283 282 281 281 280 279 279 278 276 276 275 275 277 278 279 280 280 280 280 281 282 283 284 285 285 285 285
290 289 289 289 288 288 288 287 285 284 283 283 283 282 283 282 281 281 280 278 278 276 275 274 273 273 272 272 273 274 275 276 277 277 278 278 279 280 282 283 284 285 285
289 289 289 288 288 288 287 286 284 283 282 282 282 282 282 281 280 279 278 276 275 274 272 271 271 271 271 271 272 273 273 274 274 275 275 276 276 277 278 280 281 282 283
289 289 288 288 288 288 287 285 283 282 282 282 282 282 281 280 278 278 276 274 272 271 271 271 271 271 271 272 273 273 273 273 274 274 275 276 277 278 279 279 280 282 283
289 288 288 288 288 287 286 283 282 282 281 281 281 280 279 279 277 276 275 271 271 271 271 271 271 271 272 273 273 273 273 273 273 274 275 275 275 275 275 277 278 279 281
288 288 288 288 287 286 284 282 281 281 281 281 281 280 278 277 277 276 273 270 271 271 272 271 272 272 272 273 274 274 274 275 275 275 276 276 276 275 275 275 275 278 279
288 287 287 287 286 285 284 281 281 280 280 280 280 279 278 277 277 276 272 271 272 272 272 272 272 273 274 274 275 276 276 277 277 276 275 275 274 274 274 274 274 274 279
287 287 286 286 285 283 282 280 280 279 279 279 278 278 277 277 276 275 272 272 272 272 273 273 275 275 275 275 275 275 275 275 275 275 275 274 274 274 274 274 274 273 275
287 286 285 284 283 282 280 279 279 278 278 278 277 276 276 274 273 272 272 272 272 272 273 273 273 272 273 272 273 273 273 273 273 273 273 273 273 274 273 273 273 273 273
285 285 284 283 283 280 279 278 278 278 277 277 275 273 272 272 272 271 272 273 273 272 271 272 273 273 273 274 274 274 274 273 273 272 272 273 274 274 273 272 272 273 273
284 283 282 282 281 279 278 278 277 277 276 275 274 271 271 270 270 271 272 271 271 270 272 271 272 272 272 272 272 273 274 274 274 273 273 273 272 273 272 272 273 274 274
283 281 282 281 278 277 277 277 277 276 275 275 274 273 272 269 269 270 270 270 271 271 271 271 271 270 270 271 271 271 272 273 273 273 274 274 273 273 273 273 275 275 279
281 281 279 277 276 276 276 275 275 275 276 275 274 273 272 272 271 268 269 271 272 272 271 270 270 270 270 270 270 270 272 272 273 273 274 274 274 273 273 275 276 277 280
279 279 277 276 276 275 274 274 274 274 274 274 274 273 272 272 271 270 270 270 271 271 271 270 270 269 269 269 269 270 270 271 272 273 274 275 275 275 275 276 277 278 278
278 277 275 275 274 274 273 273 273 273 273 272 272 272 272 272 272 271 270 270 270 270 270 270 270 270 269 269 269 269 270 270 271 272 273 274 275 276 276 277 278 278 279
275 274 273 273 273 272 272 272 271 272 272 272 271 270 271 270 271 270 271 270 270 270 270 270 270 270 270 270 269 269 269 269 270 271 272 274 274 276 276 277 278 279 280
273 272 271 271 271 270 270 270 270 271 271 271 270 270 269 269 270 270 270 270 270 270 269 269 270 270 269 269 269 269 270 269 270 271 272 273 274 275 276 277 278 279 280
270 270 269 269 269 268 269 269 269 270 270 270 269 269 269 269 269 269 269 270 270 269 269 269 270 270 270 270 269 269 269 270 269 270 271 272 273 274 275 276 277 277 278
267 267 268 267 267 267 267 267 268 268 268 269 269 269 269 269 269 269 269 269 269 269 269 269 269 269 270 270 270 270 270 270 270 271 271 272 272 273 274 274 275 276 276
265 265 265 265 265 265 266 266 267 267 267 268 268 268 268 268 268 268 268 268 268 268 268 268 269 269 270 270 269 270 270 270 270 271 271 271 272 272 272 273 273 274 274
263 263 264 264 265 266 266 266 267 267 267 268 268 268 268 268 268 268 267 267 267 267 267 267 268 269 269 269 269 269 270 269 270 271 271 271 271 271 272 272 272 272 272

GFSGL_850_thetae_039.txt.gz
Theta_e
290 290 290 290 289 289 289 289 288 288 287 286 286 285 285 285 285 285 286 286 286 285 285 285 285 285 285 285 285 284 284 283 282 283 284 285 285 286 286 287 288 288 289
290 290 290 290 289 289 289 288 288 287 287 286 285 285 285 285 285 285 285 285 285 285 285 285 285 285 285 284 284 284 284 283 282 283 283 283 284 285 285 285 286 288 288
289 289 290 289 289 289 288 288 288 287 287 286 285 285 284 284 284 284 284 284 284 284 284 284 284 283 283 282 280 280 281 281 281 281 283 282 283 284 284 284 284 285 286
289 289 289 289 289 289 288 288 288 287 287 286 285 284 284 284 284 283 283 284 284 284 283 283 282 281 280 279 279 278 279 279 279 279 280 281 281 283 284 284 284 284 285
289 289 289 289 289 289 288 288 288 287 287 285 284 283 283 283 283 283 283 283 283 283 282 282 281 279 278 277 276 276 276 277 278 278 279 279 280 281 282 283 283 284 284
289 290 290 289 289 289 288 288 288 287 287 285 283 283 283 283 283 283 283 282 282 282 281 280 278 277 276 275 273 273 274 275 276 276 277 278 279 279 279 280 281 282 283
291 290 290 289 289 288 288 288 288 288 287 285 283 282 282 282 282 282 282 281 281 280 279 278 277 275 273 273 272 272 272 273 274 275 275 275 276 276 276 277 278 279 281
291 290 289 289 288 288 288 288 288 287 287 284 282 282 282 282 282 281 281 280 279 278 277 275 274 273 272 271 272 272 273 273 273 274 274 274 275 275 276 277 279 279 279
290 290 290 289 288 288 288 288 288 287 286 283 282 282 282 281 281 281 280 279 278 277 275 274 273 272 272 272 273 274 274 273 273 274 274 275 276 276 277 276 276 277 277
289 289 289 288 288 288 288 287 287 287 286 283 282 281 281 281 280 280 279 278 277 274 273 273 273 272 273 274 274 274 274 274 275 275 276 276 276 276 276 276 276 276 275
289 289 288 288 288 287 287 287 287 286 286 283 281 281 280 280 279 279 278 276 273 273 273 272 273 273 274 275 275 276 276 276 276 277 276 276 276 275 275 275 275 275 275
289 288 288 287 287 287 286 286 286 285 285 282 281 280 280 279 278 278 277 273 273 273 273 273 273 274 275 274 274 274 274 275 276 275 275 275 275 275 275 275 274 274 274
289 288 288 287 286 286 286 285 285 284 284 280 280 280 279 278 278 277 276 274 272 273 273 273 272 272 272 273 274 274 273 274 274 274 274 274 274 274 274 274 274 274 274
288 288 287 286 285 285 284 284 284 283 281 280 279 278 278 278 277 275 274 273 273 272 272 273 273 272 273 272 273 274 274 274 273 273 273 274 275 275 275 275 274 274 273
288 287 286 285 284 284 283 283 283 282 279 278 278 277 276 276 274 272 272 273 273 272 271 272 272 273 273 272 273 273 273 273 273 273 274 274 274 274 274 273 273 272 272
287 286 285 284 283 282 282 282 281 278 278 277 276 275 273 273 271 271 272 272 272 271 272 271 272 271 271 271 271 272 272 272 272 272 272 273 273 273 274 274 272 272 272
286 285 284 283 282 281 281 280 279 277 276 276 275 275 273 273 270 270 271 270 271 271 271 271 271 271 271 270 270 270 270 271 271 271 271 272 272 273 273 273 273 273 274
284 283 282 281 281 280 280 279 277 276 276 275 274 274 273 271 271 269 269 272 271 271 271 271 271 270 270 270 270 270 270 270 270 270 271 271 272 272 273 273 274 274 275
282 281 280 280 280 279 277 276 275 274 274 274 273 273 272 271 271 270 271 271 271 271 271 271 270 270 270 270 270 270 270 270 270 270 270 270 271 272 273 274 274 275 275
280 280 279 278 277 276 275 274 273 273 272 273 272 272 272 271 271 271 270 270 270 271 271 271 270 270 270 270 270 270 270 270 270 270 269 270 271 272 273 274 275 275 276
277 276 275 274 273 272 272 271 271 271 271 271 271 271 270 270 271 270 270 270 270 270 270 270 270 270 270 270 270 270 270 270 270 270 269 270 271 272 273 274 274 275 277
274 273 272 272 271 270 270 269 269 269 270 270 270 270 269 270 269 270 270 270 269 269 269 269 270 269 269 269 269 269 269 270 270 270 270 271 271 272 272 273 274 275 276
271 270 269 269 268 268 268 268 267 268 268 269 269 269 269 269 269 269 269 269 269 269 269 269 269 269 269 269 269 269 269 269 269 270 270 271 271 271 272 272 273 274 275
268 267 266 265 265 265 265 265 265 266 267 267 267 267 267 268 268 268 269 269 269 268 268 268 268 268 269 269 269 269 269 269 269 269 270 271 271 271 271 272 273 273 273
265 264 264 263 263 264 264 264 265 265 266 266 267 267 267 267 268 268 268 268 267 267 267 267 267 267 268 268 269 269 269 269 269 269 270 271 271 271 271 271 272 272 273
264 263 263 263 263 263 263 264 265 265 266 266 266 267 267 267 267 267 267 266 267 267 267 267 267 267 267 268 268 269 269 269 269 269 270 270 270 271 271 271 271 271 271

GFSGL_850_thetae_042.txt.gz
Theta_e
293 292 291 291 290 290 289 289 289 288 288 287 287 286 285 285 285 285 285 285 285 285 285 285 285 285 284 284 284 283 283 282 283 283 284 284 285 285 285 285 286 287 287
291 291 291 290 290 289 289 288 288 288 288 287 287 286 285 285 285 284 284 284 284 284 284 284 284 284 284 283 282 282 281 281 281 281 282 282 283 284 284 284 285 286 286
290 290 290 289 289 289 289 288 288 288 288 288 287 286 285 284 284 284 284 284 284 284 284 284 283 283 282 281 280 280 279 279 279 280 280 281 281 281 282 283 284 284 285
290 290 289 289 289 289 289 288 288 288 288 288 288 286 285 284 283 283 283 283 283 283 283 283 283 282 281 280 279 278 277 277 277 278 278 279 280 281 281 281 282 284 285
290 289 289 289 289 289 289 289 288 288 288 288 288 287 285 283 283 283 283 283 283 283 283 282 282 281 280 279 277 275 275 275 275 275 276 277 278 279 280 280 280 281 281
291 289 289 289 289 289 289 289 288 288 288 288 288 287 285 283 283 283 282 282 282 282 282 281 281 279 278 277 275 273 273 274 274 274 274 275 276 277 277 277 278 278 279
292 289 289 289 289 289 289 289 288 288 288 288 287 287 285 283 282 282 282 282 282 281 281 280 279 278 277 275 273 273 273 273 274 275 275 275 275 275 276 276 276 277 277
292 290 289 289 289 289 289 288 288 288 288 287 287 287 286 282 282 282 282 281 281 281 280 279 278 277 275 273 273 274 274 274 274 275 275 275 275 275 275 276 276 277 277
292 292 291 290 290 289 289 288 288 287 287 287 287 286 286 282 281 281 281 281 280 280 279 278 277 275 273 274 275 275 275 275 276 276 276 276 276 277 277 277 277 277 277
291 291 290 289 289 289 288 288 287 287 287 286 286 286 285 283 281 281 280 280 280 279 278 277 274 274 274 275 275 276 277 277 276 276 277 277 277 277 276 276 276 276 276
290 290 289 289 289 288 288 287 286 286 286 286 286 285 285 282 280 280 280 279 278 277 275 274 274 274 275 275 274 274 274 275 274 274 275 275 276 276 276 276 276 276 276
290 289 289 289 289 288 287 286 286 286 285 285 285 285 284 281 280 279 279 278 277 275 274 274 274 273 273 274 274 273 272 272 273 274 274 274 274 275 275 275 275 275 275
290 290 289 289 288 288 287 286 285 285 285 284 284 284 283 281 279 279 278 277 276 274 274 273 273 273 273 274 274 273 273 273 272 272 272 273 273 273 274 274 275 275 275
290 289 289 288 288 287 286 285 285 285 284 283 284 283 281 279 278 278 277 276 274 273 273 273 273 273 273 273 273 273 273 272 272 271 270 271 273 274 275 274 274 274 273
289 289 288 287 287 286 285 285 284 283 282 283 282 280 278 278 278 277 274 273 274 274 273 273 273 273 273 272 272 272 272 271 271 269 270 271 272 272 273 274 274 273 273
289 288 288 286 286 285 284 283 283 282 282 282 281 279 278 278 277 273 272 273 273 273 272 272 272 272 272 272 271 272 271 271 270 270 270 269 270 271 272 273 273 272 273
288 288 286 285 285 283 282 282 282 281 281 280 279 277 277 276 274 272 271 272 272 272 272 271 271 271 271 271 271 271 271 271 271 270 270 270 270 270 271 271 272 272 273
286 285 284 284 283 281 281 280 280 279 279 278 277 276 275 275 274 271 270 270 272 272 271 271 271 271 271 271 271 271 271 271 270 270 270 270 269 269 270 271 272 272 272
284 283 282 281 280 279 279 278 278 278 277 276 274 274 273 273 273 273 269 271 271 271 271 270 270 271 271 270 270 270 270 270 270 270 270 270 269 268 270 271 272 273 273
282 281 280 280 279 278 277 276 275 275 274 273 272 272 272 272 272 271 270 270 270 270 270 270 270 270 270 270 270 270 270 270 270 270 270 270 269 269 270 271 271 272 273
279 278 277 276 275 274 273 272 271 271 271 271 271 271 270 271 270 270 270 270 270 270 270 270 270 270 269 269 269 269 270 270 270 270 270 270 270 270 270 271 271 272 273
275 274 273 273 272 271 270 269 269 268 268 268 269 269 269 269 269 270 269 269 269 269 269 269 269 269 269 268 268 269 269 269 269 269 270 270 270 270 271 271 271 272 273
273 272 271 270 269 268 267 267 266 266 266 266 266 267 268 268 269 269 269 269 268 269 268 268 268 268 268 268 268 268 269 269 269 269 269 270 270 270 271 271 271 271 272
271 270 269 268 267 266 265 264 264 264 264 264 265 266 267 267 268 268 268 268 268 268 268 268 267 267 267 267 267 268 269 269 269 269 269 269 270 270 271 271 271 271 272
269 268 266 265 265 264 264 263 263 264 263 263 264 264 265 266 267 268 268 268 268 268 267 267 267 267 267 268 267 268 269 269 269 269 269 269 269 270 270 270 270 271 271
267 266 265 265 264 264 264 263 263 263 264 264 264 265 265 266 267 267 267 267 267 267 267 267 267 267 268 268 267 267 268 269 269 268 268 269 269 269 269 269 270 270 270

GFSGL_850_thetae_045.txt.gz
Theta_e
296 295 295 294 293 292 292 292 290 290 289 288 288 288 287 287 286 285 285 285 285 284 284 284 284 284 284 283 283 283 282 281 282 283 282 282 282 282 283 283 284 283 284
295 294 294 292 292 291 291 290 289 289 288 288 288 288 288 287 286 285 284 284 284 284 284 284 284 283 283 283 282 282 281 280 279 280 282 280 280 280 280 281 282 282 282
294 293 292 291 291 291 290 289 289 288 288 288 288 288 288 287 286 285 284 284 284 283 283 283 283 283 283 282 282 281 280 279 278 278 279 278 278 278 279 279 280 281 282
294 293 292 291 290 290 290 289 289 288 288 288 288 288 288 288 287 285 283 283 283 283 283 283 283 282 282 281 281 280 279 277 276 276 276 276 276 276 277 278 278 279 280
295 293 292 290 289 289 289 289 289 288 288 288 288 288 288 288 287 286 283 283 283 283 283 282 282 282 282 281 280 279 278 276 275 275 275 275 275 275 276 276 277 277 277
296 294 292 289 289 289 289 289 289 289 288 288 288 288 288 287 287 286 284 282 282 282 282 282 282 281 281 280 279 277 275 275 275 275 275 275 275 275 275 275 276 276 276
297 295 292 290 289 289 289 289 289 288 288 288 288 288 287 287 287 286 285 282 282 282 282 282 281 281 280 279 278 277 276 275 276 276 275 275 275 275 276 276 276 276 277
297 295 292 290 289 288 288 288 288 288 288 288 288 287 287 287 286 286 284 283 282 281 281 281 281 280 279 278 277 276 276 276 276 276 276 276 276 277 277 278 278 278 278
296 295 294 292 290 288 288 288 288 288 288 288 287 287 286 286 286 285 284 283 281 281 281 280 279 279 278 276 276 276 276 276 275 275 276 276 277 277 277 278 278 277 277
296 296 295 293 290 289 289 289 288 288 288 287 287 286 286 286 286 285 284 282 281 280 280 279 278 276 275 276 276 275 274 275 274 274 274 275 275 275 276 276 276 276 276
295 293 292 291 291 290 289 289 288 288 287 287 286 286 286 285 285 285 283 281 280 279 279 278 278 276 275 275 274 274 274 273 273 274 274 274 274 274 275 275 276 276 276
290 290 290 290 290 289 289 288 288 288 287 286 286 285 285 285 285 284 283 281 279 278 278 278 277 275 275 274 274 274 273 273 274 274 273 273 273 273 273 273 274 275 275
290 290 290 290 289 288 288 288 288 287 286 286 286 286 285 284 284 284 282 280 279 277 277 277 275 275 274 274 274 273 273 273 273 273 272 272 271 272 273 273 274 274 274
290 290 290 289 289 289 288 288 287 287 287 286 285 285 284 283 283 282 280 278 277 276 276 276 275 275 274 273 273 273 273 273 272 271 271 272 272 272 272 272 272 273 272
290 290 290 289 289 289 288 287 287 286 286 285 284 283 282 282 281 279 278 277 276 275 274 275 275 274 273 273 273 273 273 272 272 271 271 271 271 271 272 271 271 272 271
289 289 289 289 288 288 287 287 286 285 285 284 283 282 281 281 281 279 275 274 274 275 274 274 273 273 273 273 273 273 272 272 271 270 271 270 270 270 270 271 271 270 270
288 288 288 288 287 286 286 285 285 284 284 283 282 281 280 279 275 274 274 273 274 273 273 273 272 272 272 272 272 272 272 272 271 270 270 270 270 270 269 269 270 270 271
288 287 286 286 284 284 283 283 282 282 281 281 280 279 279 278 275 273 272 272 273 272 273 272 272 272 272 271 271 271 271 271 271 270 270 270 270 270 269 269 269 270 270
286 285 284 283 283 282 281 280 279 279 278 278 277 277 276 275 274 273 271 271 271 272 272 272 271 271 271 271 271 270 270 270 270 270 270 270 270 270 270 269 270 270 270
284 284 283 282 281 280 279 278 277 276 275 275 274 274 273 273 273 273 272 271 271 271 271 271 271 270 270 270 270 270 270 270 270 270 270 270 270 270 270 269 269 270 271
282 281 280 279 278 277 275 274 273 272 271 271 270 270 269 268 269 270 270 270 270 270 270 270 270 270 270 270 270 269 269 269 269 269 269 269 269 270 270 269 270 270 270
278 277 276 275 274 273 272 271 270 269 268 268 267 267 266 266 266 266 266 268 269 269 269 269 269 269 269 269 269 268 268 269 269 269 269 269 269 269 270 270 270 270 271
275 274 273 272 272 271 270 269 269 267 266 266 265 265 265 265 265 266 267 267 268 268 268 269 269 269 269 269 268 268 268 268 269 268 268 269 269 269 269 269 270 270 270
273 272 272 271 270 269 269 268 267 266 265 265 264 264 263 264 264 265 266 266 267 267 268 268 268 268 268 268 267 267 267 267 268 268 268 268 268 268 269 269 269 270 270
271 270 270 269 269 268 267 267 266 265 265 264 264 264 264 264 264 265 265 266 266 267 268 268 268 267 267 267 267 267 267 267 268 268 268 268 268 268 268 268 268 269 269
269 269 268 268 268 267 267 266 266 265 265 264 264 264 264 264 264 265 265 266 266 267 267 267 267 267 267 267 267 267 267 267 267 268 268 268 268 268 268 268 268 268 268

GFSGL_850_thetae_048.txt.gz
Theta_e
298 297 297 297 296 295 294 294 293 292 291 290 290 289 289 289 288 288 287 286 285 284 284 284 284 284 284 284 283 283 282 281 280 284 281 281 281 280 280 282 281 280 280
297 297 296 296 295 294 293 292 292 291 290 290 289 289 289 288 288 287 287 286 285 284 284 284 284 284 283 283 283 283 282 281 280 281 281 281 280 278 278 279 280 279 279
296 296 295 295 294 294 293 292 291 290 290 289 289 289 288 288 288 287 287 286 285 284 283 283 283 283 283 283 282 282 282 281 280 280 281 279 279 278 277 277 277 278 277
296 295 295 295 295 293 292 291 291 290 289 289 289 288 288 288 288 287 287 287 286 284 283 283 283 283 282 282 282 282 282 281 280 279 279 278 277 277 276 276 276 276 277
296 296 296 295 293 292 291 290 290 289 289 289 288 288 288 288 288 287 287 286 286 286 284 283 282 282 282 282 281 281 280 280 278 277 276 276 276 276 276 276 276 276 277
296 297 296 295 293 291 291 290 290 289 289 289 288 288 288 288 287 287 287 287 286 286 285 283 282 282 282 281 281 280 278 277 277 276 276 276 276 276 276 276 276 276 276
299 298 297 295 293 292 291 290 289 289 289 289 288 288 288 287 287 287 287 287 286 286 285 283 282 281 281 280 280 279 279 278 276 276 276 276 276 277 276 276 277 277 277
300 299 297 295 294 292 291 289 289 289 288 288 288 288 288 287 287 287 287 287 286 286 285 283 282 281 280 280 280 279 278 277 277 276 275 275 275 276 277 277 277 276 276
299 298 297 295 294 293 291 290 288 288 288 288 288 287 287 287 286 286 286 286 286 286 284 282 281 280 279 279 277 277 277 278 276 276 276 274 274 274 274 274 274 275 275
297 295 295 295 294 294 292 290 288 288 288 288 288 288 287 287 286 286 286 286 286 285 284 282 281 279 278 277 277 276 276 276 275 276 275 275 275 275 275 274 274 274 275
293 294 295 295 295 294 292 290 289 288 288 288 288 288 287 287 286 286 285 285 285 284 284 282 280 278 277 276 276 275 275 274 274 274 274 274 274 274 274 273 273 272 272
293 294 294 293 292 291 291 290 290 289 288 288 288 288 288 287 286 285 285 284 284 284 283 281 279 277 276 276 275 275 274 273 274 274 274 274 274 273 273 273 273 272 272
293 291 290 290 290 290 290 289 289 288 288 288 288 288 287 286 286 285 284 283 283 282 281 279 278 276 276 276 275 274 274 273 273 273 273 273 273 272 272 272 273 272 272
291 290 290 290 290 289 289 289 289 288 288 288 287 287 286 285 285 284 283 282 282 281 279 278 277 276 276 275 274 273 273 273 273 272 272 272 272 272 273 271 271 271 271
290 290 290 290 289 289 289 289 288 288 287 286 285 285 284 284 283 281 281 281 281 280 278 278 276 276 275 274 274 273 273 273 272 272 271 271 272 271 272 272 271 271 270
290 289 289 289 289 288 288 288 288 287 286 285 284 284 283 282 281 280 279 279 277 276 276 276 275 275 274 273 273 273 273 272 272 271 271 271 271 271 271 271 271 270 269
290 289 288 288 287 287 287 287 286 284 284 283 282 282 281 280 277 276 276 276 276 276 276 275 274 274 273 273 272 272 272 272 271 270 270 270 270 270 270 271 270 270 270
289 289 288 287 286 286 285 284 284 283 282 282 281 281 279 278 277 277 274 274 275 275 274 274 273 273 273 272 271 271 271 271 271 270 270 270 270 270 270 270 270 270 269
288 288 287 286 285 284 283 282 282 282 281 280 280 278 277 276 275 274 272 272 272 272 272 272 273 272 272 271 271 270 270 270 270 270 270 269 269 269 270 270 270 270 269
286 285 284 283 283 282 281 280 280 279 278 276 275 274 273 272 272 271 270 270 271 271 271 271 271 271 270 270 270 270 270 270 269 269 269 269 269 269 269 269 270 269 270
283 283 282 282 281 280 278 277 276 275 274 274 273 272 270 268 267 267 267 268 268 268 269 269 269 270 269 269 269 269 269 269 268 268 269 269 269 269 269 269 269 269 270
281 280 279 277 276 275 275 274 274 273 272 271 270 269 268 267 267 266 265 265 265 265 266 267 268 268 268 268 269 269 269 268 267 267 268 269 268 269 269 269 269 269 269
278 276 275 275 274 273 273 272 272 271 270 269 269 268 267 266 266 265 265 265 265 264 265 266 267 267 268 268 268 268 267 267 267 267 268 268 268 268 268 268 268 268 269
274 274 273 273 272 272 271 270 270 269 268 268 267 267 266 266 265 265 265 264 265 265 265 266 266 267 267 268 267 267 267 267 267 267 267 268 268 268 268 268 268 268 268
272 272 271 271 270 270 269 269 268 268 268 267 267 266 266 265 265 265 265 265 265 265 265 266 266 267 267 267 266 266 267 267 267 267 267 267 267 268 268 268 268 268 268
271 270 270 270 269 268 268 268 268 268 267 267 266 266 265 265 265 265 264 264 264 265 265 266 266 266 266 266 266 266 267 267 267 267 266 267 267 268 268 268 268 268 268

GFSGL_850_thetae_051.txt.gz
Theta_e
299 298 298 297 297 297 296 296 295 295 294 293 292 291 290 290 289 288 288 287 287 286 285 285 285 284 284 284 283 283 282 282 282 284 284 283 283 282 281 281 281 281 280
298 298 297 297 297 296 296 295 294 294 293 292 291 290 290 289 289 288 288 287 287 287 286 285 284 284 284 283 283 283 282 282 282 283 283 282 282 281 280 280 279 280 279
298 297 297 297 296 296 295 294 294 293 292 291 290 290 289 289 288 288 288 287 287 286 286 286 285 284 283 283 283 283 282 282 281 281 282 281 281 280 279 279 278 278 278
297 297 297 297 296 295 294 294 293 292 291 290 290 289 289 289 288 288 288 287 287 287 287 286 286 285 283 283 282 282 282 281 281 280 280 280 279 278 277 277 277 277 276
297 296 297 296 295 294 293 293 292 292 291 290 289 289 289 288 288 288 288 287 287 287 287 287 286 285 284 283 282 282 281 280 280 279 279 278 278 277 276 276 276 276 276
296 297 296 295 294 294 293 292 291 291 290 290 289 289 289 288 288 288 287 287 287 287 287 286 286 285 284 283 282 281 280 279 279 278 277 277 276 276 275 275 275 276 277
296 297 296 295 294 294 293 291 291 290 290 290 289 289 288 288 288 288 287 287 287 287 287 286 286 285 284 283 282 281 279 279 277 277 276 276 275 275 275 275 275 275 274
296 296 295 295 293 293 292 291 292 290 289 289 289 289 288 288 288 287 287 287 287 286 286 286 285 285 284 283 281 280 279 279 278 277 275 275 275 275 274 274 273 273 274
296 296 296 295 294 294 294 296 291 289 289 289 289 288 288 288 287 287 287 287 286 286 286 285 285 285 283 281 280 279 278 278 278 276 276 275 275 275 274 274 274 272 272
296 297 297 297 297 298 294 293 291 290 289 288 288 288 288 288 287 287 287 286 286 285 285 285 285 284 283 280 278 278 278 278 277 277 276 275 275 275 274 274 273 271 271
297 298 298 297 295 295 294 293 292 290 289 288 288 288 288 288 287 287 286 286 286 285 285 284 284 283 282 279 277 277 277 276 275 275 275 275 275 274 274 274 272 272 271
298 297 295 294 294 294 294 293 291 290 289 289 288 288 288 288 288 287 286 285 284 285 285 284 283 283 281 279 277 277 276 275 275 274 274 274 274 274 274 273 273 273 272
293 293 293 294 294 294 293 292 291 290 289 289 289 288 288 288 287 285 285 284 283 283 283 283 282 282 278 277 277 276 275 275 274 274 273 273 273 273 273 272 273 273 273
292 292 292 292 291 290 290 290 290 289 289 289 288 288 288 287 285 284 283 283 283 282 282 281 280 278 277 276 277 276 275 274 273 273 273 273 272 272 272 272 272 272 273
291 291 291 290 290 290 289 289 289 289 288 288 287 286 285 285 285 284 283 283 282 281 280 280 280 279 278 277 276 275 274 273 272 272 272 272 272 271 272 271 271 271 271
290 290 290 290 289 289 289 288 288 288 287 287 286 285 284 283 283 282 282 282 281 278 277 278 278 277 276 276 275 274 274 273 272 271 271 271 271 271 271 271 270 270 271
290 290 290 289 289 288 288 287 287 286 286 285 283 282 282 281 281 278 278 277 277 277 277 277 277 277 276 276 275 274 273 272 271 271 271 270 270 270 270 270 270 270 270
290 290 290 289 288 288 287 286 285 284 283 282 281 281 281 280 279 278 274 274 275 275 275 275 275 275 275 275 273 273 272 271 270 270 270 270 269 269 270 269 269 269 270
289 289 289 288 287 286 285 284 283 282 282 281 281 280 279 277 275 274 273 272 272 272 272 272 272 272 272 272 272 271 270 270 270 269 269 269 269 269 269 269 269 269 269
288 287 287 286 285 284 283 282 281 281 280 278 276 275 275 275 274 273 272 271 270 270 269 269 269 269 269 269 269 269 269 269 269 269 268 268 268 269 268 268 268 269 269
285 284 283 283 282 281 281 280 278 276 275 275 274 274 273 272 272 270 269 268 267 266 266 267 267 266 267 267 267 268 268 269 269 268 267 267 268 268 268 268 268 268 268
282 281 281 280 280 279 277 276 275 274 274 273 273 272 271 271 270 269 268 267 266 266 265 265 265 264 265 265 266 267 267 268 268 266 266 267 268 268 268 268 268 268 268
280 280 279 278 276 275 274 274 273 273 272 272 271 271 270 269 268 267 267 266 266 265 265 265 264 265 265 265 266 266 267 267 267 266 266 267 267 268 268 268 268 268 267
278 276 274 274 274 273 273 272 272 271 271 271 270 269 268 267 267 267 266 266 266 266 265 265 265 265 265 266 266 266 266 267 266 266 266 266 267 268 268 268 268 268 267
273 273 272 272 272 272 271 271 270 270 269 269 268 268 267 267 267 267 266 266 266 265 265 265 265 265 265 266 266 266 266 266 266 266 266 266 267 267 268 268 268 268 268
273 273 272 271 270 270 270 269 269 268 268 267 267 267 267 267 267 267 267 266 266 266 266 266 265 265 265 266 266 266 266 266 266 265 266 266 267 267 267 267 268 268 268

GFSGL_850_thetae_054.txt.gz
Theta_e
309 305 302 301 298 297 297 296 296 296 295 295 294 293 292 292 291 290 289 288 287 287 286 286 286 285 285 284 284 283 283 283 283 284 284 283 283 283 283 282 281 281 281
306 302 300 299 297 296 296 296 296 295 295 294 293 292 292 291 290 289 288 288 287 287 287 286 286 286 285 285 284 283 283 283 282 282 283 283 283 283 282 281 280 280 280
301 300 298 297 296 296 296 296 296 295 295 294 292 292 291 291 290 289 288 288 287 287 287 287 287 286 286 285 284 284 283 282 281 281 282 282 282 282 282 281 279 278 278
299 298 297 297 296 296 296 296 295 295 294 292 292 291 291 290 289 289 288 288 288 287 287 287 287 287 286 285 285 284 283 282 281 281 281 281 281 281 279 277 278 277 277
298 297 297 296 296 296 295 295 294 294 293 291 291 290 290 289 289 289 289 288 288 287 287 287 287 287 286 285 285 284 283 282 281 280 280 280 280 279 277 276 276 275 276
297 297 295 295 295 295 294 294 293 292 291 290 290 290 290 289 289 289 288 288 288 287 287 287 287 286 286 285 285 284 282 281 280 279 279 279 278 277 276 276 275 274 275
296 295 295 294 294 294 294 293 293 292 291 290 290 290 289 289 288 289 288 288 288 287 287 287 286 286 286 285 285 284 283 281 279 278 278 278 277 276 275 275 275 274 274
296 295 294 294 294 294 293 292 292 291 290 290 292 289 289 288 288 288 288 288 287 287 287 286 286 286 286 285 285 284 283 281 280 279 278 277 276 275 275 274 274 274 274
296 296 295 294 293 293 293 292 291 291 291 296 292 289 289 288 288 288 287 287 287 287 286 286 286 285 285 284 284 284 283 282 280 278 277 277 276 275 274 274 274 273 274
298 296 295 294 296 293 292 292 294 293 296 295 290 289 288 288 288 287 287 287 287 287 286 286 285 285 284 284 283 283 283 282 279 278 278 277 276 275 274 273 273 273 272
299 299 298 296 295 293 292 294 295 297 293 290 289 288 288 288 287 287 286 286 287 286 286 286 285 284 283 283 282 282 282 280 279 278 277 276 275 275 274 274 273 272 272
302 300 298 295 294 295 295 296 292 291 290 289 289 288 288 287 287 287 286 286 286 286 286 286 285 284 283 283 282 281 278 278 278 277 276 275 275 274 274 274 273 273 272
297 296 295 294 294 294 293 293 292 291 290 290 290 289 289 288 287 287 286 285 285 284 285 285 284 283 283 282 278 278 278 277 277 276 275 275 274 273 273 273 273 273 273
296 295 295 294 294 293 293 293 293 292 292 291 290 289 289 288 287 286 285 285 284 283 284 283 283 281 280 278 277 277 277 276 275 275 274 274 273 273 272 272 272 272 272
292 292 293 293 292 293 293 292 291 291 290 289 289 288 287 287 286 285 285 284 283 282 282 282 281 281 280 279 278 277 277 276 275 274 274 273 272 272 272 271 271 271 271
291 291 291 291 291 291 290 290 289 289 289 288 288 287 286 285 284 284 283 282 282 281 280 280 280 278 278 277 277 276 276 276 275 273 273 272 271 271 271 271 270 270 270
290 290 290 290 290 290 289 289 288 288 287 286 285 284 284 284 284 283 282 278 278 278 278 278 277 277 276 275 275 274 274 274 273 272 272 271 271 270 270 270 270 269 270
290 290 290 289 289 289 288 287 286 285 285 284 283 282 282 281 281 280 279 278 278 278 277 276 275 275 274 274 273 272 272 272 271 271 271 270 270 269 269 269 269 269 269
289 289 289 289 288 288 287 286 285 284 284 283 282 281 280 280 279 278 276 275 274 274 273 272 271 271 270 269 269 270 270 269 269 270 270 269 269 268 268 268 268 268 268
288 288 288 287 287 286 285 284 284 283 282 282 281 279 277 275 275 275 274 274 273 272 271 271 270 269 268 267 267 267 267 267 268 268 268 268 268 268 267 268 268 268 268
287 286 285 285 284 283 283 282 282 281 280 277 275 275 274 274 274 274 273 272 271 271 270 269 268 267 266 265 265 265 265 266 266 267 267 267 267 267 266 267 268 268 268
284 283 283 282 282 281 280 279 278 276 275 274 274 273 273 273 272 271 271 270 269 269 268 267 267 266 266 265 265 265 265 265 265 266 266 267 267 266 266 267 267 268 267
282 281 281 280 280 279 277 275 274 274 274 273 273 273 272 271 271 270 269 269 268 268 267 266 266 266 265 265 265 265 265 265 266 266 266 267 266 266 266 267 267 268 267
279 279 278 277 275 274 273 273 273 273 272 272 272 271 271 270 270 269 268 268 267 267 266 266 266 266 266 266 266 266 265 266 266 266 266 266 266 266 266 267 267 267 267
277 275 274 273 273 273 272 272 272 272 271 270 270 270 269 269 269 268 268 267 267 267 267 266 266 266 266 266 266 266 266 266 266 266 266 266 266 266 266 267 267 267 267
272 272 273 273 273 272 271 271 270 270 269 269 268 268 268 268 267 267 267 266 266 266 266 267 266 266 266 266 266 266 266 266 266 265 265 266 266 266 266 266 267 267 267

GFSGL_850_thetae_057.txt.gz
Theta_e
311 311 312 314 314 310 304 299 296 296 296 296 295 295 294 293 293 292 291 290 289 288 287 287 287 286 286 285 285 285 284 284 284 284 284 285 285 284 284 283 283 283 283
310 311 312 313 311 305 300 296 296 296 295 295 295 294 294 293 292 291 290 290 289 288 287 287 287 287 286 286 285 285 285 284 284 284 284 284 284 284 283 283 283 283 282
309 310 311 308 304 300 297 295 295 295 295 295 294 294 293 292 291 291 290 289 289 288 287 287 287 287 287 286 285 285 285 284 284 284 284 284 284 283 283 283 283 282 281
310 311 310 306 302 299 296 295 295 294 294 294 294 293 292 291 291 290 290 289 289 288 287 287 287 287 287 286 286 285 285 285 284 284 284 284 283 283 281 281 283 281 281
310 309 308 304 300 298 295 294 294 294 293 293 293 292 291 290 290 290 290 289 289 288 288 287 287 287 287 287 286 286 285 285 284 284 284 283 282 282 280 279 278 279 280
308 306 305 302 298 296 294 294 293 293 293 292 292 291 291 290 290 292 289 289 289 288 288 287 287 287 287 286 286 286 285 285 284 284 283 282 281 280 279 278 277 276 276
305 303 302 299 297 295 294 293 293 293 292 291 291 290 291 289 291 291 289 288 288 288 288 287 287 287 286 286 286 285 285 284 284 283 282 281 280 279 278 277 275 275 275
303 302 299 297 296 294 293 293 292 292 291 292 290 292 291 290 291 289 289 288 288 288 288 287 287 286 286 286 285 285 285 284 284 284 282 281 279 279 276 275 275 274 275
301 300 298 297 295 294 293 293 292 291 292 290 291 291 289 292 291 289 288 288 288 287 287 287 287 286 286 285 285 285 285 285 284 283 282 279 277 277 276 275 274 273 274
299 299 298 297 295 294 293 292 291 291 296 289 291 291 290 295 292 288 287 287 287 287 287 287 286 286 286 285 284 284 284 285 283 283 282 280 278 277 276 275 273 273 272
298 297 296 295 294 294 292 291 290 297 290 290 294 293 295 293 288 287 287 287 287 287 287 287 286 286 285 284 284 283 283 283 283 282 281 279 278 277 276 275 273 272 272
297 296 295 294 292 291 290 291 296 292 291 291 296 295 294 289 287 287 286 286 286 286 286 286 285 285 284 284 283 283 282 280 279 279 279 279 278 277 276 274 273 272 272
300 300 300 300 298 297 297 295 292 290 290 295 295 291 289 288 288 287 287 286 286 286 286 285 285 284 284 283 283 282 279 279 279 278 278 277 277 276 275 274 273 272 272
299 297 296 295 294 293 293 292 292 293 292 290 290 290 289 289 288 287 287 286 286 285 285 284 284 283 281 280 281 281 279 278 278 277 277 276 276 275 274 273 272 272 272
297 296 296 295 294 293 292 292 292 291 290 290 290 289 289 289 288 287 287 286 285 284 284 283 283 282 281 281 280 279 278 277 277 277 276 276 275 274 273 273 272 271 270
292 292 292 292 293 292 292 292 292 292 291 291 290 289 289 288 287 287 286 285 284 283 282 282 281 280 279 279 278 277 276 276 275 275 275 274 274 273 272 272 271 270 269
290 290 290 290 290 290 290 291 291 290 289 289 288 288 287 286 285 285 285 283 281 281 280 280 279 279 278 277 276 275 274 272 272 272 272 272 272 271 271 270 270 269 269
290 290 290 290 290 289 289 288 288 288 287 286 286 285 285 284 284 283 282 281 280 279 279 279 278 277 276 275 273 272 271 270 269 269 270 270 270 270 270 269 269 268 268
289 289 289 289 289 289 289 288 287 286 285 284 284 284 283 282 281 280 280 279 279 277 275 274 274 273 273 272 271 269 269 268 267 267 267 268 268 268 268 268 268 268 268
289 288 288 288 288 287 287 286 285 284 284 283 282 282 281 281 280 279 277 275 275 274 274 273 272 271 271 270 269 268 268 267 266 266 266 266 266 266 267 267 267 267 268
288 288 287 287 286 285 285 284 283 283 282 282 281 280 279 278 276 275 275 274 274 273 272 272 271 270 270 269 268 267 266 266 265 265 265 265 265 266 266 266 266 266 267
286 286 285 284 284 283 283 282 282 281 280 279 277 275 275 275 274 274 273 273 272 272 271 271 270 269 269 268 267 267 266 266 266 265 265 265 265 266 266 266 265 266 266
283 283 282 282 281 281 280 280 279 277 276 275 274 274 274 273 273 272 272 271 271 270 270 270 269 269 268 267 267 266 266 266 266 266 266 266 266 266 265 266 265 266 266
280 280 279 279 279 278 277 275 274 273 273 273 273 272 272 271 271 271 270 270 270 270 269 269 268 268 267 267 266 266 266 266 266 266 266 266 266 266 266 265 265 266 266
278 277 277 275 274 273 273 273 273 273 272 271 271 271 270 270 270 269 269 269 269 268 268 267 267 267 267 267 266 266 266 266 266 266 266 266 266 266 265 265 265 265 266
274 273 272 271 272 272 272 271 271 270 270 270 270 270 269 269 269 269 269 269 268 268 268 267 267 266 266 266 266 266 266 266 266 266 266 266 266 265 265 265 265 266 266

GFSGL_850_thetae_060.txt.gz
Theta_e
312 315 315 314 315 316 315 315 314 308 300 296 295 295 295 294 294 293 292 292 291 290 290 289 289 288 287 287 286 286 285 285 285 285 285 284 284 284 284 284 284 284 283
313 315 312 313 313 314 314 313 310 303 297 295 294 294 294 293 293 293 292 291 291 290 289 289 288 288 287 287 286 285 285 285 285 285 284 284 284 284 284 284 284 283 283
313 314 311 310 311 313 313 312 307 298 295 294 294 294 294 293 293 292 291 291 290 290 289 288 288 287 287 287 286 286 285 285 285 285 285 284 284 284 284 283 283 283 283
312 312 310 310 310 311 312 311 304 297 294 294 293 293 293 292 292 292 291 290 290 291 289 288 288 287 287 287 287 286 286 286 285 285 285 285 284 284 283 283 284 283 283
310 311 310 309 309 310 310 306 299 295 293 293 293 292 291 291 291 291 291 290 292 291 289 289 288 287 287 287 286 286 286 286 286 286 285 285 285 284 283 282 282 283 283
307 308 310 308 309 309 306 302 297 293 293 292 292 292 291 290 290 290 289 289 291 289 289 289 288 287 287 287 286 286 286 286 286 286 285 285 285 283 282 281 281 281 280
305 306 308 309 309 308 304 299 295 293 292 292 291 290 290 290 290 289 291 290 290 288 288 288 288 288 287 287 286 286 286 286 286 285 285 285 284 282 281 280 279 280 278
303 304 306 307 308 306 303 299 295 292 292 292 291 290 289 289 291 291 289 290 290 287 289 288 288 287 287 286 286 286 286 285 285 284 284 283 282 281 280 279 278 278 278
303 302 303 304 305 304 302 298 294 292 291 291 290 289 289 292 289 293 288 290 289 288 288 287 287 287 287 286 286 286 286 286 285 284 283 282 282 279 279 278 277 277 277
301 300 300 301 302 301 299 296 294 292 291 291 290 289 288 290 290 293 287 289 291 289 287 287 287 287 286 286 285 285 285 285 284 284 283 282 281 280 279 278 276 276 275
299 298 298 298 298 297 295 294 293 292 291 290 289 288 296 289 291 293 288 289 291 289 286 286 287 286 286 285 285 285 285 284 284 283 283 282 281 279 278 277 276 276 275
296 295 295 295 295 295 294 293 292 291 291 290 288 293 293 289 293 294 293 291 289 286 286 286 286 286 285 285 284 284 283 282 281 281 280 280 279 279 278 277 276 275 274
295 294 294 293 293 292 292 291 291 291 291 290 291 294 294 295 293 292 293 290 286 286 286 286 286 285 285 285 284 283 282 281 280 280 279 279 278 277 276 276 275 275 274
298 298 300 299 297 295 294 293 291 291 291 293 294 294 294 293 293 292 288 287 286 286 286 285 285 285 284 283 283 281 279 279 278 278 277 277 276 276 276 275 274 274 273
300 299 298 297 297 297 296 296 295 295 294 293 292 292 291 290 289 288 287 287 286 286 285 285 285 284 283 281 280 280 279 279 278 277 276 276 276 275 274 274 272 272 272
296 295 295 294 293 293 292 292 291 291 290 290 289 289 289 289 289 288 288 287 286 285 284 284 283 282 282 281 281 280 279 278 277 275 274 273 272 272 272 272 271 271 271
291 291 291 291 292 292 292 292 291 291 290 290 290 289 289 289 288 287 286 285 285 284 283 283 282 281 280 279 279 278 277 275 273 272 271 270 269 269 269 269 269 269 269
290 290 290 290 289 289 289 289 289 289 289 288 287 287 287 286 285 284 284 284 283 281 281 280 280 279 278 277 275 274 273 272 271 270 269 268 267 267 267 267 268 268 267
290 289 289 289 289 289 289 288 288 287 287 286 285 285 284 284 284 284 282 282 282 281 279 278 275 274 274 274 273 273 272 271 270 269 268 267 266 266 266 266 266 266 266
289 289 288 288 288 288 288 288 287 286 285 285 284 283 283 283 283 282 281 280 278 276 275 274 274 274 273 273 272 271 270 269 268 267 267 266 266 266 265 265 266 265 266
288 288 288 287 287 287 286 286 285 284 284 283 282 281 281 281 280 278 276 274 274 274 274 274 273 273 272 271 271 269 269 268 268 267 267 266 266 266 265 265 265 265 265
286 286 286 285 285 284 284 283 283 282 282 281 281 280 280 277 275 274 274 274 274 273 273 272 272 271 271 270 269 269 268 268 267 267 267 266 266 266 265 265 265 265 265
284 284 283 283 282 282 281 281 281 280 280 279 277 276 275 274 274 274 273 273 273 272 272 271 270 270 269 269 269 269 268 268 267 267 266 266 266 266 265 265 265 265 265
282 282 281 281 280 280 279 279 278 277 275 274 274 273 273 273 273 272 272 272 271 270 270 269 269 269 269 269 268 268 268 267 267 267 266 266 266 266 265 265 265 265 265
280 279 279 278 278 277 276 275 274 273 273 273 273 273 272 272 271 271 270 270 269 269 268 268 268 268 268 268 267 267 267 267 267 266 266 266 266 266 265 265 265 264 264
277 277 276 275 274 274 273 273 273 273 273 272 271 271 270 270 270 269 269 268 269 269 269 269 268 268 268 268 268 267 267 266 266 265 265 266 266 265 265 265 264 264 264

GFSGL_850_thetae_063.txt.gz
Theta_e
307 309 310 310 314 315 316 316 316 316 315 314 312 300 296 294 294 294 293 293 293 292 291 290 290 290 289 289 289 288 287 287 286 286 286 286 285 284 284 284 284 284 284
307 309 310 310 313 315 315 315 315 314 314 312 307 297 295 294 294 293 293 293 292 291 291 290 290 290 289 289 288 288 287 286 286 286 286 286 285 285 284 284 284 284 284
307 309 310 309 313 315 314 314 314 313 311 308 300 295 293 293 293 293 292 292 291 290 290 290 292 291 289 288 288 287 287 286 286 286 286 286 286 285 285 285 285 285 284
307 309 309 309 313 313 312 313 314 313 310 305 299 294 293 293 293 292 292 291 290 290 289 292 292 288 288 288 287 287 287 287 286 286 286 286 286 286 285 286 286 285 285
308 308 309 309 313 311 310 311 312 311 309 304 297 292 292 292 292 291 291 291 289 291 292 294 289 289 288 287 287 287 287 287 286 286 286 286 286 285 285 285 285 285 285
308 308 309 310 312 311 309 309 310 310 308 302 295 292 292 291 291 290 290 290 290 289 292 291 290 289 288 288 287 287 287 286 286 286 286 286 285 285 285 284 284 284 283
307 307 308 309 311 310 309 308 309 309 307 302 293 291 291 291 290 290 290 289 288 289 292 289 289 289 288 288 287 287 286 286 286 286 286 285 285 284 284 283 283 282 281
306 306 306 307 309 309 308 307 308 307 305 300 293 290 290 290 290 289 289 288 290 292 292 290 287 288 288 287 287 286 286 286 286 284 284 284 283 283 282 281 281 281 279
307 305 304 304 305 306 307 307 307 304 300 296 291 290 289 290 289 288 288 290 293 293 293 291 287 287 288 286 286 286 286 286 285 284 284 284 283 282 281 280 281 280 279
305 304 302 302 302 303 305 306 304 300 295 292 290 289 290 289 287 287 289 293 294 292 292 291 291 287 287 286 285 285 286 286 285 285 284 284 283 282 281 280 279 279 278
302 300 299 298 299 300 301 301 300 296 293 292 291 289 289 288 287 286 291 292 292 292 293 292 291 289 287 285 285 285 285 285 284 284 284 283 283 281 280 279 279 278 277
298 297 296 295 296 296 296 296 296 294 293 292 290 289 288 287 287 287 290 293 292 292 292 291 291 290 286 284 284 285 284 283 283 283 282 281 281 280 279 278 277 276 276
296 295 295 294 294 294 294 293 292 292 291 291 291 289 289 288 288 291 293 294 291 290 291 290 290 286 285 285 285 284 283 282 281 281 280 280 279 278 278 277 276 275 274
295 294 293 293 292 292 292 292 293 294 293 291 291 292 293 293 292 292 293 293 291 290 290 288 286 286 285 285 285 283 281 280 280 279 278 278 278 277 277 275 274 273 272
299 299 298 297 296 295 294 294 293 293 293 293 293 293 292 292 293 293 292 290 289 287 286 286 285 285 285 284 283 282 281 280 279 278 278 277 276 275 273 272 271 270 270
298 298 297 297 297 296 296 295 294 292 292 292 292 292 292 292 291 290 289 288 288 287 287 287 286 285 284 283 281 280 280 279 278 277 275 273 272 271 270 269 269 268 268
295 294 294 293 293 293 292 292 292 291 291 290 290 289 289 289 289 289 289 288 288 287 286 285 284 283 282 281 281 279 279 277 275 274 273 272 271 270 269 268 267 266 267
290 290 291 291 291 291 291 291 290 290 290 290 290 290 290 289 289 288 287 286 285 284 283 282 281 280 280 279 278 276 274 274 273 272 271 270 269 269 268 267 266 266 266
289 289 289 289 289 289 289 288 288 288 288 287 287 286 286 285 285 285 284 283 282 281 281 280 280 279 277 275 274 274 273 273 272 271 270 269 268 268 267 266 266 266 266
289 288 288 288 288 288 288 288 287 287 286 285 285 284 283 283 283 282 282 281 281 280 280 278 276 275 275 274 273 273 272 272 271 270 269 268 267 267 267 266 266 266 266
288 288 288 288 288 288 287 287 286 286 285 285 284 283 282 282 281 281 280 280 279 276 275 274 274 273 273 273 272 272 271 270 270 269 268 267 267 267 267 266 266 266 265
287 287 287 287 287 286 286 286 285 284 284 283 282 281 281 280 279 278 276 275 274 274 273 273 273 272 272 272 271 271 270 270 269 268 268 267 267 267 267 267 266 266 265
286 286 286 285 285 284 284 283 282 282 281 281 280 279 278 277 275 274 274 273 273 273 273 272 272 271 271 270 270 270 270 269 268 268 268 267 267 267 266 266 266 266 265
284 283 283 282 282 282 281 281 280 279 279 278 277 275 274 274 273 273 272 272 272 271 271 271 270 270 269 269 269 268 268 268 268 268 267 267 267 266 266 266 266 265 265
281 280 280 280 279 279 278 277 277 276 275 274 273 272 272 272 272 271 271 271 270 270 269 269 269 269 269 269 269 268 268 267 267 266 266 266 267 266 266 266 266 265 265
278 277 277 276 275 275 274 274 273 273 273 273 273 272 271 271 270 270 269 269 269 269 269 269 269 269 269 269 268 268 268 268 267 267 266 266 265 265 265 265 265 265 264

GFSGL_850_thetae_066.txt.gz
Theta_e
311 309 308 308 308 310 311 312 316 317 318 318 317 317 316 313 309 300 295 294 294 293 292 292 291 291 291 290 291 296 289 288 288 288 287 287 287 286 286 285 285 285 285
312 310 308 307 309 310 310 315 315 316 317 316 316 315 314 310 303 296 295 294 293 293 292 291 291 290 290 296 296 289 288 288 288 287 287 287 287 287 286 286 286 286 286
312 310 308 307 309 310 309 312 314 314 315 315 314 313 312 306 298 295 294 294 293 292 292 291 290 290 295 297 289 289 288 288 287 287 287 287 287 287 287 287 286 286 286
313 311 309 308 308 310 309 311 312 314 314 314 313 312 310 301 295 294 293 293 292 291 290 289 289 294 297 291 290 288 287 287 287 287 287 287 287 287 287 286 286 286 285
313 312 310 308 308 310 308 311 313 314 313 312 311 309 305 297 294 293 292 292 291 290 289 288 292 295 296 290 289 287 287 287 287 287 287 287 287 286 286 286 285 285 285
313 312 310 308 308 310 308 311 312 312 311 311 309 307 305 297 293 292 292 291 290 290 289 290 293 295 293 290 289 287 287 287 287 287 286 286 286 286 285 285 284 283 282
312 311 309 308 308 309 308 310 312 310 309 310 309 306 302 296 292 291 290 290 290 289 288 292 293 296 294 289 288 287 287 287 287 286 286 286 285 285 284 284 283 282 281
309 308 308 307 307 308 307 309 311 309 308 308 308 306 300 295 290 289 289 289 289 289 289 291 294 295 293 288 287 287 288 286 286 286 286 286 285 284 283 283 282 282 282
310 308 307 306 305 306 307 308 309 308 307 306 305 303 298 292 289 289 288 288 288 288 288 291 294 294 292 289 286 288 288 285 285 285 285 285 284 283 283 281 281 281 280
308 306 305 304 304 304 305 306 307 306 305 304 302 299 295 290 289 289 288 288 288 287 290 292 293 293 292 291 290 289 289 287 285 285 285 284 284 283 283 282 281 280 280
305 303 301 300 300 300 301 302 303 302 301 299 297 294 290 289 290 288 288 288 287 287 290 292 292 293 292 290 290 289 289 286 284 284 284 284 284 284 282 281 280 279 278
300 299 298 297 297 297 297 298 298 299 296 293 292 291 290 289 287 287 288 287 287 289 290 292 292 292 291 290 289 289 288 284 284 283 283 282 281 281 280 280 279 278 277
298 297 296 295 295 294 295 295 295 295 292 292 293 291 290 290 288 289 288 287 288 289 290 291 291 290 290 289 289 288 284 284 283 282 281 281 281 280 279 278 278 277 276
296 295 294 294 293 293 293 293 293 293 293 294 293 292 292 290 288 288 288 288 287 288 290 291 290 289 289 288 288 284 283 283 282 281 281 280 279 279 278 277 275 273 272
294 294 293 292 293 294 293 293 294 294 294 294 294 293 292 291 291 289 288 289 290 290 291 289 288 288 287 286 284 283 282 281 280 279 279 279 278 278 275 273 272 271 269
300 299 298 296 295 294 293 293 292 291 291 292 292 291 291 291 291 291 291 290 290 290 289 288 287 286 284 283 283 282 282 281 280 279 278 277 275 274 273 272 270 269 268
297 296 296 296 295 294 293 292 292 291 291 291 291 291 291 291 291 291 290 289 288 288 287 287 286 285 284 283 282 281 280 280 279 277 274 273 273 272 272 270 269 268 268
293 292 292 292 292 292 292 291 291 291 291 291 290 290 289 289 289 289 288 288 288 287 287 285 284 283 282 282 281 280 279 278 275 274 273 272 272 271 270 269 268 267 267
290 290 290 290 290 289 289 289 289 289 289 289 288 288 288 288 288 287 286 285 285 284 283 282 282 281 281 280 279 277 275 274 274 273 272 271 271 270 269 268 268 267 266
289 289 289 288 288 288 288 288 288 288 288 287 287 286 286 285 285 284 284 283 282 282 281 280 280 279 278 276 275 274 274 273 273 272 271 271 270 269 268 268 267 267 267
288 288 288 288 288 288 287 287 287 286 286 285 285 284 284 283 283 282 281 280 280 280 279 279 277 275 275 274 274 273 273 272 272 271 270 270 269 268 268 268 267 267 267
287 287 287 287 287 287 286 286 285 285 284 284 283 282 282 281 281 280 280 279 279 278 276 275 274 274 273 273 272 272 271 271 270 270 270 269 268 268 268 267 267 267 266
286 285 285 285 285 285 284 284 283 283 282 282 281 281 280 279 279 278 277 276 275 274 273 273 273 272 272 271 271 271 270 270 269 269 269 268 268 268 267 267 266 266 266
284 284 283 283 283 283 282 282 281 281 280 280 279 278 277 276 275 274 273 273 272 272 272 272 271 271 271 270 269 269 269 268 268 268 268 268 268 267 267 266 266 266 266
281 281 281 281 281 280 280 279 278 278 277 276 275 274 273 272 272 272 272 272 272 271 271 270 270 269 269 268 268 268 268 268 268 267 267 266 266 266 266 266 266 266 266
279 279 278 278 277 277 276 276 275 274 274 274 273 273 272 272 271 271 270 270 269 269 269 269 268 268 268 268 268 268 268 268 268 267 267 267 266 266 265 265 265 265 265

GFSGL_850_thetae_069.txt.gz
Theta_e
313 313 312 311 310 309 309 309 309 311 312 317 319 319 320 320 318 317 317 315 311 307 307 305 300 294 292 291 291 291 293 298 290 290 288 288 287 287 287 287 287 287 287
314 313 313 311 310 309 308 308 309 311 311 316 317 318 318 318 318 317 315 314 307 304 305 302 293 292 291 291 290 293 297 292 290 291 288 287 287 287 287 287 287 287 287
314 314 314 313 311 310 308 308 308 310 311 315 315 316 317 316 316 315 313 309 303 301 299 295 292 291 290 290 292 298 293 291 292 288 288 287 287 287 287 287 287 287 287
315 314 315 314 314 311 309 308 309 310 310 313 313 314 316 314 314 313 309 303 297 295 293 292 292 291 290 291 298 296 294 293 289 288 287 287 287 287 287 287 287 287 287
314 314 314 312 313 311 309 308 309 310 309 313 313 313 313 313 312 311 305 298 293 292 292 291 290 289 289 294 298 297 296 290 288 287 287 287 287 287 287 286 286 286 286
313 314 313 311 312 310 309 308 309 310 308 311 312 313 313 311 310 308 299 295 292 291 291 290 288 289 291 297 297 297 294 289 287 287 287 287 287 287 286 286 285 285 285
312 312 311 310 310 309 308 307 308 310 308 310 311 311 311 309 307 303 297 292 290 290 290 289 288 289 293 297 296 296 292 289 287 287 287 287 286 286 285 285 284 284 284
311 310 310 309 308 308 307 307 307 309 307 310 311 310 309 308 305 301 295 292 289 289 289 288 289 290 294 296 296 295 290 288 288 287 287 286 285 285 284 284 284 284 283
311 310 307 306 305 305 305 305 306 307 306 309 309 308 307 306 304 298 294 290 289 289 288 288 288 291 293 296 294 293 291 290 288 289 289 287 285 284 283 283 283 282 282
310 309 307 305 303 302 302 303 304 305 306 307 306 306 304 303 298 294 291 289 288 288 287 287 288 290 292 294 293 292 291 291 291 289 289 287 285 284 284 283 283 282 281
307 305 304 302 301 300 299 300 301 303 304 304 302 301 300 297 292 289 288 288 288 288 289 289 288 288 291 292 292 291 291 290 289 289 288 287 285 284 284 283 281 280 279
303 302 301 300 299 298 297 297 298 299 299 299 298 296 295 294 292 290 288 288 288 288 289 289 288 289 291 291 291 290 289 289 288 288 287 285 283 282 282 281 280 279 278
300 298 298 297 296 295 295 296 296 296 296 296 295 295 294 293 291 288 288 289 288 288 287 288 288 288 289 290 290 289 288 287 286 284 283 283 282 282 281 280 279 279 278
297 296 295 294 293 293 293 293 294 294 294 293 294 293 292 291 289 289 289 287 287 287 287 287 286 287 289 289 288 288 287 286 284 283 282 282 282 281 280 279 278 276 274
294 293 292 292 292 292 292 292 292 293 293 293 293 293 292 291 290 290 288 288 289 288 286 286 286 287 288 288 288 287 286 285 284 283 282 281 280 279 279 278 274 273 272
294 293 294 294 294 293 292 292 291 291 291 291 291 291 292 291 291 291 290 287 287 287 287 287 287 288 287 286 285 284 283 283 282 281 281 280 279 279 276 275 273 272 272
296 296 295 294 294 293 293 292 293 292 291 290 290 291 291 290 290 290 289 288 288 287 287 288 288 288 287 285 284 283 282 282 282 280 279 279 278 275 274 274 273 272 271
294 294 294 294 293 293 293 292 292 291 291 291 290 289 289 289 289 289 289 289 289 288 288 287 286 285 284 283 283 282 281 281 280 279 278 276 274 273 273 273 272 271 270
290 290 290 290 290 290 290 290 290 289 289 289 288 288 288 288 288 288 288 287 286 286 285 284 284 283 282 281 281 280 280 279 279 276 275 274 273 272 272 271 270 270 269
292 291 289 289 289 288 288 288 288 287 287 287 286 286 286 285 285 284 284 284 283 283 282 282 281 281 280 280 279 279 278 276 274 274 273 273 272 271 271 270 269 269 268
288 288 288 288 288 287 287 287 287 287 286 286 286 285 285 284 283 283 282 282 281 281 281 280 280 279 279 278 276 275 274 273 273 273 272 271 271 270 270 269 268 268 268
287 287 287 287 287 287 286 286 286 285 285 285 284 284 283 282 282 281 281 280 280 280 279 279 278 276 275 274 273 273 273 273 272 271 271 270 270 269 269 269 268 267 267
286 286 286 286 286 285 285 285 284 284 283 283 282 282 281 281 280 280 279 279 278 277 276 275 274 273 273 272 272 272 272 271 270 270 270 269 269 268 268 268 267 267 267
285 285 284 284 283 283 283 282 282 281 281 280 280 279 279 278 277 277 276 275 274 274 273 273 272 272 272 272 272 271 270 269 269 269 268 268 268 267 267 267 267 267 266
282 282 281 281 281 280 279 279 279 278 278 278 277 276 276 275 275 274 274 274 274 273 273 272 272 271 271 270 270 269 269 268 268 268 268 267 267 266 266 266 266 266 266
279 278 278 277 277 277 277 277 277 276 276 276 275 275 275 274 274 273 273 272 272 271 270 270 270 269 269 269 268 268 268 268 268 267 267 267 267 266 266 266 265 265 264

GFSGL_850_thetae_072.txt.gz
Theta_e
314 313 314 314 313 312 311 311 311 311 310 309 310 311 318 318 319 319 320 320 318 318 317 314 311 308 305 303 300 293 292 291 292 296 294 290 288 287 287 287 287 287 287
315 314 315 315 314 313 312 311 311 310 310 309 310 311 313 316 317 318 319 318 318 317 315 315 311 305 302 300 296 292 291 291 297 293 291 292 288 288 288 287 287 287 287
315 315 314 315 315 315 314 312 311 310 309 308 309 311 310 315 316 317 316 317 317 316 315 313 309 306 301 296 291 291 290 296 295 294 294 290 287 288 287 287 287 287 287
313 314 314 315 314 314 314 312 311 309 308 308 309 310 311 314 315 315 316 316 314 312 310 307 304 305 301 292 290 290 294 297 296 297 291 290 289 288 287 287 287 287 287
312 313 314 314 314 313 312 312 311 309 307 307 308 310 312 313 314 314 314 313 310 307 306 301 300 298 292 290 290 293 298 297 298 294 290 290 289 287 287 287 287 286 287
312 312 312 312 312 313 311 310 310 309 307 307 309 309 309 312 312 313 312 311 308 304 302 298 296 290 288 288 294 297 297 297 295 293 292 290 288 287 287 287 286 286 285
311 311 311 310 309 309 309 309 308 308 307 307 309 309 309 311 312 312 311 309 305 302 297 293 291 288 288 289 293 297 296 295 295 294 291 288 288 287 287 286 285 285 285
311 312 311 310 308 307 306 306 306 305 306 306 308 309 308 309 310 309 308 306 302 297 291 291 289 289 289 290 294 295 295 295 295 294 288 287 287 288 285 286 285 284 285
310 310 310 309 307 306 305 304 303 303 304 305 307 307 307 308 308 307 307 303 298 290 289 289 290 287 289 292 294 294 294 294 293 291 287 288 289 288 288 285 284 283 283
309 309 307 306 305 304 302 301 301 301 302 303 304 305 305 305 303 302 301 296 294 290 288 288 288 288 289 292 292 292 293 293 292 291 290 290 289 288 287 284 283 283 283
307 307 306 304 303 301 299 298 298 298 298 301 302 302 302 301 299 298 295 294 293 292 289 287 288 288 289 290 291 291 292 291 291 290 289 289 289 288 286 284 283 283 282
304 303 303 302 300 299 298 297 296 295 297 297 298 298 297 297 297 295 294 292 290 290 288 288 287 287 288 289 289 289 290 290 289 289 288 288 288 286 285 283 282 281 281
301 300 299 298 297 297 296 295 295 294 295 295 295 295 294 293 292 289 287 287 287 288 287 287 287 288 288 288 288 290 290 289 288 287 287 286 285 284 283 282 281 280 280
299 297 296 295 294 294 294 294 294 294 294 294 293 292 292 291 289 287 286 287 287 288 287 286 287 287 287 286 287 288 288 288 287 286 285 284 283 282 282 281 280 280 279
295 295 294 293 293 293 292 292 292 292 292 292 292 291 291 291 290 289 287 287 287 288 287 287 286 286 287 288 287 287 287 287 286 285 284 283 282 282 281 280 279 278 275
293 293 292 293 293 293 293 292 291 291 292 292 292 292 291 291 291 290 289 289 289 288 287 287 287 287 286 286 287 287 286 285 284 283 282 282 281 280 280 279 278 275 273
295 294 294 294 293 293 293 294 294 292 292 291 291 291 291 291 290 290 289 289 288 288 288 287 287 287 286 286 286 285 283 282 282 282 281 280 280 279 279 277 274 274 273
293 292 293 292 292 291 291 291 291 291 291 291 290 290 290 290 289 289 289 288 287 286 286 286 285 285 285 284 283 283 283 282 281 280 280 279 279 278 275 274 273 273 272
291 291 291 291 291 291 291 291 290 290 290 289 289 289 289 289 288 288 288 287 286 285 285 285 284 284 283 283 282 281 281 280 280 279 279 278 276 274 273 273 272 272 271
290 290 290 290 290 289 289 289 288 288 288 287 287 286 286 286 285 285 285 284 284 284 283 283 282 282 281 281 280 280 279 278 278 277 276 274 273 273 272 271 271 270 270
289 288 287 288 288 287 287 287 287 286 286 286 285 285 284 284 284 284 283 283 283 282 282 281 281 281 280 280 279 278 277 276 275 274 273 273 273 272 271 270 270 270 269
287 287 287 286 286 286 286 286 285 285 285 284 284 284 283 283 283 283 282 282 282 281 280 280 279 279 278 277 276 275 274 274 273 273 272 272 271 270 270 269 269 268 268
286 286 285 285 285 285 285 284 284 284 283 283 283 282 282 282 281 281 280 280 279 278 278 277 276 276 275 274 273 273 272 272 272 271 270 270 269 269 268 268 268 268 268
283 283 283 283 283 283 283 282 282 281 281 281 280 279 279 278 278 277 277 276 276 275 275 274 274 273 273 272 272 272 271 271 270 270 269 269 268 268 268 267 267 267 267
281 281 281 281 280 280 279 279 279 278 278 278 277 277 277 276 276 275 275 274 274 273 273 273 272 271 271 271 270 270 269 269 268 268 268 267 267 267 266 266 266 266 266
279 278 278 278 278 278 278 277 277 277 276 275 275 274 274 274 273 273 273 272 272 272 271 271 270 270 269 269 269 268 268 268 267 267 267 267 267 266 266 266 266 265 265

GFSGL_850_thetae_075.txt.gz
Theta_e
314 314 314 314 313 313 313 313 312 312 312 311 311 311 311 311 313 313 316 317 317 318 319 319 318 316 317 315 310 304 299 300 293 292 293 291 293 291 289 288 287 287 287
315 314 315 315 315 314 314 314 313 312 312 312 311 311 310 310 311 312 314 316 317 317 316 317 317 316 316 314 307 304 303 295 291 292 292 293 294 290 289 288 287 287 287
314 314 314 314 315 315 314 314 313 312 312 311 311 310 309 309 311 312 312 316 316 316 316 314 316 316 315 313 308 304 299 292 291 292 295 295 292 291 288 287 287 287 287
314 313 313 314 313 314 313 312 312 311 311 311 310 309 308 308 310 312 310 313 313 315 315 314 313 313 310 307 303 300 294 292 292 294 293 294 294 289 287 288 287 287 287
312 312 312 312 312 311 311 312 312 310 310 309 308 308 307 307 309 311 311 313 313 314 314 310 309 307 305 303 301 295 295 291 293 293 293 294 291 290 289 289 288 287 287
313 312 312 311 310 310 310 310 310 310 309 308 307 306 306 306 307 309 309 311 312 313 312 310 308 305 302 300 298 294 292 293 294 296 295 293 291 289 289 288 288 286 286
311 311 311 311 311 310 309 308 308 308 307 307 306 305 305 306 307 308 309 310 310 310 309 307 304 302 299 297 291 289 293 293 296 295 292 293 291 293 287 287 286 287 287
312 312 311 311 312 311 310 307 305 305 305 305 304 304 303 306 307 307 308 308 307 305 304 303 299 298 297 294 288 292 293 295 294 295 295 294 294 288 287 288 288 289 287
309 309 309 309 310 309 309 308 306 303 302 302 302 302 302 305 305 305 305 305 303 302 299 297 295 294 293 290 290 293 294 294 294 294 294 293 292 291 289 287 288 287 285
307 307 308 308 307 307 307 305 303 302 301 300 299 299 301 302 302 302 300 301 299 298 296 293 290 290 288 289 292 292 293 293 293 293 291 291 291 289 287 287 287 286 284
305 305 305 305 304 303 304 302 302 300 298 297 297 299 300 301 300 300 297 297 295 293 291 289 289 288 287 288 291 292 292 292 291 290 290 290 289 288 287 287 286 285 284
303 302 302 302 301 301 300 300 299 298 295 296 297 298 298 298 298 297 294 294 292 290 289 288 289 287 287 290 291 291 290 290 290 290 290 289 289 288 287 286 285 284 283
301 301 299 298 298 298 297 297 297 295 295 295 295 295 295 295 293 291 288 288 287 287 287 288 288 287 287 289 290 290 289 289 289 289 289 288 287 286 285 284 283 282 282
298 298 297 296 294 294 294 294 294 293 294 294 295 294 293 293 291 290 287 287 286 286 287 287 287 287 287 287 288 288 288 288 288 288 287 287 286 285 284 283 282 281 280
294 294 294 293 293 292 292 292 292 292 292 292 292 292 292 292 291 289 287 287 287 287 287 287 287 287 287 287 287 288 287 287 287 287 286 285 284 284 283 282 281 280 280
291 291 292 292 292 291 292 291 291 290 291 292 292 292 292 292 291 289 288 287 287 288 287 287 287 287 287 287 287 287 287 286 286 285 285 284 283 282 282 281 280 279 278
291 290 290 291 291 290 290 291 291 290 289 289 290 290 291 291 290 289 288 287 287 287 287 287 287 287 287 286 286 286 286 285 284 283 283 282 281 280 280 280 279 278 277
289 289 289 288 289 288 289 288 288 289 289 288 287 289 289 289 289 288 287 287 286 286 286 286 286 286 286 285 285 285 284 283 282 282 281 281 280 280 279 278 277 275 273
290 289 289 289 289 289 289 289 289 289 289 289 289 289 289 288 288 288 287 287 287 286 286 286 285 285 285 284 283 283 282 282 281 281 280 280 279 278 277 276 273 273 272
290 290 290 290 289 289 289 289 288 288 287 286 286 286 286 286 286 286 286 286 285 285 285 284 283 283 282 282 282 281 281 280 280 279 278 278 277 275 273 272 272 272 271
290 289 289 289 288 288 288 287 287 286 285 285 285 285 285 284 284 284 284 283 283 283 282 282 281 281 280 280 279 279 279 278 277 276 275 274 273 272 272 272 271 271 270
288 287 287 288 288 287 286 285 285 285 284 284 284 284 283 283 282 282 282 282 281 281 280 280 279 279 278 277 277 276 275 274 273 273 272 272 272 272 271 270 270 269 269
285 287 287 287 286 285 285 284 283 283 283 282 282 282 281 281 280 280 279 279 278 278 277 277 276 276 275 274 274 274 273 273 272 272 272 272 271 270 269 269 269 268 268
284 285 285 285 284 283 282 282 282 281 281 280 279 279 278 278 277 277 277 276 276 276 275 275 275 274 274 274 273 273 272 272 271 271 270 270 269 268 268 268 267 267 267
282 282 282 282 281 280 279 279 279 278 278 277 277 276 276 276 275 275 275 274 274 273 273 272 272 272 271 271 270 270 270 269 269 269 268 267 267 267 266 266 266 266 266
278 278 278 278 278 278 277 277 277 276 276 275 275 275 275 274 274 273 273 272 271 271 271 270 270 270 269 269 269 268 268 268 267 267 267 266 266 266 266 266 266 266 265

GFSGL_850_thetae_078.txt.gz
Theta_e
315 315 314 314 314 314 314 314 314 313 313 312 312 312 312 312 312 313 313 311 311 313 315 316 315 314 314 316 317 315 309 308 305 305 300 295 294 300 292 288 287 287 286
314 314 313 314 314 314 314 314 313 313 313 312 312 311 311 311 311 311 311 310 309 312 314 314 314 313 314 315 313 314 312 309 304 300 296 298 297 291 291 289 288 287 286
313 313 313 313 313 313 314 312 312 312 311 311 311 311 311 311 311 310 310 309 308 311 311 312 313 314 315 312 313 310 306 304 303 296 296 297 295 295 289 288 287 287 286
314 313 313 313 312 313 312 312 311 311 311 311 311 310 310 310 310 309 308 308 308 311 311 311 312 312 314 312 312 310 306 302 299 296 294 291 293 290 290 288 288 287 287
313 313 312 312 312 312 311 311 311 310 310 310 310 309 309 309 309 308 307 306 308 311 309 310 311 312 312 311 308 306 303 301 298 295 291 293 292 290 291 291 289 288 288
312 312 312 311 311 311 311 310 310 310 310 309 309 308 308 308 307 306 305 305 306 307 307 310 309 309 310 307 304 302 301 300 298 294 293 293 292 292 291 291 289 288 287
310 310 310 311 311 311 311 311 310 309 308 308 307 306 306 306 305 304 304 304 306 307 307 308 307 306 305 302 300 299 298 297 294 293 292 289 293 292 290 289 288 288 287
308 307 307 307 308 308 309 309 310 309 308 307 306 305 304 304 304 303 303 304 306 306 307 306 305 304 301 299 298 296 295 293 292 291 288 292 294 293 292 292 290 288 287
307 307 307 307 307 307 307 307 307 308 307 305 303 303 302 301 301 301 303 304 305 305 305 303 301 299 297 296 295 294 292 291 291 291 293 293 293 293 293 291 288 287 287
306 306 306 305 305 306 306 305 305 304 304 304 303 299 299 299 299 301 302 303 302 303 302 300 298 295 293 293 293 292 291 292 292 292 291 291 291 292 291 290 288 287 286
305 305 304 303 303 302 303 303 302 302 301 297 297 297 297 297 298 300 300 300 300 299 297 295 294 292 291 291 291 291 292 292 292 291 291 290 290 290 289 288 287 286 286
303 303 302 301 300 300 300 299 299 300 299 296 294 295 296 296 297 298 298 298 296 294 292 291 290 290 289 289 289 290 291 292 290 289 290 290 290 289 289 288 287 286 285
301 301 301 298 297 297 297 297 297 297 296 294 294 294 295 295 294 293 291 293 289 289 290 289 288 288 288 288 289 290 291 289 290 290 289 289 289 288 287 286 286 285 284
299 299 299 297 294 294 294 294 295 293 293 293 293 293 293 293 291 291 290 289 288 287 287 287 287 287 287 288 288 289 289 289 289 289 289 288 287 287 286 285 285 284 283
297 296 295 294 293 292 291 293 293 292 291 293 292 292 291 290 290 288 288 288 287 287 287 286 286 287 287 287 288 289 288 288 288 288 287 287 286 286 285 284 284 283 282
295 293 293 293 292 291 291 289 290 289 290 289 289 290 290 290 289 287 287 287 287 287 287 286 286 286 287 287 287 288 288 287 287 287 286 286 285 284 283 283 282 281 281
293 293 292 290 289 288 287 288 288 288 288 289 289 289 290 291 290 288 287 287 287 286 287 287 287 287 287 287 287 286 286 286 286 286 285 284 283 282 281 281 281 280 279
291 291 290 289 288 287 287 287 288 288 289 289 290 289 289 289 289 288 287 287 287 286 286 286 286 286 286 286 286 286 285 285 285 284 283 282 282 281 280 280 279 278 277
289 289 289 288 288 288 288 288 287 288 289 289 289 288 289 289 288 287 286 286 286 286 286 286 286 285 285 284 284 284 283 283 283 282 282 281 280 279 279 278 277 276 276
287 288 288 288 288 288 288 288 288 288 288 288 287 287 288 287 287 286 286 286 286 285 285 285 284 284 283 282 282 282 282 281 281 280 279 279 278 278 277 276 275 273 272
287 287 287 288 288 288 288 287 287 287 287 286 285 285 285 284 284 284 284 284 283 283 283 282 282 282 282 281 281 280 280 279 279 278 278 277 276 275 273 272 272 271 271
286 286 287 287 288 287 286 286 286 286 285 285 284 284 283 283 283 283 283 282 282 282 281 281 280 279 279 278 277 277 276 276 275 275 275 274 273 272 272 271 271 271 270
285 285 286 286 286 286 285 285 285 284 284 283 283 282 282 281 280 280 279 279 279 278 278 277 277 276 276 276 275 275 274 274 273 273 273 272 272 271 271 270 269 269 268
283 284 284 283 283 284 284 284 283 282 282 281 280 279 278 278 278 278 277 277 276 276 276 275 274 274 274 273 273 273 272 272 272 271 271 271 270 269 269 269 268 268 267
282 282 281 281 281 281 281 281 280 279 278 278 278 277 277 276 276 275 275 275 274 274 273 273 272 272 272 271 271 271 271 270 270 269 269 268 268 268 268 267 267 266 266
279 279 279 280 279 278 277 277 277 277 276 276 275 275 275 274 274 273 273 273 272 272 271 271 270 270 269 269 269 269 269 268 268 268 268 267 267 267 266 266 266 266 265

GFSGL_850_thetae_081.txt.gz
Theta_e
314 313 313 313 313 314 314 313 313 312 312 312 312 312 312 312 313 313 313 313 313 313 311 312 312 312 312 312 313 312 313 312 308 306 305 305 305 303 302 296 294 290 287
313 313 313 313 313 313 313 313 313 313 312 312 312 312 312 312 312 312 312 312 312 312 313 310 310 310 309 311 312 311 311 311 309 304 303 303 302 301 297 296 295 293 289
313 313 313 313 313 313 312 311 312 312 312 311 311 311 311 311 311 311 310 311 311 310 309 308 307 307 309 310 310 310 310 309 307 303 301 300 299 297 294 294 293 293 291
312 312 312 312 312 312 312 311 312 311 310 310 310 309 309 310 310 309 309 310 310 309 309 308 307 307 308 308 309 309 307 306 305 301 299 298 297 296 295 295 294 292 287
312 312 311 310 311 311 311 311 311 311 310 310 309 309 309 309 309 309 309 309 309 308 306 306 306 308 307 307 307 306 304 304 302 300 298 297 295 295 295 295 293 290 288
309 309 309 309 308 308 308 309 309 310 310 310 309 308 308 308 307 307 307 307 307 305 304 305 305 307 306 307 305 303 302 301 300 300 297 296 295 295 294 291 289 288 287
309 307 307 307 308 308 308 308 308 308 308 308 309 308 308 306 305 305 305 305 305 304 303 303 304 305 305 306 305 303 301 300 298 297 298 297 294 293 293 291 288 290 290
307 307 306 306 307 307 307 307 307 306 306 306 306 305 305 305 304 304 303 303 302 302 301 303 304 304 305 305 302 300 299 298 296 295 295 294 293 294 293 292 292 291 289
303 304 306 306 306 306 306 306 306 305 304 304 305 305 304 303 301 300 300 299 299 300 302 302 302 302 303 302 299 296 295 294 292 292 292 292 292 291 292 293 291 289 287
300 302 303 304 305 305 305 305 305 305 302 301 302 302 301 300 298 298 298 298 298 299 300 301 300 299 298 296 294 293 293 292 291 292 292 291 289 291 291 290 290 289 289
298 299 301 302 302 302 303 302 302 303 301 299 299 299 298 296 296 296 297 297 298 298 296 295 295 294 293 292 291 292 292 292 291 292 290 290 290 290 290 289 289 289 288
297 297 297 299 300 300 300 300 299 298 297 297 297 296 295 294 295 296 297 296 298 295 294 294 292 291 290 290 290 290 290 290 291 290 290 290 289 289 288 288 288 287 286
296 296 296 298 299 298 298 297 297 296 295 296 293 292 294 294 294 296 295 295 291 290 290 290 289 289 288 288 288 288 289 289 290 289 289 289 288 288 288 287 287 287 286
296 295 295 297 297 296 295 295 294 293 293 293 292 291 292 293 293 292 292 290 289 288 288 288 288 287 287 288 287 288 288 289 289 289 288 288 288 287 287 287 286 286 285
296 295 295 295 295 295 295 293 292 291 291 290 291 292 291 290 291 289 289 288 288 287 287 287 286 287 287 287 287 288 288 288 288 288 288 288 287 287 287 286 285 285 284
295 294 293 293 293 293 292 290 289 288 288 289 289 289 290 289 288 287 287 287 287 287 287 287 286 287 287 287 287 287 287 287 287 287 287 287 286 286 285 284 284 283 283
293 292 291 291 290 289 288 288 287 287 287 288 289 289 290 290 288 287 287 287 287 287 287 286 286 286 287 287 287 287 287 287 287 286 286 286 285 284 283 283 282 281 281
291 291 290 290 289 288 287 287 287 287 287 288 289 290 290 288 287 287 287 286 286 286 286 286 286 286 286 286 286 286 286 286 285 285 284 284 283 282 281 280 280 279 279
289 289 289 288 288 287 287 287 287 287 288 288 288 288 289 288 288 287 287 287 287 286 286 286 286 286 285 285 285 285 285 284 284 283 283 282 281 281 280 279 279 278 277
287 287 287 287 287 287 287 287 287 287 287 287 287 288 288 287 287 287 287 286 286 286 286 285 285 285 284 284 283 283 283 282 282 281 281 281 280 280 279 278 277 276 275
286 285 286 286 286 286 286 286 286 286 286 286 286 285 286 285 286 286 286 285 285 285 284 283 283 283 282 282 282 281 281 280 280 279 279 278 278 277 276 275 273 272 271
284 284 284 285 285 286 285 286 285 285 285 285 285 285 285 284 284 283 283 283 282 282 282 281 281 280 279 279 278 278 277 277 276 276 275 275 274 273 272 271 271 270 270
282 282 283 284 285 285 285 285 284 283 283 284 284 283 282 282 282 281 280 280 279 279 278 278 277 277 277 276 275 275 275 275 274 274 274 273 272 271 271 270 270 270 270
280 281 281 282 283 283 283 283 282 282 282 282 282 281 280 279 278 278 277 277 277 276 276 276 275 275 274 274 273 273 272 272 272 272 271 271 270 270 270 269 269 268 268
279 279 280 280 280 281 281 281 280 280 280 279 278 278 277 277 277 276 276 275 275 274 274 273 273 272 272 271 271 270 270 270 270 269 269 269 269 268 268 267 267 267 266
277 277 278 278 279 279 279 279 279 277 277 276 276 276 276 276 275 275 274 273 273 272 271 271 271 270 270 270 269 269 269 269 268 268 268 268 268 267 267 267 266 266 265

GFSGL_850_thetae_084.txt.gz
Theta_e
313 313 313 312 312 312 312 312 312 312 312 312 311 311 311 311 311 312 312 313 313 314 314 313 313 312 310 310 310 310 309 308 308 309 308 307 307 307 307 306 305 304 300
313 313 313 313 313 313 312 312 311 311 311 311 312 311 311 310 310 310 311 311 312 312 312 312 312 310 310 310 308 308 307 307 307 308 307 305 304 304 303 303 301 300 297
311 311 312 312 312 312 312 312 312 312 311 311 311 311 311 310 309 309 309 310 310 310 310 310 309 310 308 307 306 306 305 306 307 306 306 304 303 302 301 300 299 297 294
309 308 308 308 308 309 309 309 310 311 311 311 311 311 310 309 309 308 308 308 308 308 308 308 308 308 306 305 304 305 306 306 305 305 304 303 301 300 298 297 295 293 293
307 307 308 307 307 306 307 308 308 308 309 308 309 309 310 309 309 308 307 307 307 307 307 308 306 305 305 304 304 305 304 304 303 303 302 301 300 298 297 296 294 293 291
305 305 306 307 307 307 307 306 307 307 307 308 308 308 308 308 308 308 308 307 306 305 305 306 305 303 303 302 303 304 303 303 302 301 300 299 299 298 295 294 292 290 287
301 301 301 301 301 302 304 306 306 306 306 307 307 306 306 306 306 306 305 305 305 303 304 303 303 302 302 302 303 303 303 303 303 300 297 297 296 297 296 293 292 291 290
300 299 299 299 299 299 300 302 303 304 304 304 305 305 305 304 304 303 303 302 301 302 301 300 300 300 301 301 302 302 301 300 299 295 294 294 293 293 293 293 292 290 288
299 298 298 298 298 298 297 298 299 300 301 302 301 302 302 302 302 302 299 298 299 299 298 298 298 299 300 300 299 299 298 296 295 294 292 292 291 291 292 292 291 290 288
298 298 298 298 297 297 296 297 298 299 299 300 300 299 299 299 299 298 296 296 296 296 296 297 298 298 297 298 298 297 295 293 292 291 291 290 290 290 290 291 291 290 290
297 297 297 297 296 296 295 296 298 299 298 298 298 297 296 297 297 295 294 294 295 295 295 295 295 294 294 293 291 292 291 290 290 289 289 289 289 289 290 290 290 290 290
295 296 296 296 296 295 295 295 297 297 297 297 296 296 296 294 293 294 294 295 294 294 292 292 292 292 292 290 290 290 289 288 289 289 289 289 290 290 290 289 289 288 287
295 296 296 295 295 295 295 295 296 296 295 295 294 294 294 293 293 293 294 295 292 290 289 289 289 289 289 289 288 288 287 288 288 289 290 290 289 289 288 288 288 287 286
296 295 294 294 295 295 294 294 294 294 293 292 292 291 291 291 291 291 291 290 289 288 288 288 288 287 287 287 287 287 288 289 289 289 289 288 288 288 287 287 286 286 285
295 294 294 294 293 293 293 293 293 292 290 290 290 289 289 290 289 288 288 287 287 287 286 286 287 287 287 287 287 287 288 288 288 288 287 287 287 286 286 286 285 285 284
292 293 293 293 292 292 292 292 290 289 288 288 288 288 289 289 287 287 287 287 287 287 286 286 286 287 287 287 287 287 287 287 287 287 286 286 286 286 285 285 284 284 283
291 292 292 292 291 290 290 289 288 287 287 287 288 289 288 288 287 287 287 287 287 287 287 286 286 286 286 286 286 287 287 286 286 286 286 286 285 284 284 283 283 282 282
290 290 290 290 289 289 288 287 287 286 286 286 287 287 286 286 287 287 287 287 286 286 286 286 286 286 286 286 286 286 286 286 286 285 285 284 283 283 282 282 281 280 279
288 289 289 288 288 288 287 286 286 286 286 286 287 287 287 287 287 287 287 287 286 286 286 286 285 285 285 285 285 285 285 284 284 283 283 282 282 281 281 280 279 278 278
287 287 287 287 287 286 286 286 286 286 286 286 287 287 287 287 287 287 286 286 286 286 285 285 285 284 284 283 283 282 282 282 281 281 281 280 280 279 279 278 278 277 276
285 285 285 285 285 285 285 285 285 285 285 286 285 286 286 285 286 286 286 285 285 285 284 283 282 282 282 281 280 280 279 279 278 278 278 277 277 276 276 275 274 273 273
282 282 283 283 284 284 284 284 284 284 284 284 284 284 284 283 284 284 283 283 283 282 281 280 280 279 278 278 278 277 277 276 276 276 275 275 274 274 273 273 272 271 271
280 281 281 282 282 282 282 283 283 283 283 283 283 282 282 282 282 281 280 280 279 278 278 278 278 277 277 276 276 275 275 274 274 273 273 272 272 272 271 271 271 270 270
279 279 279 280 280 281 281 281 281 281 281 281 281 281 281 281 279 278 278 278 277 277 277 276 276 275 274 274 273 273 272 272 271 271 271 270 270 270 270 269 269 269 268
277 277 278 278 279 279 280 279 280 279 279 279 280 280 278 277 277 277 277 276 276 275 275 274 273 273 272 272 271 271 270 270 269 269 269 269 269 269 269 268 268 268 267
275 275 276 276 277 277 277 278 278 278 278 278 278 276 276 276 276 275 275 274 274 273 273 272 272 272 271 271 271 270 270 270 270 270 270 269 269 268 268 267 267 267 267

GFSGL_850_thetae_087.txt.gz
Theta_e
312 312 313 313 313 313 313 312 312 312 312 312 311 311 310 310 310 310 310 311 311 312 312 312 312 313 313 313 312 311 310 309 309 309 308 307 306 306 307 307 307 306 306
308 308 308 308 308 308 310 310 310 311 311 311 311 311 311 311 310 310 310 309 309 310 310 311 311 311 312 311 309 309 309 308 308 307 306 305 305 306 305 305 306 304 303
307 306 305 306 306 307 308 308 308 309 309 309 309 309 309 308 309 309 310 310 309 308 308 308 309 309 310 310 307 307 307 307 306 306 305 304 305 304 304 304 303 301 300
304 303 304 304 304 304 305 307 307 307 307 307 308 308 308 308 308 308 308 308 308 308 308 307 307 306 306 306 307 306 306 305 304 303 303 304 303 303 302 302 300 299 298
301 301 300 300 300 300 300 300 301 302 304 305 305 306 306 306 306 306 306 307 307 307 306 306 306 304 305 305 305 304 304 303 303 303 302 302 301 301 302 301 298 296 294
300 300 300 300 299 299 299 298 298 298 298 299 300 302 304 304 304 304 304 304 305 305 305 304 303 303 303 303 303 302 302 302 302 301 301 300 300 299 298 297 294 292 289
300 300 300 300 299 299 299 298 298 298 298 297 297 298 298 300 301 302 302 302 302 302 301 301 301 301 301 300 300 300 301 301 301 300 299 298 297 296 295 294 293 291 290
298 298 297 297 297 297 297 297 297 297 297 297 297 297 298 299 299 300 301 301 300 299 297 298 299 299 298 298 298 299 300 300 300 299 298 297 295 294 293 292 290 289 287
296 296 296 296 296 296 296 296 296 297 296 296 296 297 298 298 298 299 299 299 299 298 296 296 296 297 297 297 297 298 298 298 297 297 295 294 292 292 291 290 289 287 287
295 295 295 295 295 295 296 296 296 295 295 295 295 296 297 298 297 297 297 297 297 295 295 296 296 296 296 296 296 295 295 295 293 292 292 292 291 291 291 290 290 289 289
295 295 295 295 295 296 295 294 294 295 295 295 295 296 296 296 296 295 294 294 294 294 295 295 295 295 296 295 293 292 291 290 290 289 290 290 290 290 289 288 289 290 290
294 294 295 295 295 295 294 294 294 294 294 294 295 295 294 293 293 293 293 293 293 293 293 292 291 291 292 291 290 289 288 288 288 288 288 288 289 288 288 288 288 289 289
294 293 294 295 295 294 293 294 294 293 294 294 293 293 293 292 291 291 291 291 290 290 289 289 289 289 288 288 288 288 288 287 287 287 288 288 288 288 288 289 289 289 288
294 293 293 293 292 292 293 293 293 293 293 292 291 291 291 290 290 289 289 288 288 288 288 288 287 287 287 287 287 287 287 287 287 287 288 288 288 288 288 288 287 287 286
292 291 291 291 291 291 292 292 292 292 291 289 288 288 289 290 288 287 287 287 287 287 287 286 287 287 287 287 287 287 287 287 288 288 288 288 287 287 287 286 286 286 285
292 291 290 290 290 291 291 292 291 290 289 288 287 287 289 288 287 286 286 287 286 286 286 286 287 287 287 287 287 287 287 287 287 287 287 286 286 286 285 285 285 284 283
290 290 290 289 289 290 290 290 290 289 288 287 286 287 287 287 286 286 286 286 286 286 286 286 286 286 286 286 286 286 287 286 286 286 286 285 285 284 284 283 283 283 282
287 287 288 288 288 288 288 288 288 288 287 286 285 286 286 287 286 286 286 286 286 286 286 286 286 286 286 286 286 286 285 285 285 284 284 284 283 283 282 282 282 281 280
286 286 286 287 287 286 286 286 286 286 286 285 285 286 286 286 286 286 286 286 286 286 285 285 285 285 285 285 284 284 283 283 283 282 282 282 281 281 281 280 280 279 279
285 285 284 285 285 285 285 285 285 285 285 285 285 286 286 286 286 286 286 286 285 285 284 284 284 284 283 282 282 282 281 280 280 279 279 279 278 278 278 277 277 276 276
283 282 282 282 283 283 283 284 284 283 284 284 284 285 286 285 285 285 285 284 284 284 283 282 282 281 280 279 278 278 278 278 277 277 276 276 276 275 275 274 274 273 273
280 280 280 281 281 282 283 283 282 282 283 283 283 284 284 283 284 283 283 283 282 281 280 279 278 278 278 277 277 277 276 276 275 275 275 274 274 273 273 273 273 272 272
278 278 279 279 280 281 281 281 281 281 282 282 282 282 282 282 282 282 281 280 278 278 278 277 277 277 276 276 275 275 274 274 273 273 272 272 272 272 271 271 271 271 270
277 277 277 278 278 279 279 279 280 280 280 281 281 280 280 280 281 279 277 277 277 276 276 276 276 275 275 274 273 273 272 272 272 272 272 272 271 270 270 270 269 269 269
275 275 275 276 276 277 277 277 278 278 278 279 279 279 279 279 278 276 276 276 275 275 275 274 274 273 273 273 272 272 272 272 272 272 271 271 270 270 269 269 268 268 268
273 274 274 274 274 275 275 275 276 276 276 277 277 277 277 276 275 275 275 274 274 274 273 273 272 272 272 272 272 272 272 271 271 271 271 270 270 270 269 269 268 268 267

GFSGL_850_thetae_090.txt.gz
Theta_e
309 308 308 308 307 308 308 308 309 309 309 309 309 309 309 309 310 310 310 310 309 309 309 309 309 310 310 312 312 311 311 311 310 311 309 309 309 308 307 306 305 305 306
306 306 305 305 305 306 306 306 307 307 308 308 308 308 308 308 308 308 308 308 308 309 309 308 308 308 308 308 309 310 309 309 308 307 308 308 307 307 306 305 304 305 305
303 303 303 303 303 303 302 301 301 301 301 302 303 305 306 306 307 307 306 306 306 306 306 306 307 306 305 307 308 308 306 307 306 306 308 307 306 305 304 304 304 304 303
302 301 301 301 301 301 300 300 300 299 299 298 298 299 299 300 302 303 305 305 305 305 304 304 305 305 304 303 305 304 304 305 306 306 306 305 305 304 303 303 303 303 302
300 300 300 300 300 299 299 299 298 298 297 297 297 298 298 298 298 298 298 299 300 302 303 303 303 303 301 301 302 303 302 302 303 303 303 302 302 303 302 302 301 300 298
299 299 298 297 297 296 296 296 296 296 296 296 296 296 297 297 297 297 297 298 298 299 300 301 301 301 300 301 301 302 301 301 300 300 300 300 300 300 300 299 298 296 295
297 296 295 295 295 295 295 295 295 296 296 296 296 296 296 296 296 296 297 298 298 299 299 299 299 298 297 298 299 299 299 299 299 299 298 299 298 297 297 296 295 294 293
295 295 295 295 295 295 295 295 295 295 295 295 295 295 295 295 295 295 296 297 298 298 298 297 297 296 295 295 296 297 297 297 298 298 298 298 296 295 295 294 293 291 290
295 295 295 295 295 295 295 295 295 295 295 295 295 294 295 295 295 295 296 296 296 297 296 296 295 295 295 295 295 295 296 296 297 296 294 294 294 293 293 292 291 290 287
295 295 295 295 294 294 295 295 295 295 294 294 294 294 295 295 295 295 295 295 295 296 295 294 294 294 295 294 293 292 292 292 292 292 292 292 291 291 291 290 289 288 286
295 294 294 294 294 293 294 295 295 294 293 293 294 294 294 294 295 294 294 294 293 293 293 293 293 292 292 291 290 290 289 289 289 289 289 289 289 289 288 287 287 286 286
294 294 294 294 294 294 293 293 293 292 292 292 293 294 294 293 293 293 292 292 291 291 291 290 289 289 289 289 289 288 288 288 288 287 288 288 288 287 287 287 286 286 287
294 294 293 293 292 292 292 291 291 291 292 292 292 292 293 292 292 291 291 290 290 289 288 288 288 288 288 287 288 288 287 287 286 287 287 287 287 288 287 287 287 287 287
293 293 293 293 293 292 291 290 290 291 291 291 291 291 291 290 290 290 289 288 287 287 287 287 287 287 287 287 287 287 287 287 286 287 287 287 287 287 287 287 287 286 286
290 290 290 290 291 291 291 290 290 290 290 290 289 288 288 289 289 288 287 287 287 287 287 287 287 287 287 287 287 287 287 287 287 287 287 287 287 287 286 286 286 285 285
288 288 288 288 288 288 289 289 289 289 289 289 288 287 287 287 288 287 286 286 287 286 286 286 287 286 286 286 286 287 287 287 287 287 287 286 286 286 285 285 285 285 284
288 288 287 287 287 287 287 287 288 289 288 288 287 286 286 286 287 286 285 286 286 286 286 286 286 286 286 286 286 286 287 287 286 286 286 285 285 285 284 284 284 283 283
288 287 287 286 286 287 286 286 286 286 287 287 286 285 285 285 286 286 286 286 286 286 286 286 286 285 285 285 285 285 285 285 285 285 284 284 284 283 283 282 282 282 281
287 287 287 287 286 286 285 285 285 285 285 285 285 285 285 285 286 286 286 286 286 286 285 285 285 285 285 285 284 283 283 283 282 282 281 281 281 281 280 280 280 279 279
285 285 284 284 285 284 284 283 283 283 283 284 284 284 285 285 285 286 286 286 285 285 285 284 284 284 283 282 281 281 280 279 279 278 278 278 277 277 277 276 276 276 276
284 284 283 283 282 282 282 282 282 282 282 283 283 283 284 284 284 285 285 285 284 284 284 283 282 281 280 279 278 278 278 277 277 276 276 275 275 275 274 274 274 273 273
282 281 281 280 280 281 280 281 281 281 281 281 281 282 282 283 283 283 283 283 283 283 282 280 279 278 278 277 277 277 276 276 275 274 274 274 273 273 273 272 272 272 272
280 279 279 279 279 279 279 279 279 279 279 280 280 280 281 281 281 282 281 281 281 279 278 277 277 277 276 276 276 275 274 274 273 273 273 272 272 272 272 271 271 271 271
278 277 277 277 277 277 277 277 277 277 277 278 278 279 279 279 279 280 280 279 277 277 276 276 276 275 275 275 274 274 273 273 272 272 272 272 272 272 271 271 271 270 270
276 275 275 275 275 275 275 275 275 275 276 276 276 277 277 277 277 278 278 276 275 275 275 275 275 274 274 273 273 272 272 272 272 272 272 272 271 271 271 270 270 270 269
274 274 273 273 273 273 274 274 274 274 274 275 275 275 275 275 276 276 275 274 274 274 274 274 275 273 273 272 272 272 272 272 272 272 271 271 271 270 270 270 269 269 269

GFSGL_850_thetae_093.txt.gz
Theta_e
308 308 307 307 306 306 306 306 306 306 306 306 305 305 305 306 306 306 307 307 307 306 306 306 306 307 307 307 308 309 308 309 309 309 309 309 308 308 307 307 307 307 306
305 305 304 304 303 303 302 302 302 301 301 301 301 300 299 299 299 300 300 301 301 302 303 304 304 304 304 304 304 306 306 306 307 307 307 306 306 306 305 305 305 305 305
302 302 302 301 301 301 301 300 300 299 299 299 298 297 297 297 297 297 297 298 298 298 298 298 299 300 301 302 302 302 303 304 303 304 305 305 304 304 305 304 304 304 304
301 300 300 299 299 298 297 297 296 296 296 296 296 296 296 296 296 296 296 296 296 297 297 297 298 298 299 300 300 299 300 300 301 301 302 302 303 302 303 303 303 302 302
299 299 298 296 296 296 295 295 295 295 295 295 295 295 295 295 295 295 295 295 296 296 296 296 296 298 298 298 297 297 298 299 300 300 299 300 300 300 300 300 300 300 300
297 296 295 295 295 295 295 295 295 295 295 295 295 295 295 295 295 295 295 295 295 295 295 296 296 297 298 298 298 296 296 297 297 297 297 297 298 298 297 297 297 297 296
296 295 296 296 296 296 295 295 295 295 295 295 295 295 295 294 294 294 294 294 295 295 295 295 295 296 296 296 296 295 295 295 295 296 295 295 295 295 294 294 294 294 295
296 296 296 295 295 295 295 295 294 295 295 295 295 295 294 294 294 294 294 295 295 295 295 295 295 295 294 294 294 294 294 294 295 295 294 294 293 293 293 293 293 293 292
296 295 295 295 295 294 294 294 294 294 294 294 294 294 293 293 294 294 294 294 294 294 294 294 294 293 293 292 292 293 293 293 292 291 291 291 291 291 290 291 291 291 289
295 295 295 294 294 294 294 294 294 294 294 293 293 292 292 292 293 293 293 294 294 294 294 294 292 292 292 290 290 289 289 289 288 289 289 289 289 290 289 288 288 288 288
295 295 294 294 294 293 293 293 293 293 293 293 292 292 292 292 292 292 293 293 292 293 293 293 291 289 289 288 288 288 288 287 288 288 288 287 287 287 286 286 286 286 286
295 294 294 293 292 292 292 293 293 293 292 292 291 291 291 291 291 292 291 291 291 291 291 289 289 288 288 287 287 287 287 287 287 287 287 286 286 286 286 286 285 286 286
294 293 292 291 290 290 290 290 291 291 291 291 291 290 291 291 291 291 291 290 290 289 288 288 287 287 287 287 287 287 287 287 286 286 287 287 286 286 286 286 286 286 286
291 290 289 289 289 288 289 289 289 289 289 289 289 289 289 290 290 290 289 289 288 288 287 287 287 287 286 286 287 287 286 286 286 286 287 286 286 286 286 286 286 285 285
288 288 288 288 288 288 289 288 289 289 288 288 288 288 288 289 288 287 287 286 286 287 287 287 287 286 286 286 286 286 287 287 287 287 287 287 286 286 286 286 285 285 285
288 288 288 288 288 289 289 289 289 289 288 288 288 287 287 286 286 286 286 285 286 286 286 286 286 286 286 286 286 287 287 287 287 286 286 286 286 285 285 285 285 284 284
288 288 288 288 288 288 288 288 288 289 288 288 287 287 287 286 285 286 286 285 286 286 286 286 286 286 286 286 286 286 286 286 286 286 286 285 285 284 284 284 283 283 283
288 288 287 287 287 286 286 286 285 286 287 287 287 286 286 285 285 285 285 286 286 286 286 286 286 286 286 285 285 285 285 285 284 284 283 283 283 283 282 282 282 281 281
287 287 286 286 286 285 285 284 284 284 284 284 285 285 285 284 284 285 285 285 285 285 286 286 285 285 285 285 284 283 282 282 281 280 280 280 279 279 279 279 279 279 278
286 286 285 285 284 284 283 283 282 282 282 282 282 282 282 283 283 284 284 284 285 285 285 285 285 285 284 283 282 280 280 279 279 278 278 277 277 277 276 276 276 275 275
285 284 284 283 283 282 282 281 280 280 280 280 279 280 281 282 282 283 283 283 284 284 284 284 284 283 282 280 279 278 278 278 277 276 276 275 275 275 274 274 274 274 273
283 283 282 282 281 281 280 279 279 279 279 278 278 279 280 280 281 282 282 282 282 282 282 282 282 280 278 278 278 277 277 276 275 275 274 274 273 273 273 273 272 272 272
282 281 280 280 279 278 278 278 277 277 277 277 277 278 278 279 279 280 280 280 280 280 281 281 278 277 277 277 276 276 275 275 274 274 273 273 273 272 272 272 272 271 271
280 279 278 277 277 277 277 277 276 276 276 276 276 276 277 277 278 278 278 278 279 279 278 277 276 276 276 275 275 275 274 274 273 273 273 272 272 272 272 271 271 271 271
278 277 276 276 275 275 275 275 275 275 275 275 275 275 275 276 276 276 276 277 277 277 276 275 274 274 274 275 275 274 273 273 272 272 272 272 271 271 271 271 271 271 270
275 275 275 274 274 274 273 274 274 274 274 274 274 274 274 274 274 275 275 275 276 276 275 275 275 276 277 276 274 273 272 272 272 272 271 271 271 271 271 270 270 270 270

GFSGL_850_thetae_096.txt.gz
Theta_e
310 309 308 307 306 305 305 303 302 301 301 301 301 300 299 298 297 297 297 297 296 296 297 297 297 297 298 298 298 299 304 305 304 304 305 307 306 306 304 305 305 305 305
306 305 304 303 302 302 301 301 299 298 298 297 296 296 296 296 296 296 296 296 296 296 296 296 296 296 296 296 297 297 297 298 301 300 300 301 302 302 301 303 302 302 303
303 302 302 301 300 299 298 297 296 296 296 296 296 296 296 295 295 295 295 295 295 295 295 295 295 295 295 295 296 296 297 297 296 297 297 298 298 299 299 300 300 301 301
301 300 300 298 297 296 296 296 296 296 296 295 295 295 295 295 295 294 294 294 294 294 294 294 294 294 295 295 295 296 296 295 294 294 295 296 297 297 298 297 298 298 298
300 299 297 296 296 296 296 296 296 295 295 295 295 295 295 294 294 294 294 294 294 294 294 294 294 294 294 294 294 295 294 294 293 294 294 294 295 295 295 295 295 295 295
298 296 296 296 297 297 297 296 296 295 295 294 294 294 294 294 294 294 293 293 294 294 293 293 293 294 294 294 294 294 293 292 293 292 293 293 293 293 293 292 292 292 292
296 296 297 297 297 296 296 295 295 294 294 294 294 294 294 294 293 293 293 292 293 293 293 293 293 293 294 294 294 293 292 291 291 291 291 291 291 291 290 290 290 290 291
296 296 297 296 296 295 295 294 294 293 293 293 293 293 293 293 293 292 292 292 292 292 293 293 293 293 293 293 292 291 290 290 289 289 289 289 288 288 288 289 289 289 290
296 296 296 295 295 295 294 293 292 292 292 292 292 292 292 292 292 292 292 291 291 292 292 292 292 292 292 290 289 289 288 288 287 287 287 288 288 288 288 289 288 288 288
296 295 295 295 294 293 292 291 291 291 291 291 291 291 291 291 292 291 291 291 291 291 291 292 292 290 289 288 287 287 287 287 287 287 287 287 287 287 287 287 287 287 286
295 295 294 294 293 291 291 290 290 289 289 289 290 290 290 289 290 291 290 290 290 290 290 290 290 288 288 287 286 286 286 286 287 287 286 286 286 286 286 285 286 286 286
295 294 293 292 291 290 289 289 289 288 288 288 289 289 289 289 289 290 289 289 289 288 289 289 288 287 287 286 286 286 286 287 286 286 286 286 286 286 286 286 286 286 286
294 292 291 290 289 288 288 288 288 288 288 289 289 289 289 289 289 289 289 289 289 288 287 287 287 287 286 286 287 286 286 286 286 286 286 286 286 285 285 285 285 285 286
291 290 289 289 288 288 288 288 289 289 289 289 289 289 289 289 289 288 288 288 287 286 286 286 287 286 285 285 286 286 285 286 286 286 286 286 286 286 286 285 285 285 285
289 289 289 289 289 289 289 289 289 288 288 288 288 287 287 288 288 287 286 286 284 285 285 286 286 286 286 286 286 286 286 287 287 286 286 286 286 285 285 285 285 285 285
289 289 288 288 288 288 288 288 288 288 287 287 287 286 287 287 287 285 284 286 285 285 285 285 286 286 286 286 286 286 286 286 286 286 286 285 285 285 284 284 284 284 283
288 288 288 288 288 288 288 287 287 288 287 286 286 286 285 286 286 284 284 285 285 285 285 285 286 286 286 286 286 286 286 286 286 285 285 284 284 283 283 283 282 282 282
288 288 288 288 287 287 287 286 286 286 286 286 285 285 284 285 284 284 284 284 284 284 285 285 285 285 285 285 285 285 285 284 283 282 281 281 281 280 280 280 280 280 280
288 287 287 287 287 286 286 285 285 285 284 285 284 284 283 283 283 282 282 283 283 284 284 284 285 285 285 285 285 284 283 281 280 280 279 279 278 278 278 277 277 277 277
287 287 287 286 286 285 285 284 284 283 283 283 282 282 282 281 281 281 282 282 282 283 283 283 284 284 284 284 283 282 280 279 279 278 278 277 277 276 276 275 275 275 275
287 286 286 285 285 284 284 283 282 281 281 280 280 280 278 279 279 280 280 281 281 281 281 282 282 282 282 282 281 279 278 278 277 277 276 276 275 275 274 274 274 273 273
286 285 285 284 284 283 282 281 280 280 279 279 279 278 278 277 278 278 279 279 280 280 280 280 280 280 281 280 278 277 277 277 276 276 275 274 274 273 273 273 273 273 273
285 284 283 283 282 281 280 279 278 278 278 278 277 277 277 277 277 277 277 278 278 278 278 278 279 279 278 276 276 276 275 275 275 275 274 274 273 273 273 272 272 272 272
283 283 282 281 280 279 278 277 277 277 277 276 276 275 275 275 276 276 276 276 276 277 277 277 277 277 276 275 275 274 274 276 275 273 273 272 272 272 272 272 272 272 271
282 281 280 279 278 277 276 276 276 275 275 275 275 274 274 274 274 274 275 275 275 275 275 276 276 276 275 274 275 277 277 275 273 272 272 271 271 271 271 271 271 271 271
280 279 278 277 276 275 275 274 274 274 273 273 273 273 273 273 273 274 274 274 274 274 274 275 275 275 275 275 275 276 276 273 271 271 271 271 271 271 271 271 270 270 270

GFSGL_850_thetae_099.txt.gz
Theta_e
310 310 310 309 307 306 305 303 302 301 300 298 297 297 296 296 296 296 296 295 295 295 295 294 294 294 294 294 294 294 295 295 296 296 295 295 296 297 297 297 297 298 298
309 307 306 305 303 302 301 300 298 297 297 296 296 296 296 296 295 295 295 295 295 294 294 294 294 294 294 294 294 294 294 294 295 296 294 294 294 293 293 294 295 295 296
305 304 302 302 301 300 298 297 296 296 296 296 296 296 295 295 295 295 294 294 294 294 294 293 293 293 293 293 293 293 293 294 292 291 293 292 292 292 292 292 292 293 294
302 301 301 300 298 296 296 296 296 297 296 296 296 295 295 294 294 294 294 293 293 293 293 293 293 293 293 293 293 293 293 292 290 290 291 291 291 291 292 292 292 291 292
301 300 298 296 296 297 297 297 297 297 296 295 294 294 294 293 293 293 293 293 292 292 292 292 292 292 292 292 292 292 292 290 289 289 290 290 290 290 291 289 289 290 291
299 298 296 296 297 297 298 297 297 296 294 294 293 293 293 293 293 292 292 292 292 292 292 291 292 292 292 292 292 292 289 288 288 288 288 290 289 289 288 288 288 288 288
297 296 296 297 297 298 297 297 296 294 293 293 292 292 292 292 291 291 291 291 292 292 291 291 291 291 291 292 292 291 289 287 287 287 287 286 287 287 287 287 287 287 288
296 296 297 297 297 297 297 296 293 292 292 291 291 291 290 290 290 290 290 290 291 291 291 291 291 291 291 291 290 289 289 286 286 286 286 287 286 286 286 286 287 287 287
296 296 297 297 297 296 295 293 292 291 291 290 290 290 289 289 289 290 290 290 290 290 290 290 290 290 290 289 288 288 287 286 286 286 286 286 286 286 286 286 286 286 286
296 297 297 297 296 295 292 291 291 290 290 289 289 289 289 289 289 289 290 290 290 289 290 290 290 289 289 288 286 286 285 286 286 286 286 286 286 286 286 285 285 286 286
297 297 297 296 295 292 291 290 290 289 289 289 289 289 288 289 289 289 289 289 289 289 289 289 289 288 287 286 286 285 285 285 287 286 286 286 286 286 286 286 286 286 286
297 296 295 294 291 290 290 289 289 289 289 289 289 289 289 289 289 289 288 288 288 288 288 287 288 287 287 285 285 286 285 286 286 286 286 286 286 286 286 285 285 285 285
296 296 294 291 290 289 289 289 289 289 289 289 288 288 288 288 288 288 288 288 287 287 286 285 285 286 285 285 285 286 286 286 286 286 286 286 286 286 285 285 284 284 284
297 294 291 290 289 289 289 289 289 288 288 288 288 288 288 288 287 287 287 287 286 285 284 285 285 285 285 284 285 286 286 286 286 286 286 286 286 285 285 285 285 285 284
294 291 290 289 289 289 288 288 288 288 288 288 287 287 287 287 287 286 285 285 284 284 284 284 285 285 286 286 286 286 286 286 286 286 286 286 285 285 285 284 284 284 284
291 289 289 289 289 288 288 288 288 287 287 287 286 286 286 286 286 286 285 283 284 284 284 284 285 285 285 285 286 286 286 286 286 285 285 285 284 284 283 282 282 282 282
290 288 289 288 288 288 288 288 287 287 286 286 286 286 285 286 285 285 285 284 283 283 283 284 284 284 285 285 285 285 285 285 285 284 283 282 281 281 280 280 280 280 280
288 288 288 288 288 288 287 287 287 286 286 286 285 285 285 284 284 283 283 283 283 283 282 283 283 283 283 284 284 284 284 284 283 282 280 280 279 279 278 278 278 278 278
288 288 288 288 287 287 287 286 286 286 286 286 285 284 284 283 283 282 281 280 281 281 282 282 282 282 282 283 283 283 283 282 281 279 278 278 278 277 277 276 276 276 276
288 287 287 287 287 286 286 286 286 285 285 285 284 283 283 282 282 281 281 281 280 280 281 281 281 280 280 281 281 281 281 281 278 278 278 277 277 276 276 275 275 274 274
287 287 287 287 286 286 285 285 285 285 284 283 283 282 281 280 280 280 280 279 279 279 279 279 279 279 279 279 280 280 280 277 277 277 276 276 276 275 275 274 274 274 273
287 286 286 286 285 285 285 284 284 283 283 282 281 280 279 279 278 278 278 278 278 278 278 278 278 277 278 278 278 279 277 276 276 276 275 276 275 275 274 273 273 273 273
286 286 285 285 284 284 284 283 283 282 281 280 279 278 278 277 277 277 277 276 276 276 277 277 276 276 276 277 277 277 276 275 274 275 278 278 274 274 273 273 273 272 272
285 285 284 284 284 283 283 282 281 280 279 278 278 277 276 276 276 276 275 275 275 274 274 275 275 275 275 276 276 276 275 274 275 277 278 276 273 273 272 272 272 272 272
284 284 283 283 282 282 281 280 280 279 278 277 276 275 275 275 275 274 274 274 273 273 273 273 273 274 274 274 275 275 275 275 276 276 276 274 272 272 271 271 271 271 271
283 282 282 281 281 280 279 279 278 277 276 275 275 274 274 274 274 274 273 273 273 272 272 272 272 272 273 273 273 274 274 274 275 275 274 273 271 271 271 270 270 270 270

GFSGL_850_thetae_102.txt.gz
Theta_e
317 318 319 314 311 310 309 307 305 302 301 299 297 296 296 296 296 296 295 295 295 295 294 294 294 293 293 293 293 293 293 293 293 293 292 293 293 293 293 293 293 293 293
315 312 310 310 308 307 304 302 301 298 297 296 296 296 296 296 295 295 295 295 294 294 293 293 293 293 293 292 292 292 292 292 292 293 292 293 293 292 292 292 292 291 291
310 310 309 307 304 302 301 299 297 296 296 296 296 296 295 295 295 294 294 294 293 293 293 292 292 292 292 292 292 292 292 291 291 289 291 291 292 290 290 289 288 288 288
308 307 305 302 301 299 297 296 296 297 297 297 296 295 295 294 294 294 293 293 292 292 292 292 292 291 291 291 291 291 291 290 289 288 288 288 288 288 287 287 288 287 288
305 303 302 300 298 296 296 297 297 297 297 296 295 294 294 293 293 292 292 291 291 291 291 291 291 291 291 291 291 291 290 288 288 288 287 286 286 286 286 286 287 287 287
302 301 300 297 296 296 297 297 297 297 296 294 294 293 293 292 291 291 290 290 290 290 290 290 290 291 290 290 290 290 289 287 286 286 286 286 286 286 287 286 286 285 285
300 299 297 296 296 297 297 297 297 296 294 293 293 292 291 290 290 290 290 290 290 290 290 290 290 290 290 290 290 290 289 286 286 286 286 286 286 286 286 286 285 285 286
299 297 296 296 297 297 297 297 296 294 293 292 291 291 290 290 289 289 289 289 289 289 289 289 289 289 289 290 290 289 289 287 285 286 285 286 285 285 286 286 285 285 286
298 296 296 296 297 297 297 297 294 293 292 291 291 290 289 289 289 289 289 289 289 289 289 289 289 289 289 289 289 288 287 287 285 285 286 286 286 286 286 286 286 286 286
297 296 296 296 296 296 296 294 293 291 291 290 289 289 289 289 289 289 289 289 289 289 288 288 288 288 289 289 286 286 286 287 285 286 286 286 286 286 286 286 286 286 285
296 295 296 296 296 296 294 292 291 291 290 289 289 289 289 289 288 288 288 288 288 288 288 288 287 286 286 286 285 285 285 285 286 286 286 286 286 286 286 286 285 285 285
295 295 296 296 295 294 292 291 290 290 289 289 289 288 288 288 288 288 288 287 287 287 287 286 285 284 285 285 285 284 286 286 286 286 286 286 286 286 286 285 285 284 284
295 295 296 295 294 292 291 290 290 289 289 288 289 288 288 288 288 288 287 287 287 286 285 284 284 284 285 284 284 284 285 286 286 286 286 286 286 286 285 285 285 285 285
296 296 295 295 293 291 290 289 289 288 288 288 288 288 288 288 287 287 287 286 286 286 285 284 285 285 284 284 284 284 285 285 286 286 286 286 286 285 285 284 284 284 284
295 295 295 293 292 292 289 289 288 288 288 287 288 288 287 287 287 286 286 286 285 284 284 284 284 285 285 285 285 285 285 285 285 285 285 285 285 285 283 282 283 282 282
295 295 297 298 292 289 289 288 288 288 287 287 287 287 286 286 286 286 285 284 284 283 283 283 284 284 284 284 284 284 285 285 285 285 285 285 283 282 281 280 280 280 280
297 297 297 292 289 289 288 288 287 287 287 286 286 286 286 286 286 285 284 284 284 284 284 283 283 283 283 283 283 283 284 284 284 284 284 282 281 280 279 279 278 278 278
299 296 291 289 288 288 288 287 287 286 286 286 286 286 285 285 285 284 284 284 284 283 283 283 282 282 283 283 283 283 283 283 283 283 283 280 279 278 278 277 276 276 276
295 291 289 288 288 288 287 287 286 286 286 286 285 285 285 284 284 284 284 283 283 282 281 281 281 282 282 282 282 281 282 282 282 282 280 278 278 277 277 276 275 275 275
291 290 288 288 287 287 287 286 286 286 286 285 285 284 284 284 284 283 283 282 281 281 280 280 280 280 280 279 279 279 280 280 280 281 278 277 277 276 276 276 275 274 274
290 289 287 287 287 286 286 286 286 286 285 285 284 284 284 284 283 282 281 280 280 279 279 279 279 279 279 278 277 278 278 278 279 279 276 276 276 276 278 276 275 274 273
289 288 287 287 286 286 286 286 285 285 285 284 283 283 283 282 281 280 279 279 278 278 278 278 278 278 277 277 276 276 276 277 277 275 274 274 275 279 278 275 274 273 273
288 287 287 286 286 286 285 285 285 284 283 283 283 282 282 281 280 279 278 277 277 277 277 276 276 276 276 275 275 275 275 275 276 275 274 274 277 278 277 274 273 273 272
287 286 286 286 285 285 285 284 283 283 282 282 281 281 280 280 279 278 277 276 276 276 275 275 275 275 274 274 274 274 274 274 274 274 274 275 276 276 275 273 272 272 271
287 286 285 285 284 284 283 283 282 282 281 281 280 279 279 278 277 276 275 275 275 274 274 274 274 274 273 273 274 273 273 273 273 273 274 274 275 275 274 272 270 270 270
286 285 284 283 283 282 282 281 280 280 280 279 279 278 278 277 276 275 274 274 274 274 274 273 273 273 273 273 273 273 273 273 273 273 273 273 274 273 272 271 270 270 270

GFSGL_850_thetae_105.txt.gz
Theta_e
318 325 328 327 326 322 319 318 314 309 307 303 301 299 297 296 296 296 295 295 295 294 294 294 293 293 293 292 292 292 292 292 292 292 291 291 291 291 291 291 290 290 289
321 324 326 326 324 319 314 311 308 306 302 300 297 296 296 296 296 296 295 295 294 294 293 293 292 292 292 292 291 291 291 291 291 291 291 291 291 290 290 291 289 288 288
319 322 322 322 316 311 309 307 303 301 298 296 296 296 296 296 295 295 294 294 293 293 292 292 291 291 291 291 291 291 290 290 290 289 289 289 289 290 289 289 288 288 287
317 318 317 312 310 308 305 301 299 296 296 296 296 296 296 295 294 294 293 292 292 291 291 290 290 290 290 290 290 290 290 289 289 288 287 287 287 288 287 287 289 287 287
313 311 309 308 306 302 300 298 296 296 296 296 296 295 295 294 294 293 292 291 291 290 290 290 290 290 290 290 290 289 289 288 286 288 287 286 285 286 285 286 286 287 287
308 308 307 304 302 300 297 296 296 297 296 296 295 294 294 293 292 292 291 291 290 290 290 290 289 289 289 289 289 289 289 288 287 285 285 285 285 285 285 285 286 286 286
307 305 303 301 300 297 296 296 296 296 296 295 294 293 293 292 292 291 291 290 290 290 289 289 289 289 288 288 288 289 288 287 286 285 285 285 285 285 285 286 286 286 286
305 303 301 300 297 296 296 297 296 296 295 293 293 292 292 291 291 290 290 290 289 289 289 289 288 288 288 288 288 288 287 286 285 284 285 285 285 285 286 286 285 285 286
303 301 299 297 296 296 296 296 296 295 293 292 292 291 291 290 290 290 290 289 289 289 288 288 288 288 288 288 287 288 287 286 286 285 285 286 286 286 286 286 286 285 285
303 300 298 296 296 296 296 296 296 293 292 291 291 291 290 290 290 289 289 289 289 288 288 288 287 287 287 287 286 286 285 285 285 285 287 286 286 286 286 285 285 285 284
302 299 297 295 295 296 296 295 294 292 291 290 291 290 289 289 289 288 288 288 288 288 288 287 287 287 287 286 285 285 284 284 286 286 286 286 286 286 285 285 285 285 285
301 298 296 295 295 295 295 294 292 290 290 292 290 289 289 288 288 288 288 288 287 287 287 287 287 286 286 285 285 284 284 284 286 286 286 286 286 286 286 285 285 284 284
299 297 295 295 295 295 294 292 291 290 292 289 291 288 288 288 288 287 287 287 287 287 287 287 286 286 286 285 284 283 283 284 286 286 286 286 286 286 286 285 284 283 283
299 296 294 294 295 294 293 291 290 289 293 293 288 288 288 287 287 287 287 287 287 287 286 286 286 285 285 285 285 284 284 285 285 285 285 285 285 285 285 283 282 282 282
298 295 294 294 295 294 292 289 293 296 291 288 288 287 287 287 287 287 287 287 287 286 286 286 285 285 285 285 285 285 285 284 284 285 285 285 285 285 283 281 280 280 279
297 295 294 294 294 292 291 298 296 290 288 288 287 287 287 287 287 287 286 286 286 286 285 285 285 284 284 284 284 284 284 284 284 284 284 284 284 283 281 280 280 279 278
297 295 294 294 294 295 298 296 289 288 288 287 287 287 287 286 286 286 286 286 285 285 285 284 284 284 283 283 283 283 283 283 283 283 283 283 283 281 279 279 280 278 277
295 295 295 295 298 300 298 289 288 288 287 287 287 286 286 286 286 285 285 285 284 284 284 283 283 283 283 283 282 283 282 282 282 282 282 282 282 279 278 278 278 278 277
294 295 298 300 299 296 290 288 287 287 287 286 286 286 286 285 285 284 284 284 284 283 283 282 282 282 282 282 281 281 281 281 281 280 280 280 279 277 276 276 277 278 277
295 300 299 300 297 291 288 287 287 287 286 286 286 285 285 284 284 284 284 283 283 282 282 282 282 281 281 280 280 280 280 279 279 279 279 279 278 276 275 275 275 277 275
298 298 300 298 292 289 287 287 287 286 286 286 285 285 284 284 284 283 283 283 282 282 282 281 281 280 280 279 279 279 278 278 277 277 277 278 277 275 274 275 277 276 274
298 299 298 293 290 288 287 286 286 286 286 285 285 284 284 284 283 283 282 282 281 281 281 280 280 279 278 278 277 277 277 276 275 276 276 276 276 274 274 276 277 275 273
298 296 292 290 288 287 286 286 285 285 285 284 284 283 283 283 282 282 281 281 280 280 279 279 278 277 277 276 276 275 275 275 275 275 274 275 275 275 275 276 276 275 272
293 291 290 289 288 287 286 285 285 284 284 283 283 282 282 281 281 280 280 279 279 278 278 277 277 276 275 275 275 274 274 274 274 274 274 274 274 274 274 274 274 274 273
292 290 290 288 287 286 286 285 284 283 282 282 282 281 280 280 279 279 278 278 278 277 276 276 275 275 275 274 274 274 273 273 273 273 273 273 273 273 273 273 273 273 272
290 288 287 287 287 288 285 283 283 281 280 280 280 279 279 278 278 278 277 277 277 276 275 275 275 274 274 274 273 273 273 273 273 272 272 272 272 272 272 272 272 272 271

GFSGL_850_thetae_108.txt.gz
Theta_e
311 310 310 314 328 329 326 323 321 318 317 317 310 307 302 299 297 296 296 296 295 295 295 294 293 293 292 292 291 291 291 290 290 291 290 290 290 290 290 290 290 289 288
310 310 312 323 323 324 324 323 320 316 317 310 306 301 298 296 296 296 296 295 295 294 293 293 292 292 291 291 290 290 290 290 290 289 289 289 289 290 289 289 289 288 288
313 315 320 321 323 323 323 322 318 316 310 305 300 297 296 296 296 295 295 295 294 293 293 292 291 291 291 290 290 290 289 289 289 288 289 289 289 289 289 289 288 288 288
317 319 320 321 321 322 323 319 315 309 304 300 297 296 296 296 295 295 294 294 293 292 292 292 291 291 290 290 289 289 289 289 288 288 288 288 287 287 287 287 288 288 288
317 318 318 319 320 322 319 313 308 303 299 296 296 296 296 295 294 294 293 292 292 292 291 291 290 290 290 289 289 289 288 288 288 286 285 285 286 286 286 286 286 287 287
316 318 319 319 320 317 310 307 302 299 296 295 296 295 295 294 293 293 292 292 291 291 291 290 290 290 289 289 288 288 288 287 287 285 285 284 284 284 284 285 286 286 286
315 316 317 317 312 308 305 301 298 296 296 296 296 294 294 293 292 291 291 291 291 291 290 290 290 289 289 288 288 288 287 287 285 285 284 285 284 284 284 286 285 285 285
313 313 312 309 306 304 300 298 296 295 296 296 295 293 292 292 291 291 291 291 291 291 290 290 290 289 288 288 287 287 287 287 285 285 284 285 284 284 286 285 285 285 286
309 308 307 306 303 300 298 296 295 296 296 295 293 292 291 291 290 290 291 290 290 290 290 289 289 288 287 287 286 286 286 285 285 286 286 286 286 286 286 286 286 286 286
308 307 306 304 301 299 297 295 296 296 295 293 292 291 290 291 290 290 290 290 290 290 290 289 288 287 287 286 286 286 285 285 285 286 287 286 286 286 286 286 286 285 285
307 306 305 302 299 297 295 295 296 295 294 292 291 290 292 292 290 291 290 289 289 289 288 288 287 287 286 286 286 286 285 284 285 286 286 286 286 286 285 285 285 284 283
307 306 304 301 298 296 295 295 295 294 293 291 290 294 292 290 297 291 289 288 288 288 288 287 287 286 286 286 286 286 285 284 285 285 286 286 286 285 285 285 285 284 283
306 305 303 299 297 295 294 295 294 293 291 290 294 292 295 297 292 288 288 288 288 287 287 287 286 286 286 286 286 286 286 285 285 284 285 285 285 285 285 285 285 283 282
304 304 302 298 296 294 294 294 294 293 290 290 291 297 297 292 288 288 287 287 287 287 286 286 286 286 285 285 285 286 285 285 285 284 284 285 285 285 285 285 284 281 280
302 302 300 297 295 294 294 294 294 291 289 293 298 296 293 288 288 287 287 286 286 286 286 286 285 285 285 285 285 285 285 284 284 284 284 284 284 284 284 284 282 280 279
301 301 299 296 294 293 294 293 292 289 293 297 297 293 288 287 287 286 286 286 286 286 285 285 285 285 285 285 285 285 284 284 283 283 283 283 284 283 283 283 280 278 278
301 300 298 296 294 293 293 293 290 295 298 298 296 288 287 286 286 286 286 286 286 285 285 285 285 285 284 284 284 283 283 283 283 283 282 282 283 282 282 281 279 277 277
298 298 298 296 294 293 294 292 295 299 299 297 291 287 287 286 286 286 286 285 285 285 285 285 284 284 283 283 283 283 282 282 282 282 281 281 281 281 280 280 277 277 276
297 297 296 294 293 294 293 295 299 299 297 290 287 287 287 286 286 286 285 285 285 285 284 284 283 283 282 282 282 281 281 281 281 281 280 280 279 279 279 278 276 275 276
296 296 295 294 293 293 297 298 297 297 293 287 287 287 286 285 285 285 285 285 284 284 283 283 282 282 281 281 281 280 280 280 280 279 279 279 278 277 278 277 276 274 275
296 294 293 293 293 298 298 298 298 296 289 287 286 286 285 285 285 285 284 284 284 283 283 282 282 281 280 280 280 279 279 279 278 278 278 277 276 276 276 276 275 274 276
294 293 293 293 297 297 298 298 297 290 287 286 286 285 285 285 284 284 283 283 282 282 282 281 281 280 279 279 278 278 278 277 277 277 277 276 275 275 275 275 275 275 276
293 293 293 294 297 297 298 296 290 288 287 286 285 285 284 284 283 283 282 282 282 281 281 280 279 279 278 278 277 277 277 276 276 276 275 275 274 274 274 274 274 274 274
293 292 292 293 294 295 294 290 288 287 286 285 284 284 283 283 282 282 281 281 281 280 280 279 278 278 277 277 276 276 275 275 275 274 274 274 274 273 273 273 273 273 273
292 292 292 292 293 292 290 287 286 285 284 284 284 283 282 282 281 281 280 280 279 279 278 278 277 277 276 276 275 275 274 274 274 274 273 273 273 273 272 272 272 272 272
289 289 289 290 290 289 287 285 284 285 283 284 284 282 280 280 280 279 279 278 278 277 277 277 276 276 275 275 275 274 274 274 274 273 273 273 272 272 272 272 272 271 271

GFSGL_850_thetae_111.txt.gz
Theta_e
311 311 311 311 310 311 329 328 328 325 323 321 318 317 317 309 305 300 297 296 296 296 295 294 294 293 292 292 291 291 290 290 290 290 289 289 289 289 289 289 289 288 288
311 311 310 310 310 309 323 326 326 324 321 319 316 317 309 304 299 296 296 296 295 295 294 293 293 292 292 292 291 291 290 289 289 289 289 289 289 289 289 289 288 288 288
310 310 311 310 310 316 323 326 325 323 320 317 315 313 305 299 296 296 296 295 295 294 293 293 292 292 291 291 291 290 290 289 289 289 289 288 289 289 289 289 288 288 287
310 311 311 311 311 318 320 324 322 322 322 316 314 305 299 296 296 295 295 294 293 292 292 292 292 292 291 291 290 290 290 289 289 288 288 288 288 289 289 287 288 288 287
311 312 311 315 318 319 322 322 321 320 319 315 307 300 296 295 295 295 294 293 292 292 292 292 292 291 291 291 290 290 289 289 288 288 288 288 288 288 286 286 287 287 287
312 312 315 317 317 320 321 320 319 317 316 307 300 297 295 295 295 294 293 292 291 291 291 291 291 291 291 290 290 289 289 288 287 287 287 287 287 285 285 286 286 286 286
312 312 315 316 317 318 318 317 317 315 308 301 297 295 295 295 294 293 292 291 291 291 291 291 291 291 290 290 289 289 288 287 287 286 286 287 285 284 286 286 286 286 285
310 313 314 315 315 316 316 316 313 307 302 298 296 295 295 294 293 292 291 291 290 290 290 291 290 290 290 289 289 288 288 287 287 286 287 285 285 285 286 286 286 286 285
310 311 314 315 315 314 314 311 305 302 298 296 295 295 295 293 292 291 291 290 290 290 291 290 290 289 289 289 288 288 287 287 286 287 287 287 287 286 286 286 286 286 285
309 310 312 314 315 315 313 307 303 299 296 295 296 295 293 292 291 291 290 290 290 296 290 289 289 289 288 288 288 287 287 286 286 286 286 287 286 286 286 286 286 285 284
309 309 309 311 312 310 307 303 299 297 295 295 295 294 292 291 291 291 290 295 298 292 289 289 288 288 288 288 287 287 286 286 285 285 286 286 286 286 286 285 285 285 285
308 307 307 308 307 305 303 300 297 295 295 295 294 292 290 291 292 291 298 298 294 289 288 288 288 287 287 287 287 286 285 285 285 285 285 285 286 286 285 285 285 285 285
306 306 306 305 304 303 300 297 295 294 294 294 293 291 290 292 293 298 297 296 289 288 288 287 287 287 287 286 286 285 285 285 285 285 285 285 285 285 285 285 284 284 284
305 305 304 304 303 302 299 296 295 294 294 294 292 290 291 293 298 297 298 293 288 287 287 287 286 286 286 286 285 285 285 285 285 285 285 285 284 284 284 284 284 284 283
304 303 302 302 302 300 297 296 295 294 294 294 293 290 293 298 299 298 295 288 287 286 286 286 286 286 285 285 285 284 284 284 284 284 284 284 284 283 284 283 283 283 282
302 302 301 301 300 299 297 295 293 293 293 292 289 293 297 298 298 295 288 287 286 286 286 286 286 285 285 284 284 284 283 284 283 283 283 283 283 283 283 283 282 282 281
301 300 299 299 298 298 295 294 293 292 291 290 289 295 297 296 296 290 287 286 286 286 286 286 285 285 284 284 284 283 283 283 283 283 282 282 282 282 282 282 281 281 280
299 299 298 297 298 297 295 294 292 292 292 291 291 297 297 298 296 287 286 286 286 286 286 285 285 284 284 283 283 283 283 282 282 282 281 281 281 281 281 280 280 280 279
299 298 298 296 295 295 294 293 292 292 292 292 296 296 296 296 294 287 286 286 286 285 285 284 284 283 283 283 283 282 282 282 281 281 280 280 280 280 279 279 278 278 278
299 298 296 295 294 294 293 292 292 292 292 294 296 297 298 295 288 287 286 286 286 285 284 284 283 283 283 283 282 282 281 281 280 280 279 279 279 278 278 277 277 277 277
298 296 295 294 293 293 293 292 292 292 293 294 297 297 296 291 287 287 286 285 285 284 283 283 283 282 282 282 281 281 280 280 279 279 278 278 277 277 276 276 276 276 276
297 294 293 293 292 292 292 291 292 293 294 296 297 297 292 287 287 286 285 285 284 283 283 282 282 282 281 281 280 280 279 279 278 277 277 276 276 275 275 275 275 275 274
295 294 292 291 292 292 291 291 292 293 297 297 297 296 288 287 286 285 285 284 283 283 282 282 281 281 280 280 280 279 278 278 277 276 276 275 275 274 274 274 274 274 274
293 293 292 291 290 290 290 290 290 291 293 293 293 289 285 285 285 284 283 282 282 281 281 281 280 279 279 279 278 278 277 276 276 275 275 274 274 274 273 273 273 273 273
290 291 292 290 289 289 289 290 290 290 290 289 288 285 283 283 283 283 282 282 281 280 280 279 278 278 278 277 277 276 276 275 275 275 274 274 274 273 273 273 273 272 272
286 288 289 289 289 288 287 287 287 288 287 287 287 284 282 282 281 282 283 281 279 279 278 278 277 278 277 276 276 275 275 274 274 274 273 273 273 273 273 272 272 271 271

GFSGL_850_thetae_114.txt.gz
Theta_e
315 317 319 322 324 325 327 327 328 329 330 327 326 323 321 319 317 317 311 303 297 296 296 296 295 294 293 293 292 292 292 291 290 290 289 289 289 289 289 289 289 289 288
314 316 318 318 317 316 314 314 324 326 328 328 325 322 320 317 316 312 304 297 296 296 296 295 294 293 292 292 292 291 291 290 290 290 289 289 288 289 289 289 289 289 288
311 311 311 311 311 311 311 311 311 318 324 326 323 320 319 316 314 305 298 296 296 295 295 294 293 292 292 292 291 291 291 290 290 289 289 289 288 288 289 289 288 288 288
310 311 311 310 310 310 310 310 311 314 324 325 320 319 317 316 308 300 296 296 295 295 294 293 292 292 291 291 291 291 290 290 290 289 289 288 288 288 288 288 289 288 288
310 310 310 310 311 311 311 310 316 321 321 321 320 319 316 312 303 297 295 295 295 294 293 292 292 291 291 291 291 291 290 290 289 289 288 288 288 288 288 288 288 287 287
310 310 310 312 312 313 312 316 320 321 320 318 318 316 314 306 298 295 295 295 294 293 292 292 291 291 291 291 291 290 290 290 289 289 288 288 288 288 288 288 287 287 286
309 310 311 312 312 314 317 318 321 320 320 318 317 314 310 301 296 295 295 294 293 292 291 291 291 291 291 291 290 290 290 289 289 288 288 287 288 288 288 288 287 286 286
310 310 310 312 313 316 317 319 319 318 318 317 316 309 302 297 295 295 294 293 292 291 291 290 290 290 293 290 289 289 289 289 288 288 287 287 287 288 287 287 286 286 286
310 310 310 311 312 315 316 318 318 317 316 315 311 304 299 295 295 294 293 292 291 291 290 290 293 296 290 289 289 289 289 288 288 288 287 287 287 287 287 287 286 286 286
309 310 309 310 312 313 315 316 317 316 314 311 302 297 296 295 294 293 292 291 290 290 290 297 297 292 289 288 288 288 288 287 287 287 286 286 287 287 287 286 286 286 285
308 308 308 309 311 311 313 314 314 313 310 302 297 295 294 294 293 292 291 290 290 290 297 297 295 292 288 288 287 287 287 287 286 286 286 286 286 286 286 286 286 285 285
307 307 307 307 308 311 312 312 312 310 305 299 296 294 294 293 292 290 290 290 290 299 297 296 295 289 288 287 287 287 287 286 286 286 286 286 286 286 286 285 285 285 285
306 306 306 306 306 308 310 310 308 304 299 297 295 294 293 293 291 289 290 290 298 297 296 296 290 287 287 287 287 286 286 286 285 285 285 285 285 285 285 285 285 284 284
305 305 304 304 304 304 305 306 305 302 298 295 294 293 293 292 290 289 290 297 297 297 296 293 287 287 286 286 286 286 286 285 285 285 285 284 284 284 284 284 284 284 284
305 304 304 303 302 302 302 302 302 300 298 297 295 294 294 292 291 291 297 298 298 296 296 288 287 286 286 286 286 285 285 285 284 284 284 284 283 284 284 283 283 283 283
303 303 302 302 301 301 300 300 298 297 296 295 294 293 293 292 289 295 298 297 296 297 291 287 286 286 286 285 285 285 285 284 284 284 283 283 283 283 283 282 282 282 282
303 301 301 300 299 300 299 299 298 297 295 294 293 292 291 289 291 298 296 295 295 293 286 286 286 286 285 285 285 284 284 284 283 283 282 282 282 282 282 281 281 281 281
302 301 299 298 298 297 297 297 297 296 295 295 293 292 290 288 296 296 295 295 296 288 286 286 286 286 285 285 284 284 283 283 283 282 282 282 282 281 281 281 280 280 279
300 300 299 297 296 295 295 294 294 294 294 293 292 292 292 289 294 294 295 295 296 291 287 287 286 285 285 284 284 283 283 282 282 281 281 281 281 280 280 279 279 278 278
299 298 297 296 295 294 294 293 293 292 292 291 291 292 292 290 293 296 295 296 295 294 291 286 285 285 284 284 283 283 282 282 281 281 281 280 280 279 279 278 278 277 277
296 297 297 296 294 292 291 291 291 291 291 291 291 291 290 292 294 294 296 296 296 293 288 286 285 284 284 283 283 282 282 281 281 281 280 279 279 278 278 277 277 276 276
293 294 295 295 293 291 290 289 289 289 289 289 289 290 289 292 294 296 295 296 295 287 286 285 284 283 283 282 282 281 281 280 280 279 279 278 278 277 276 276 276 275 275
288 290 292 293 293 292 291 290 289 288 288 287 288 289 288 291 293 293 292 293 290 285 284 284 283 283 282 282 281 280 280 279 279 278 278 277 277 276 275 275 275 274 274
286 286 287 289 291 292 290 289 289 288 287 287 287 287 287 285 287 289 290 288 283 283 282 282 282 282 281 281 280 280 279 278 278 277 277 276 275 275 274 275 274 274 273
286 286 286 286 287 288 289 289 288 287 287 287 287 288 288 287 288 288 287 286 283 282 282 281 280 280 280 280 279 278 278 277 277 276 276 275 274 274 274 274 273 273 272
285 285 285 285 285 285 286 286 287 287 286 286 285 285 285 285 285 285 284 283 281 280 281 280 280 280 279 278 278 277 277 276 276 275 275 274 274 274 273 273 272 272 271

GFSGL_850_thetae_120.txt.gz
Theta_e
312 315 319 322 323 324 324 325 327 329 331 331 329 327 328 330 329 326 324 323 322 319 318 317 317 310 297 296 295 294 294 293 292 293 291 290 290 290 290 289 289 289 289
310 310 311 316 323 325 326 327 328 328 330 331 330 330 328 329 329 327 324 323 321 319 318 317 316 302 296 295 294 294 293 292 292 291 291 291 290 290 289 289 289 289 288
309 309 309 310 312 319 323 324 325 325 327 329 327 324 326 326 328 327 325 324 322 319 317 316 312 298 296 295 294 293 293 292 292 291 291 291 290 290 289 289 289 288 288
310 310 309 309 309 310 311 315 318 320 323 327 328 326 324 325 325 325 325 323 321 318 316 313 303 296 295 294 293 293 292 292 292 291 291 291 290 289 289 289 288 288 288
310 310 309 309 310 312 314 314 315 314 314 314 318 323 323 320 321 322 322 322 319 317 314 305 296 295 294 293 292 292 292 291 291 291 292 290 290 289 289 288 288 288 288
310 310 310 310 310 310 310 310 310 310 310 310 311 311 311 319 319 318 320 320 318 315 313 300 295 294 293 293 292 291 291 291 293 291 291 290 289 289 288 288 288 288 288
309 310 310 310 310 310 310 309 310 310 311 311 310 310 316 317 316 318 318 318 315 314 308 297 295 294 293 292 291 291 291 296 292 292 290 290 289 288 288 287 287 287 287
309 309 310 310 310 310 309 309 310 311 312 312 312 312 312 313 316 317 316 314 313 306 300 295 294 294 293 292 291 291 294 293 294 296 291 289 288 287 287 287 287 287 287
307 307 308 308 309 309 309 309 310 311 312 313 313 313 315 315 314 314 315 313 309 300 295 294 294 293 291 291 290 291 294 295 296 297 291 288 288 287 286 287 286 286 286
307 307 306 307 307 308 308 309 309 310 311 314 314 314 316 316 314 314 312 312 306 296 294 294 293 292 291 290 290 295 293 296 294 294 289 288 287 286 286 286 286 286 286
307 308 307 306 306 307 307 308 308 310 311 312 313 314 315 314 312 311 309 304 299 296 294 293 293 291 290 290 290 294 294 294 296 290 288 287 287 286 286 286 286 285 285
308 307 307 307 306 306 306 306 306 306 308 310 311 312 312 310 308 307 307 300 300 295 294 293 292 291 290 289 294 292 294 297 293 294 287 287 286 286 286 286 285 285 285
307 307 307 306 306 306 305 305 304 305 305 307 308 309 309 309 307 306 303 300 298 294 293 291 291 290 289 292 294 292 295 294 295 295 287 287 286 286 285 285 285 284 284
304 305 306 306 306 305 305 304 304 304 303 304 305 306 306 305 304 303 303 299 295 292 292 290 289 289 289 293 293 294 295 295 296 294 287 286 285 285 285 285 284 284 283
301 302 303 304 305 305 303 303 302 302 301 301 301 302 303 303 303 301 299 296 296 293 292 290 289 288 288 294 293 296 296 296 296 289 286 286 285 285 285 284 284 283 283
299 300 301 302 303 302 302 301 300 300 299 298 297 297 298 299 299 299 297 295 294 293 291 290 289 288 289 295 295 297 296 295 295 288 286 285 285 285 284 284 283 283 283
297 298 299 300 300 301 301 300 300 298 298 297 296 295 295 295 293 292 292 292 292 291 291 290 289 288 289 295 297 296 295 295 293 287 285 285 285 284 283 283 283 282 282
295 295 296 296 297 298 299 299 299 298 298 297 296 295 294 293 292 291 291 291 290 290 289 289 288 288 289 295 296 295 295 294 292 287 285 285 284 284 283 283 282 282 282
294 294 294 294 294 294 294 295 296 295 294 295 295 296 294 293 292 291 290 289 291 291 290 289 289 288 290 294 295 295 294 294 292 286 285 285 284 283 283 282 282 281 281
290 290 290 290 290 290 291 291 292 293 293 292 293 292 292 292 291 289 289 289 289 290 290 289 289 290 290 292 294 294 293 293 292 286 285 286 284 283 282 282 281 281 281
287 287 287 287 287 287 287 287 287 287 288 290 291 292 291 288 289 288 287 287 287 287 288 288 289 288 289 291 293 292 292 290 291 287 285 285 283 282 281 281 280 280 279
286 286 286 286 286 286 286 286 286 286 286 286 286 287 289 289 287 287 286 286 285 285 285 286 286 287 288 289 288 288 288 288 288 287 285 284 283 281 280 280 279 279 279
286 286 285 285 285 285 285 285 285 285 285 285 285 285 285 286 287 286 284 283 283 283 284 285 285 285 285 286 287 287 286 286 285 285 283 282 281 281 280 279 279 278 278
285 285 285 285 285 285 285 284 284 284 284 284 284 284 284 284 284 284 284 284 284 283 283 283 283 283 283 284 285 285 285 284 284 283 281 280 280 279 278 278 278 277 277
284 284 284 284 284 284 283 283 283 283 282 282 282 282 282 282 282 282 282 282 282 283 283 283 283 282 282 282 283 283 282 281 280 280 279 279 278 277 277 277 277 277 276
283 283 283 282 282 282 282 281 281 281 280 280 280 280 280 280 280 280 280 280 281 281 281 281 281 281 281 281 280 279 278 277 278 278 278 278 278 277 277 276 276 275 275